<?xml version="1.0" encoding="UTF-8" standalone="no" ?>
<gpx xmlns="http://www.topografix.com/GPX/1/1" xmlns:xsi="http://www.w3.org/2001/XMLSchema-instance" xsi:schemaLocation="http://www.topografix.com/GPX/1/1 http://www.topografix.com/GPX/1/1/gpx.xsd" version="1.1" creator="VisuGPX - https://www.visugpx.com">
  <metadata>
    <name>Tour du Viso</name>
    <desc><![CDATA[5 jours autour du Viso ]]></desc>
  </metadata>
  <trk>
    <name><![CDATA[12 juil. 2022]]></name>
    <desc><![CDATA[comment ...]]></desc>
    <extensions>
      <line xmlns="http://www.topografix.com/GPX/gpx_style/0/2">
        <color>0000FF</color>
        <opacity>1</opacity>
        <width>3</width>
        <dasharray>6</dasharray>
      </line>
    </extensions>
    <trkseg>
      <trkpt lat="44.73622" lon="6.99696">
        <ele>1799</ele>
        <time>2022-07-12T07:15:21Z</time>
      </trkpt>
      <trkpt lat="44.73619" lon="6.99692">
        <ele>1799</ele>
        <time>2022-07-12T07:15:25Z</time>
      </trkpt>
      <trkpt lat="44.73615" lon="6.99693">
        <ele>1798</ele>
        <time>2022-07-12T07:15:29Z</time>
      </trkpt>
      <trkpt lat="44.73611" lon="6.99695">
        <ele>1799</ele>
        <time>2022-07-12T07:15:33Z</time>
      </trkpt>
      <trkpt lat="44.73601" lon="6.9971">
        <ele>1801</ele>
        <time>2022-07-12T07:15:57Z</time>
      </trkpt>
      <trkpt lat="44.73598" lon="6.99712">
        <ele>1800</ele>
        <time>2022-07-12T07:16:02Z</time>
      </trkpt>
      <trkpt lat="44.73594" lon="6.99712">
        <ele>1800</ele>
        <time>2022-07-12T07:17:05Z</time>
      </trkpt>
      <trkpt lat="44.73591" lon="6.99715">
        <ele>1800</ele>
        <time>2022-07-12T07:17:16Z</time>
      </trkpt>
      <trkpt lat="44.73588" lon="6.99716">
        <ele>1802</ele>
        <time>2022-07-12T07:17:21Z</time>
      </trkpt>
      <trkpt lat="44.73581" lon="6.9972">
        <ele>1804</ele>
        <time>2022-07-12T07:17:36Z</time>
      </trkpt>
      <trkpt lat="44.73579" lon="6.99716">
        <ele>1804</ele>
        <time>2022-07-12T07:17:46Z</time>
      </trkpt>
      <trkpt lat="44.73575" lon="6.99719">
        <ele>1805</ele>
        <time>2022-07-12T07:17:53Z</time>
      </trkpt>
      <trkpt lat="44.73568" lon="6.99721">
        <ele>1805</ele>
        <time>2022-07-12T07:18:25Z</time>
      </trkpt>
      <trkpt lat="44.73563" lon="6.99722">
        <ele>1807</ele>
        <time>2022-07-12T07:18:30Z</time>
      </trkpt>
      <trkpt lat="44.73559" lon="6.99722">
        <ele>1804</ele>
        <time>2022-07-12T07:18:35Z</time>
      </trkpt>
      <trkpt lat="44.7356" lon="6.99718">
        <ele>1803</ele>
        <time>2022-07-12T07:18:41Z</time>
      </trkpt>
      <trkpt lat="44.73557" lon="6.99715">
        <ele>1805</ele>
        <time>2022-07-12T07:18:51Z</time>
      </trkpt>
      <trkpt lat="44.73554" lon="6.99716">
        <ele>1807</ele>
        <time>2022-07-12T07:18:57Z</time>
      </trkpt>
      <trkpt lat="44.7355" lon="6.99718">
        <ele>1811</ele>
        <time>2022-07-12T07:19:02Z</time>
      </trkpt>
      <trkpt lat="44.73547" lon="6.99718">
        <ele>1812</ele>
        <time>2022-07-12T07:19:09Z</time>
      </trkpt>
      <trkpt lat="44.73543" lon="6.99719">
        <ele>1813</ele>
        <time>2022-07-12T07:19:14Z</time>
      </trkpt>
      <trkpt lat="44.73539" lon="6.99718">
        <ele>1814</ele>
        <time>2022-07-12T07:19:20Z</time>
      </trkpt>
      <trkpt lat="44.73536" lon="6.99723">
        <ele>1813</ele>
        <time>2022-07-12T07:19:25Z</time>
      </trkpt>
      <trkpt lat="44.73533" lon="6.99726">
        <ele>1814</ele>
        <time>2022-07-12T07:19:30Z</time>
      </trkpt>
      <trkpt lat="44.7353" lon="6.99728">
        <ele>1814</ele>
        <time>2022-07-12T07:19:35Z</time>
      </trkpt>
      <trkpt lat="44.73524" lon="6.99734">
        <ele>1817</ele>
        <time>2022-07-12T07:19:46Z</time>
      </trkpt>
      <trkpt lat="44.73521" lon="6.99738">
        <ele>1817</ele>
        <time>2022-07-12T07:19:50Z</time>
      </trkpt>
      <trkpt lat="44.73518" lon="6.99741">
        <ele>1817</ele>
        <time>2022-07-12T07:19:55Z</time>
      </trkpt>
      <trkpt lat="44.73513" lon="6.99749">
        <ele>1817</ele>
        <time>2022-07-12T07:20:05Z</time>
      </trkpt>
      <trkpt lat="44.73511" lon="6.99753">
        <ele>1817</ele>
        <time>2022-07-12T07:20:09Z</time>
      </trkpt>
      <trkpt lat="44.73508" lon="6.99755">
        <ele>1818</ele>
        <time>2022-07-12T07:20:14Z</time>
      </trkpt>
      <trkpt lat="44.73491" lon="6.99766">
        <ele>1821</ele>
        <time>2022-07-12T07:20:38Z</time>
      </trkpt>
      <trkpt lat="44.73464" lon="6.99774">
        <ele>1826</ele>
        <time>2022-07-12T07:21:13Z</time>
      </trkpt>
      <trkpt lat="44.73455" lon="6.99778">
        <ele>1827</ele>
        <time>2022-07-12T07:21:25Z</time>
      </trkpt>
      <trkpt lat="44.73428" lon="6.99776">
        <ele>1830</ele>
        <time>2022-07-12T07:22:04Z</time>
      </trkpt>
      <trkpt lat="44.73418" lon="6.99776">
        <ele>1831</ele>
        <time>2022-07-12T07:22:16Z</time>
      </trkpt>
      <trkpt lat="44.73409" lon="6.99779">
        <ele>1832</ele>
        <time>2022-07-12T07:22:28Z</time>
      </trkpt>
      <trkpt lat="44.73401" lon="6.99785">
        <ele>1833</ele>
        <time>2022-07-12T07:22:40Z</time>
      </trkpt>
      <trkpt lat="44.73393" lon="6.9979">
        <ele>1835</ele>
        <time>2022-07-12T07:22:53Z</time>
      </trkpt>
      <trkpt lat="44.73385" lon="6.99795">
        <ele>1835</ele>
        <time>2022-07-12T07:23:03Z</time>
      </trkpt>
      <trkpt lat="44.73376" lon="6.998">
        <ele>1831</ele>
        <time>2022-07-12T07:23:15Z</time>
      </trkpt>
      <trkpt lat="44.73368" lon="6.99806">
        <ele>1829</ele>
        <time>2022-07-12T07:23:24Z</time>
      </trkpt>
      <trkpt lat="44.73353" lon="6.99822">
        <ele>1829</ele>
        <time>2022-07-12T07:24:05Z</time>
      </trkpt>
      <trkpt lat="44.73346" lon="6.9983">
        <ele>1831</ele>
        <time>2022-07-12T07:24:21Z</time>
      </trkpt>
      <trkpt lat="44.73343" lon="6.99842">
        <ele>1837</ele>
        <time>2022-07-12T07:24:39Z</time>
      </trkpt>
      <trkpt lat="44.73333" lon="6.99864">
        <ele>1848</ele>
        <time>2022-07-12T07:25:12Z</time>
      </trkpt>
      <trkpt lat="44.73329" lon="6.99876">
        <ele>1856</ele>
        <time>2022-07-12T07:25:28Z</time>
      </trkpt>
      <trkpt lat="44.7332" lon="6.99881">
        <ele>1858</ele>
        <time>2022-07-12T07:25:45Z</time>
      </trkpt>
      <trkpt lat="44.73311" lon="6.99882">
        <ele>1866</ele>
        <time>2022-07-12T07:26:05Z</time>
      </trkpt>
      <trkpt lat="44.73303" lon="6.99877">
        <ele>1867</ele>
        <time>2022-07-12T07:26:20Z</time>
      </trkpt>
      <trkpt lat="44.73294" lon="6.99877">
        <ele>1870</ele>
        <time>2022-07-12T07:26:28Z</time>
      </trkpt>
      <trkpt lat="44.73284" lon="6.99875">
        <ele>1869</ele>
        <time>2022-07-12T07:26:34Z</time>
      </trkpt>
      <trkpt lat="44.73267" lon="6.99861">
        <ele>1867</ele>
        <time>2022-07-12T07:26:52Z</time>
      </trkpt>
      <trkpt lat="44.73258" lon="6.99864">
        <ele>1863</ele>
        <time>2022-07-12T07:27:08Z</time>
      </trkpt>
      <trkpt lat="44.73249" lon="6.99865">
        <ele>1864</ele>
        <time>2022-07-12T07:27:25Z</time>
      </trkpt>
      <trkpt lat="44.7324" lon="6.99865">
        <ele>1864</ele>
        <time>2022-07-12T07:27:42Z</time>
      </trkpt>
      <trkpt lat="44.73243" lon="6.99877">
        <ele>1864</ele>
        <time>2022-07-12T07:28:01Z</time>
      </trkpt>
      <trkpt lat="44.73249" lon="6.99887">
        <ele>1864</ele>
        <time>2022-07-12T07:28:25Z</time>
      </trkpt>
      <trkpt lat="44.73258" lon="6.9989">
        <ele>1866</ele>
        <time>2022-07-12T07:28:37Z</time>
      </trkpt>
      <trkpt lat="44.73255" lon="6.99902">
        <ele>1869</ele>
        <time>2022-07-12T07:29:20Z</time>
      </trkpt>
      <trkpt lat="44.73251" lon="6.99913">
        <ele>1875</ele>
        <time>2022-07-12T07:29:42Z</time>
      </trkpt>
      <trkpt lat="44.73242" lon="6.99914">
        <ele>1877</ele>
        <time>2022-07-12T07:29:56Z</time>
      </trkpt>
      <trkpt lat="44.73233" lon="6.99914">
        <ele>1884</ele>
        <time>2022-07-12T07:30:15Z</time>
      </trkpt>
      <trkpt lat="44.73224" lon="6.99911">
        <ele>1890</ele>
        <time>2022-07-12T07:30:32Z</time>
      </trkpt>
      <trkpt lat="44.73219" lon="6.99908">
        <ele>1893</ele>
        <time>2022-07-12T07:30:42Z</time>
      </trkpt>
      <trkpt lat="44.73215" lon="6.99907">
        <ele>1894</ele>
        <time>2022-07-12T07:30:48Z</time>
      </trkpt>
      <trkpt lat="44.73211" lon="6.99909">
        <ele>1893</ele>
        <time>2022-07-12T07:30:54Z</time>
      </trkpt>
      <trkpt lat="44.73208" lon="6.99908">
        <ele>1893</ele>
        <time>2022-07-12T07:30:59Z</time>
      </trkpt>
      <trkpt lat="44.73205" lon="6.99906">
        <ele>1894</ele>
        <time>2022-07-12T07:31:04Z</time>
      </trkpt>
      <trkpt lat="44.7319" lon="6.99909">
        <ele>1893</ele>
        <time>2022-07-12T07:31:24Z</time>
      </trkpt>
      <trkpt lat="44.73186" lon="6.9991">
        <ele>1893</ele>
        <time>2022-07-12T07:31:29Z</time>
      </trkpt>
      <trkpt lat="44.7318" lon="6.99915">
        <ele>1895</ele>
        <time>2022-07-12T07:31:39Z</time>
      </trkpt>
      <trkpt lat="44.73179" lon="6.9992">
        <ele>1896</ele>
        <time>2022-07-12T07:31:45Z</time>
      </trkpt>
      <trkpt lat="44.73177" lon="6.99925">
        <ele>1897</ele>
        <time>2022-07-12T07:31:51Z</time>
      </trkpt>
      <trkpt lat="44.73175" lon="6.99929">
        <ele>1898</ele>
        <time>2022-07-12T07:31:57Z</time>
      </trkpt>
      <trkpt lat="44.73172" lon="6.99925">
        <ele>1899</ele>
        <time>2022-07-12T07:32:07Z</time>
      </trkpt>
      <trkpt lat="44.73169" lon="6.99928">
        <ele>1898</ele>
        <time>2022-07-12T07:32:09Z</time>
      </trkpt>
      <trkpt lat="44.73164" lon="6.99943">
        <ele>1898</ele>
        <time>2022-07-12T07:32:20Z</time>
      </trkpt>
      <trkpt lat="44.73162" lon="6.99947">
        <ele>1898</ele>
        <time>2022-07-12T07:32:23Z</time>
      </trkpt>
      <trkpt lat="44.7314" lon="6.99968">
        <ele>1898</ele>
        <time>2022-07-12T07:32:46Z</time>
      </trkpt>
      <trkpt lat="44.73129" lon="6.99972">
        <ele>1898</ele>
        <time>2022-07-12T07:32:57Z</time>
      </trkpt>
      <trkpt lat="44.73125" lon="6.99972">
        <ele>1899</ele>
        <time>2022-07-12T07:33:01Z</time>
      </trkpt>
      <trkpt lat="44.7312" lon="6.99971">
        <ele>1899</ele>
        <time>2022-07-12T07:33:05Z</time>
      </trkpt>
      <trkpt lat="44.73116" lon="6.99973">
        <ele>1900</ele>
        <time>2022-07-12T07:33:10Z</time>
      </trkpt>
      <trkpt lat="44.73111" lon="6.99981">
        <ele>1899</ele>
        <time>2022-07-12T07:33:18Z</time>
      </trkpt>
      <trkpt lat="44.73108" lon="6.99984">
        <ele>1898</ele>
        <time>2022-07-12T07:33:21Z</time>
      </trkpt>
      <trkpt lat="44.731" lon="6.99987">
        <ele>1898</ele>
        <time>2022-07-12T07:33:28Z</time>
      </trkpt>
      <trkpt lat="44.73082" lon="7">
        <ele>1898</ele>
        <time>2022-07-12T07:33:48Z</time>
      </trkpt>
      <trkpt lat="44.73076" lon="7.00006">
        <ele>1898</ele>
        <time>2022-07-12T07:33:55Z</time>
      </trkpt>
      <trkpt lat="44.73073" lon="7.00009">
        <ele>1897</ele>
        <time>2022-07-12T07:33:59Z</time>
      </trkpt>
      <trkpt lat="44.7306" lon="7.00021">
        <ele>1898</ele>
        <time>2022-07-12T07:34:12Z</time>
      </trkpt>
      <trkpt lat="44.73055" lon="7.00029">
        <ele>1900</ele>
        <time>2022-07-12T07:34:20Z</time>
      </trkpt>
      <trkpt lat="44.73049" lon="7.00035">
        <ele>1900</ele>
        <time>2022-07-12T07:34:29Z</time>
      </trkpt>
      <trkpt lat="44.73046" lon="7.00046">
        <ele>1901</ele>
        <time>2022-07-12T07:34:38Z</time>
      </trkpt>
      <trkpt lat="44.73046" lon="7.00051">
        <ele>1900</ele>
        <time>2022-07-12T07:34:42Z</time>
      </trkpt>
      <trkpt lat="44.73044" lon="7.00062">
        <ele>1901</ele>
        <time>2022-07-12T07:34:50Z</time>
      </trkpt>
      <trkpt lat="44.73042" lon="7.00066">
        <ele>1902</ele>
        <time>2022-07-12T07:34:54Z</time>
      </trkpt>
      <trkpt lat="44.7304" lon="7.00082">
        <ele>1903</ele>
        <time>2022-07-12T07:35:08Z</time>
      </trkpt>
      <trkpt lat="44.73033" lon="7.00095">
        <ele>1904</ele>
        <time>2022-07-12T07:35:20Z</time>
      </trkpt>
      <trkpt lat="44.7303" lon="7.00098">
        <ele>1904</ele>
        <time>2022-07-12T07:35:24Z</time>
      </trkpt>
      <trkpt lat="44.73014" lon="7.0011">
        <ele>1905</ele>
        <time>2022-07-12T07:35:45Z</time>
      </trkpt>
      <trkpt lat="44.73004" lon="7.00108">
        <ele>1905</ele>
        <time>2022-07-12T07:35:52Z</time>
      </trkpt>
      <trkpt lat="44.72995" lon="7.00111">
        <ele>1905</ele>
        <time>2022-07-12T07:36:00Z</time>
      </trkpt>
      <trkpt lat="44.72987" lon="7.00117">
        <ele>1904</ele>
        <time>2022-07-12T07:36:11Z</time>
      </trkpt>
      <trkpt lat="44.7298" lon="7.00124">
        <ele>1903</ele>
        <time>2022-07-12T07:36:20Z</time>
      </trkpt>
      <trkpt lat="44.72982" lon="7.00132">
        <ele>1900</ele>
        <time>2022-07-12T07:36:46Z</time>
      </trkpt>
      <trkpt lat="44.72988" lon="7.00141">
        <ele>1898</ele>
        <time>2022-07-12T07:36:57Z</time>
      </trkpt>
      <trkpt lat="44.72994" lon="7.00152">
        <ele>1896</ele>
        <time>2022-07-12T07:37:09Z</time>
      </trkpt>
      <trkpt lat="44.73001" lon="7.00161">
        <ele>1897</ele>
        <time>2022-07-12T07:37:21Z</time>
      </trkpt>
      <trkpt lat="44.72993" lon="7.00166">
        <ele>1901</ele>
        <time>2022-07-12T07:37:40Z</time>
      </trkpt>
      <trkpt lat="44.72983" lon="7.0017">
        <ele>1901</ele>
        <time>2022-07-12T07:37:49Z</time>
      </trkpt>
      <trkpt lat="44.72973" lon="7.00172">
        <ele>1902</ele>
        <time>2022-07-12T07:37:59Z</time>
      </trkpt>
      <trkpt lat="44.72965" lon="7.00177">
        <ele>1902</ele>
        <time>2022-07-12T07:38:10Z</time>
      </trkpt>
      <trkpt lat="44.72956" lon="7.00178">
        <ele>1901</ele>
        <time>2022-07-12T07:38:20Z</time>
      </trkpt>
      <trkpt lat="44.72949" lon="7.00187">
        <ele>1900</ele>
        <time>2022-07-12T07:38:30Z</time>
      </trkpt>
      <trkpt lat="44.7294" lon="7.0019">
        <ele>1902</ele>
        <time>2022-07-12T07:38:43Z</time>
      </trkpt>
      <trkpt lat="44.72937" lon="7.00202">
        <ele>1906</ele>
        <time>2022-07-12T07:38:59Z</time>
      </trkpt>
      <trkpt lat="44.7293" lon="7.00212">
        <ele>1909</ele>
        <time>2022-07-12T07:39:14Z</time>
      </trkpt>
      <trkpt lat="44.72927" lon="7.00224">
        <ele>1911</ele>
        <time>2022-07-12T07:39:31Z</time>
      </trkpt>
      <trkpt lat="44.72934" lon="7.00231">
        <ele>1911</ele>
        <time>2022-07-12T07:39:52Z</time>
      </trkpt>
      <trkpt lat="44.72921" lon="7.0025">
        <ele>1912</ele>
        <time>2022-07-12T07:40:21Z</time>
      </trkpt>
      <trkpt lat="44.72916" lon="7.00261">
        <ele>1912</ele>
        <time>2022-07-12T07:40:32Z</time>
      </trkpt>
      <trkpt lat="44.72911" lon="7.00273">
        <ele>1913</ele>
        <time>2022-07-12T07:40:43Z</time>
      </trkpt>
      <trkpt lat="44.72907" lon="7.00284">
        <ele>1914</ele>
        <time>2022-07-12T07:40:54Z</time>
      </trkpt>
      <trkpt lat="44.72904" lon="7.00296">
        <ele>1918</ele>
        <time>2022-07-12T07:41:05Z</time>
      </trkpt>
      <trkpt lat="44.72904" lon="7.00309">
        <ele>1921</ele>
        <time>2022-07-12T07:41:17Z</time>
      </trkpt>
      <trkpt lat="44.72909" lon="7.0032">
        <ele>1927</ele>
        <time>2022-07-12T07:41:30Z</time>
      </trkpt>
      <trkpt lat="44.72913" lon="7.00332">
        <ele>1930</ele>
        <time>2022-07-12T07:41:43Z</time>
      </trkpt>
      <trkpt lat="44.72913" lon="7.00345">
        <ele>1932</ele>
        <time>2022-07-12T07:41:57Z</time>
      </trkpt>
      <trkpt lat="44.72919" lon="7.00355">
        <ele>1935</ele>
        <time>2022-07-12T07:42:14Z</time>
      </trkpt>
      <trkpt lat="44.72892" lon="7.00392">
        <ele>1935</ele>
        <time>2022-07-12T07:42:53Z</time>
      </trkpt>
      <trkpt lat="44.72873" lon="7.00422">
        <ele>1936</ele>
        <time>2022-07-12T07:43:24Z</time>
      </trkpt>
      <trkpt lat="44.72865" lon="7.00429">
        <ele>1938</ele>
        <time>2022-07-12T07:43:33Z</time>
      </trkpt>
      <trkpt lat="44.72858" lon="7.00439">
        <ele>1941</ele>
        <time>2022-07-12T07:43:43Z</time>
      </trkpt>
      <trkpt lat="44.72852" lon="7.00448">
        <ele>1942</ele>
        <time>2022-07-12T07:43:53Z</time>
      </trkpt>
      <trkpt lat="44.7283" lon="7.00474">
        <ele>1946</ele>
        <time>2022-07-12T07:44:23Z</time>
      </trkpt>
      <trkpt lat="44.72811" lon="7.00503">
        <ele>1950</ele>
        <time>2022-07-12T07:44:51Z</time>
      </trkpt>
      <trkpt lat="44.72796" lon="7.0052">
        <ele>1955</ele>
        <time>2022-07-12T07:45:11Z</time>
      </trkpt>
      <trkpt lat="44.7279" lon="7.0053">
        <ele>1957</ele>
        <time>2022-07-12T07:45:20Z</time>
      </trkpt>
      <trkpt lat="44.72775" lon="7.00546">
        <ele>1958</ele>
        <time>2022-07-12T07:45:39Z</time>
      </trkpt>
      <trkpt lat="44.72768" lon="7.00554">
        <ele>1958</ele>
        <time>2022-07-12T07:45:48Z</time>
      </trkpt>
      <trkpt lat="44.72756" lon="7.00573">
        <ele>1962</ele>
        <time>2022-07-12T07:46:09Z</time>
      </trkpt>
      <trkpt lat="44.72744" lon="7.00593">
        <ele>1965</ele>
        <time>2022-07-12T07:46:33Z</time>
      </trkpt>
      <trkpt lat="44.72737" lon="7.00601">
        <ele>1963</ele>
        <time>2022-07-12T07:46:43Z</time>
      </trkpt>
      <trkpt lat="44.72728" lon="7.00605">
        <ele>1962</ele>
        <time>2022-07-12T07:46:53Z</time>
      </trkpt>
      <trkpt lat="44.72699" lon="7.00628">
        <ele>1964</ele>
        <time>2022-07-12T07:47:25Z</time>
      </trkpt>
      <trkpt lat="44.7269" lon="7.00636">
        <ele>1965</ele>
        <time>2022-07-12T07:47:35Z</time>
      </trkpt>
      <trkpt lat="44.72682" lon="7.00638">
        <ele>1965</ele>
        <time>2022-07-12T07:47:43Z</time>
      </trkpt>
      <trkpt lat="44.72659" lon="7.00628">
        <ele>1966</ele>
        <time>2022-07-12T07:48:07Z</time>
      </trkpt>
      <trkpt lat="44.72656" lon="7.00628">
        <ele>1966</ele>
        <time>2022-07-12T07:48:10Z</time>
      </trkpt>
      <trkpt lat="44.72641" lon="7.00633">
        <ele>1968</ele>
        <time>2022-07-12T07:48:25Z</time>
      </trkpt>
      <trkpt lat="44.72634" lon="7.00636">
        <ele>1968</ele>
        <time>2022-07-12T07:48:33Z</time>
      </trkpt>
      <trkpt lat="44.72628" lon="7.00643">
        <ele>1970</ele>
        <time>2022-07-12T07:48:41Z</time>
      </trkpt>
      <trkpt lat="44.72626" lon="7.00648">
        <ele>1971</ele>
        <time>2022-07-12T07:48:45Z</time>
      </trkpt>
      <trkpt lat="44.7262" lon="7.00662">
        <ele>1972</ele>
        <time>2022-07-12T07:48:57Z</time>
      </trkpt>
      <trkpt lat="44.72612" lon="7.00687">
        <ele>1974</ele>
        <time>2022-07-12T07:49:16Z</time>
      </trkpt>
      <trkpt lat="44.72611" lon="7.00692">
        <ele>1975</ele>
        <time>2022-07-12T07:49:20Z</time>
      </trkpt>
      <trkpt lat="44.72607" lon="7.00708">
        <ele>1975</ele>
        <time>2022-07-12T07:49:32Z</time>
      </trkpt>
      <trkpt lat="44.72606" lon="7.00713">
        <ele>1975</ele>
        <time>2022-07-12T07:49:36Z</time>
      </trkpt>
      <trkpt lat="44.72603" lon="7.00718">
        <ele>1974</ele>
        <time>2022-07-12T07:49:40Z</time>
      </trkpt>
      <trkpt lat="44.726" lon="7.00722">
        <ele>1974</ele>
        <time>2022-07-12T07:49:44Z</time>
      </trkpt>
      <trkpt lat="44.72592" lon="7.00721">
        <ele>1975</ele>
        <time>2022-07-12T07:49:50Z</time>
      </trkpt>
      <trkpt lat="44.72569" lon="7.00713">
        <ele>1975</ele>
        <time>2022-07-12T07:50:11Z</time>
      </trkpt>
      <trkpt lat="44.72565" lon="7.00714">
        <ele>1975</ele>
        <time>2022-07-12T07:50:15Z</time>
      </trkpt>
      <trkpt lat="44.72543" lon="7.00727">
        <ele>1977</ele>
        <time>2022-07-12T07:50:37Z</time>
      </trkpt>
      <trkpt lat="44.72536" lon="7.00732">
        <ele>1977</ele>
        <time>2022-07-12T07:50:44Z</time>
      </trkpt>
      <trkpt lat="44.72533" lon="7.00736">
        <ele>1978</ele>
        <time>2022-07-12T07:50:47Z</time>
      </trkpt>
      <trkpt lat="44.72532" lon="7.00741">
        <ele>1978</ele>
        <time>2022-07-12T07:50:51Z</time>
      </trkpt>
      <trkpt lat="44.72529" lon="7.00743">
        <ele>1980</ele>
        <time>2022-07-12T07:50:54Z</time>
      </trkpt>
      <trkpt lat="44.72527" lon="7.00747">
        <ele>1981</ele>
        <time>2022-07-12T07:50:57Z</time>
      </trkpt>
      <trkpt lat="44.72514" lon="7.00775">
        <ele>1979</ele>
        <time>2022-07-12T07:51:28Z</time>
      </trkpt>
      <trkpt lat="44.72512" lon="7.00779">
        <ele>1980</ele>
        <time>2022-07-12T07:51:31Z</time>
      </trkpt>
      <trkpt lat="44.72508" lon="7.00781">
        <ele>1980</ele>
        <time>2022-07-12T07:51:35Z</time>
      </trkpt>
      <trkpt lat="44.72489" lon="7.00784">
        <ele>1980</ele>
        <time>2022-07-12T07:51:53Z</time>
      </trkpt>
      <trkpt lat="44.72482" lon="7.00789">
        <ele>1980</ele>
        <time>2022-07-12T07:52:00Z</time>
      </trkpt>
      <trkpt lat="44.7248" lon="7.00795">
        <ele>1981</ele>
        <time>2022-07-12T07:52:04Z</time>
      </trkpt>
      <trkpt lat="44.72478" lon="7.00801">
        <ele>1981</ele>
        <time>2022-07-12T07:52:08Z</time>
      </trkpt>
      <trkpt lat="44.72479" lon="7.00852">
        <ele>1982</ele>
        <time>2022-07-12T07:52:41Z</time>
      </trkpt>
      <trkpt lat="44.72479" lon="7.00857">
        <ele>1982</ele>
        <time>2022-07-12T07:52:44Z</time>
      </trkpt>
      <trkpt lat="44.72476" lon="7.00873">
        <ele>1982</ele>
        <time>2022-07-12T07:52:54Z</time>
      </trkpt>
      <trkpt lat="44.72474" lon="7.00878">
        <ele>1983</ele>
        <time>2022-07-12T07:52:57Z</time>
      </trkpt>
      <trkpt lat="44.72449" lon="7.00906">
        <ele>1983</ele>
        <time>2022-07-12T07:53:24Z</time>
      </trkpt>
      <trkpt lat="44.72445" lon="7.00921">
        <ele>1984</ele>
        <time>2022-07-12T07:53:33Z</time>
      </trkpt>
      <trkpt lat="44.72428" lon="7.00962">
        <ele>1987</ele>
        <time>2022-07-12T07:54:01Z</time>
      </trkpt>
      <trkpt lat="44.72408" lon="7.01008">
        <ele>1990</ele>
        <time>2022-07-12T07:54:33Z</time>
      </trkpt>
      <trkpt lat="44.72403" lon="7.01019">
        <ele>1990</ele>
        <time>2022-07-12T07:54:42Z</time>
      </trkpt>
      <trkpt lat="44.72397" lon="7.0103">
        <ele>1989</ele>
        <time>2022-07-12T07:54:51Z</time>
      </trkpt>
      <trkpt lat="44.7239" lon="7.01056">
        <ele>1988</ele>
        <time>2022-07-12T07:55:09Z</time>
      </trkpt>
      <trkpt lat="44.72383" lon="7.0108">
        <ele>1990</ele>
        <time>2022-07-12T07:55:26Z</time>
      </trkpt>
      <trkpt lat="44.72364" lon="7.01127">
        <ele>1989</ele>
        <time>2022-07-12T07:56:02Z</time>
      </trkpt>
      <trkpt lat="44.72363" lon="7.0114">
        <ele>1987</ele>
        <time>2022-07-12T07:56:33Z</time>
      </trkpt>
      <trkpt lat="44.72359" lon="7.01152">
        <ele>1984</ele>
        <time>2022-07-12T07:56:52Z</time>
      </trkpt>
      <trkpt lat="44.72353" lon="7.01162">
        <ele>1984</ele>
        <time>2022-07-12T07:57:07Z</time>
      </trkpt>
      <trkpt lat="44.72344" lon="7.01167">
        <ele>1982</ele>
        <time>2022-07-12T07:57:18Z</time>
      </trkpt>
      <trkpt lat="44.72327" lon="7.0118">
        <ele>1977</ele>
        <time>2022-07-12T07:57:37Z</time>
      </trkpt>
      <trkpt lat="44.7232" lon="7.01188">
        <ele>1977</ele>
        <time>2022-07-12T07:57:46Z</time>
      </trkpt>
      <trkpt lat="44.72312" lon="7.01196">
        <ele>1979</ele>
        <time>2022-07-12T07:58:10Z</time>
      </trkpt>
      <trkpt lat="44.72305" lon="7.01204">
        <ele>1982</ele>
        <time>2022-07-12T07:58:18Z</time>
      </trkpt>
      <trkpt lat="44.72297" lon="7.01211">
        <ele>1982</ele>
        <time>2022-07-12T07:58:27Z</time>
      </trkpt>
      <trkpt lat="44.72268" lon="7.01243">
        <ele>1982</ele>
        <time>2022-07-12T07:59:00Z</time>
      </trkpt>
      <trkpt lat="44.7226" lon="7.01251">
        <ele>1983</ele>
        <time>2022-07-12T07:59:08Z</time>
      </trkpt>
      <trkpt lat="44.72237" lon="7.01273">
        <ele>1987</ele>
        <time>2022-07-12T07:59:34Z</time>
      </trkpt>
      <trkpt lat="44.72212" lon="7.01294">
        <ele>1988</ele>
        <time>2022-07-12T08:00:01Z</time>
      </trkpt>
      <trkpt lat="44.72206" lon="7.01303">
        <ele>1989</ele>
        <time>2022-07-12T08:00:12Z</time>
      </trkpt>
      <trkpt lat="44.72169" lon="7.01317">
        <ele>1993</ele>
        <time>2022-07-12T08:00:46Z</time>
      </trkpt>
      <trkpt lat="44.72161" lon="7.01323">
        <ele>1995</ele>
        <time>2022-07-12T08:00:54Z</time>
      </trkpt>
      <trkpt lat="44.72132" lon="7.01355">
        <ele>1997</ele>
        <time>2022-07-12T08:01:28Z</time>
      </trkpt>
      <trkpt lat="44.72115" lon="7.01367">
        <ele>1997</ele>
        <time>2022-07-12T08:01:45Z</time>
      </trkpt>
      <trkpt lat="44.72107" lon="7.01374">
        <ele>1998</ele>
        <time>2022-07-12T08:01:54Z</time>
      </trkpt>
      <trkpt lat="44.72099" lon="7.01382">
        <ele>1995</ele>
        <time>2022-07-12T08:02:27Z</time>
      </trkpt>
      <trkpt lat="44.7208" lon="7.01391">
        <ele>1995</ele>
        <time>2022-07-12T08:02:41Z</time>
      </trkpt>
      <trkpt lat="44.72048" lon="7.01417">
        <ele>1995</ele>
        <time>2022-07-12T08:03:14Z</time>
      </trkpt>
      <trkpt lat="44.7204" lon="7.01426">
        <ele>1995</ele>
        <time>2022-07-12T08:03:23Z</time>
      </trkpt>
      <trkpt lat="44.72024" lon="7.01437">
        <ele>1993</ele>
        <time>2022-07-12T08:03:39Z</time>
      </trkpt>
      <trkpt lat="44.71988" lon="7.01456">
        <ele>1990</ele>
        <time>2022-07-12T08:04:12Z</time>
      </trkpt>
      <trkpt lat="44.71971" lon="7.01466">
        <ele>1990</ele>
        <time>2022-07-12T08:04:29Z</time>
      </trkpt>
      <trkpt lat="44.71947" lon="7.01486">
        <ele>1992</ele>
        <time>2022-07-12T08:04:56Z</time>
      </trkpt>
      <trkpt lat="44.7192" lon="7.01524">
        <ele>1996</ele>
        <time>2022-07-12T08:05:33Z</time>
      </trkpt>
      <trkpt lat="44.71898" lon="7.01567">
        <ele>1999</ele>
        <time>2022-07-12T08:06:10Z</time>
      </trkpt>
      <trkpt lat="44.71868" lon="7.01598">
        <ele>2001</ele>
        <time>2022-07-12T08:06:46Z</time>
      </trkpt>
      <trkpt lat="44.71844" lon="7.01616">
        <ele>2003</ele>
        <time>2022-07-12T08:07:11Z</time>
      </trkpt>
      <trkpt lat="44.71823" lon="7.01642">
        <ele>2007</ele>
        <time>2022-07-12T08:07:39Z</time>
      </trkpt>
      <trkpt lat="44.71806" lon="7.01673">
        <ele>2010</ele>
        <time>2022-07-12T08:08:08Z</time>
      </trkpt>
      <trkpt lat="44.71785" lon="7.01698">
        <ele>2012</ele>
        <time>2022-07-12T08:08:35Z</time>
      </trkpt>
      <trkpt lat="44.71761" lon="7.01718">
        <ele>2014</ele>
        <time>2022-07-12T08:09:01Z</time>
      </trkpt>
      <trkpt lat="44.71732" lon="7.01752">
        <ele>2015</ele>
        <time>2022-07-12T08:09:36Z</time>
      </trkpt>
      <trkpt lat="44.7171" lon="7.01777">
        <ele>2016</ele>
        <time>2022-07-12T08:10:03Z</time>
      </trkpt>
      <trkpt lat="44.71692" lon="7.01824">
        <ele>2012</ele>
        <time>2022-07-12T08:10:37Z</time>
      </trkpt>
      <trkpt lat="44.71685" lon="7.01849">
        <ele>2011</ele>
        <time>2022-07-12T08:10:53Z</time>
      </trkpt>
      <trkpt lat="44.7167" lon="7.01884">
        <ele>2011</ele>
        <time>2022-07-12T08:11:18Z</time>
      </trkpt>
      <trkpt lat="44.71664" lon="7.01893">
        <ele>2011</ele>
        <time>2022-07-12T08:11:26Z</time>
      </trkpt>
      <trkpt lat="44.71646" lon="7.01926">
        <ele>2010</ele>
        <time>2022-07-12T08:11:53Z</time>
      </trkpt>
      <trkpt lat="44.71621" lon="7.01966">
        <ele>2009</ele>
        <time>2022-07-12T08:12:25Z</time>
      </trkpt>
      <trkpt lat="44.71602" lon="7.01995">
        <ele>2007</ele>
        <time>2022-07-12T08:12:49Z</time>
      </trkpt>
      <trkpt lat="44.71598" lon="7.02007">
        <ele>2006</ele>
        <time>2022-07-12T08:12:57Z</time>
      </trkpt>
      <trkpt lat="44.71584" lon="7.02043">
        <ele>2006</ele>
        <time>2022-07-12T08:13:22Z</time>
      </trkpt>
      <trkpt lat="44.71578" lon="7.02053">
        <ele>2007</ele>
        <time>2022-07-12T08:13:30Z</time>
      </trkpt>
      <trkpt lat="44.71562" lon="7.02068">
        <ele>2011</ele>
        <time>2022-07-12T08:13:46Z</time>
      </trkpt>
      <trkpt lat="44.71536" lon="7.02084">
        <ele>2014</ele>
        <time>2022-07-12T08:14:17Z</time>
      </trkpt>
      <trkpt lat="44.71501" lon="7.02101">
        <ele>2014</ele>
        <time>2022-07-12T08:14:50Z</time>
      </trkpt>
      <trkpt lat="44.71486" lon="7.02117">
        <ele>2015</ele>
        <time>2022-07-12T08:15:07Z</time>
      </trkpt>
      <trkpt lat="44.7148" lon="7.02127">
        <ele>2016</ele>
        <time>2022-07-12T08:15:16Z</time>
      </trkpt>
      <trkpt lat="44.71459" lon="7.02154">
        <ele>2017</ele>
        <time>2022-07-12T08:15:41Z</time>
      </trkpt>
      <trkpt lat="44.71452" lon="7.02162">
        <ele>2016</ele>
        <time>2022-07-12T08:15:49Z</time>
      </trkpt>
      <trkpt lat="44.71418" lon="7.02186">
        <ele>2016</ele>
        <time>2022-07-12T08:16:24Z</time>
      </trkpt>
      <trkpt lat="44.71381" lon="7.02198">
        <ele>2019</ele>
        <time>2022-07-12T08:16:59Z</time>
      </trkpt>
      <trkpt lat="44.71363" lon="7.02204">
        <ele>2021</ele>
        <time>2022-07-12T08:17:15Z</time>
      </trkpt>
      <trkpt lat="44.71336" lon="7.02205">
        <ele>2022</ele>
        <time>2022-07-12T08:17:39Z</time>
      </trkpt>
      <trkpt lat="44.71317" lon="7.02208">
        <ele>2025</ele>
        <time>2022-07-12T08:17:56Z</time>
      </trkpt>
      <trkpt lat="44.71308" lon="7.02209">
        <ele>2026</ele>
        <time>2022-07-12T08:18:05Z</time>
      </trkpt>
      <trkpt lat="44.71292" lon="7.02222">
        <ele>2027</ele>
        <time>2022-07-12T08:18:23Z</time>
      </trkpt>
      <trkpt lat="44.71283" lon="7.02239">
        <ele>2027</ele>
        <time>2022-07-12T08:18:36Z</time>
      </trkpt>
      <trkpt lat="44.71263" lon="7.02284">
        <ele>2027</ele>
        <time>2022-07-12T08:19:06Z</time>
      </trkpt>
      <trkpt lat="44.71255" lon="7.02303">
        <ele>2027</ele>
        <time>2022-07-12T08:19:20Z</time>
      </trkpt>
      <trkpt lat="44.71235" lon="7.02345">
        <ele>2030</ele>
        <time>2022-07-12T08:19:55Z</time>
      </trkpt>
      <trkpt lat="44.71213" lon="7.02388">
        <ele>2031</ele>
        <time>2022-07-12T08:20:27Z</time>
      </trkpt>
      <trkpt lat="44.71206" lon="7.02412">
        <ele>2033</ele>
        <time>2022-07-12T08:20:45Z</time>
      </trkpt>
      <trkpt lat="44.71194" lon="7.02463">
        <ele>2036</ele>
        <time>2022-07-12T08:21:19Z</time>
      </trkpt>
      <trkpt lat="44.71188" lon="7.02514">
        <ele>2028</ele>
        <time>2022-07-12T08:21:52Z</time>
      </trkpt>
      <trkpt lat="44.71184" lon="7.02526">
        <ele>2027</ele>
        <time>2022-07-12T08:22:01Z</time>
      </trkpt>
      <trkpt lat="44.7118" lon="7.02538">
        <ele>2028</ele>
        <time>2022-07-12T08:22:11Z</time>
      </trkpt>
      <trkpt lat="44.71173" lon="7.02546">
        <ele>2027</ele>
        <time>2022-07-12T08:22:21Z</time>
      </trkpt>
      <trkpt lat="44.71164" lon="7.0255">
        <ele>2026</ele>
        <time>2022-07-12T08:22:30Z</time>
      </trkpt>
      <trkpt lat="44.71155" lon="7.02554">
        <ele>2025</ele>
        <time>2022-07-12T08:22:38Z</time>
      </trkpt>
      <trkpt lat="44.71147" lon="7.02557">
        <ele>2026</ele>
        <time>2022-07-12T08:22:46Z</time>
      </trkpt>
      <trkpt lat="44.71126" lon="7.02567">
        <ele>2035</ele>
        <time>2022-07-12T08:23:03Z</time>
      </trkpt>
      <trkpt lat="44.71121" lon="7.02574">
        <ele>2039</ele>
        <time>2022-07-12T08:23:09Z</time>
      </trkpt>
      <trkpt lat="44.71119" lon="7.02579">
        <ele>2042</ele>
        <time>2022-07-12T08:23:13Z</time>
      </trkpt>
      <trkpt lat="44.71107" lon="7.02583">
        <ele>2042</ele>
        <time>2022-07-12T08:23:24Z</time>
      </trkpt>
      <trkpt lat="44.71107" lon="7.02588">
        <ele>2041</ele>
        <time>2022-07-12T08:23:29Z</time>
      </trkpt>
      <trkpt lat="44.71104" lon="7.02591">
        <ele>2037</ele>
        <time>2022-07-12T08:23:33Z</time>
      </trkpt>
      <trkpt lat="44.71101" lon="7.02594">
        <ele>2038</ele>
        <time>2022-07-12T08:23:38Z</time>
      </trkpt>
      <trkpt lat="44.71095" lon="7.02601">
        <ele>2038</ele>
        <time>2022-07-12T08:23:48Z</time>
      </trkpt>
      <trkpt lat="44.71092" lon="7.02605">
        <ele>2038</ele>
        <time>2022-07-12T08:23:54Z</time>
      </trkpt>
      <trkpt lat="44.71089" lon="7.02617">
        <ele>2037</ele>
        <time>2022-07-12T08:24:07Z</time>
      </trkpt>
      <trkpt lat="44.71079" lon="7.02617">
        <ele>2040</ele>
        <time>2022-07-12T08:24:25Z</time>
      </trkpt>
      <trkpt lat="44.7107" lon="7.02617">
        <ele>2051</ele>
        <time>2022-07-12T08:24:46Z</time>
      </trkpt>
      <trkpt lat="44.71063" lon="7.02625">
        <ele>2052</ele>
        <time>2022-07-12T08:24:58Z</time>
      </trkpt>
      <trkpt lat="44.71057" lon="7.02634">
        <ele>2061</ele>
        <time>2022-07-12T08:25:11Z</time>
      </trkpt>
      <trkpt lat="44.71056" lon="7.02648">
        <ele>2063</ele>
        <time>2022-07-12T08:25:33Z</time>
      </trkpt>
      <trkpt lat="44.71049" lon="7.02657">
        <ele>2059</ele>
        <time>2022-07-12T08:25:46Z</time>
      </trkpt>
      <trkpt lat="44.71043" lon="7.02666">
        <ele>2061</ele>
        <time>2022-07-12T08:26:01Z</time>
      </trkpt>
      <trkpt lat="44.71034" lon="7.02689">
        <ele>2065</ele>
        <time>2022-07-12T08:26:29Z</time>
      </trkpt>
      <trkpt lat="44.71027" lon="7.02696">
        <ele>2068</ele>
        <time>2022-07-12T08:26:41Z</time>
      </trkpt>
      <trkpt lat="44.71024" lon="7.02709">
        <ele>2070</ele>
        <time>2022-07-12T08:26:58Z</time>
      </trkpt>
      <trkpt lat="44.71016" lon="7.02716">
        <ele>2075</ele>
        <time>2022-07-12T08:27:13Z</time>
      </trkpt>
      <trkpt lat="44.71007" lon="7.02721">
        <ele>2075</ele>
        <time>2022-07-12T08:27:23Z</time>
      </trkpt>
      <trkpt lat="44.71001" lon="7.02731">
        <ele>2073</ele>
        <time>2022-07-12T08:27:32Z</time>
      </trkpt>
      <trkpt lat="44.70985" lon="7.02745">
        <ele>2072</ele>
        <time>2022-07-12T08:27:53Z</time>
      </trkpt>
      <trkpt lat="44.70979" lon="7.02755">
        <ele>2073</ele>
        <time>2022-07-12T08:28:02Z</time>
      </trkpt>
      <trkpt lat="44.70974" lon="7.02766">
        <ele>2076</ele>
        <time>2022-07-12T08:28:13Z</time>
      </trkpt>
      <trkpt lat="44.70969" lon="7.02778">
        <ele>2078</ele>
        <time>2022-07-12T08:28:24Z</time>
      </trkpt>
      <trkpt lat="44.70965" lon="7.0279">
        <ele>2083</ele>
        <time>2022-07-12T08:28:36Z</time>
      </trkpt>
      <trkpt lat="44.70957" lon="7.02799">
        <ele>2083</ele>
        <time>2022-07-12T08:28:45Z</time>
      </trkpt>
      <trkpt lat="44.70951" lon="7.02807">
        <ele>2084</ele>
        <time>2022-07-12T08:28:54Z</time>
      </trkpt>
      <trkpt lat="44.70942" lon="7.02812">
        <ele>2085</ele>
        <time>2022-07-12T08:29:03Z</time>
      </trkpt>
      <trkpt lat="44.70922" lon="7.02855">
        <ele>2085</ele>
        <time>2022-07-12T08:29:44Z</time>
      </trkpt>
      <trkpt lat="44.70917" lon="7.02866">
        <ele>2080</ele>
        <time>2022-07-12T08:29:58Z</time>
      </trkpt>
      <trkpt lat="44.70924" lon="7.02875">
        <ele>2081</ele>
        <time>2022-07-12T08:30:20Z</time>
      </trkpt>
      <trkpt lat="44.70917" lon="7.02882">
        <ele>2085</ele>
        <time>2022-07-12T08:30:40Z</time>
      </trkpt>
      <trkpt lat="44.70914" lon="7.02894">
        <ele>2087</ele>
        <time>2022-07-12T08:31:12Z</time>
      </trkpt>
      <trkpt lat="44.70918" lon="7.029">
        <ele>2098</ele>
        <time>2022-07-12T08:31:44Z</time>
      </trkpt>
      <trkpt lat="44.70909" lon="7.02937">
        <ele>2110</ele>
        <time>2022-07-12T08:32:37Z</time>
      </trkpt>
      <trkpt lat="44.70907" lon="7.0295">
        <ele>2110</ele>
        <time>2022-07-12T08:32:52Z</time>
      </trkpt>
      <trkpt lat="44.70899" lon="7.02973">
        <ele>2111</ele>
        <time>2022-07-12T08:33:15Z</time>
      </trkpt>
      <trkpt lat="44.70891" lon="7.02996">
        <ele>2117</ele>
        <time>2022-07-12T08:33:39Z</time>
      </trkpt>
      <trkpt lat="44.70885" lon="7.03034">
        <ele>2122</ele>
        <time>2022-07-12T08:34:20Z</time>
      </trkpt>
      <trkpt lat="44.70884" lon="7.03047">
        <ele>2128</ele>
        <time>2022-07-12T08:34:36Z</time>
      </trkpt>
      <trkpt lat="44.70882" lon="7.0306">
        <ele>2132</ele>
        <time>2022-07-12T08:34:51Z</time>
      </trkpt>
      <trkpt lat="44.70882" lon="7.03073">
        <ele>2136</ele>
        <time>2022-07-12T08:35:11Z</time>
      </trkpt>
      <trkpt lat="44.70884" lon="7.03086">
        <ele>2141</ele>
        <time>2022-07-12T08:35:29Z</time>
      </trkpt>
      <trkpt lat="44.70887" lon="7.03096">
        <ele>2143</ele>
        <time>2022-07-12T08:35:46Z</time>
      </trkpt>
      <trkpt lat="44.70888" lon="7.03101">
        <ele>2144</ele>
        <time>2022-07-12T08:35:52Z</time>
      </trkpt>
      <trkpt lat="44.70889" lon="7.03106">
        <ele>2146</ele>
        <time>2022-07-12T08:35:59Z</time>
      </trkpt>
      <trkpt lat="44.70893" lon="7.03108">
        <ele>2147</ele>
        <time>2022-07-12T08:36:06Z</time>
      </trkpt>
      <trkpt lat="44.7089" lon="7.03117">
        <ele>2148</ele>
        <time>2022-07-12T08:36:16Z</time>
      </trkpt>
      <trkpt lat="44.7089" lon="7.03132">
        <ele>2149</ele>
        <time>2022-07-12T08:36:35Z</time>
      </trkpt>
      <trkpt lat="44.7089" lon="7.03143">
        <ele>2151</ele>
        <time>2022-07-12T08:36:51Z</time>
      </trkpt>
      <trkpt lat="44.70901" lon="7.03148">
        <ele>2151</ele>
        <time>2022-07-12T08:37:09Z</time>
      </trkpt>
      <trkpt lat="44.70905" lon="7.03148">
        <ele>2151</ele>
        <time>2022-07-12T08:37:13Z</time>
      </trkpt>
      <trkpt lat="44.7091" lon="7.03148">
        <ele>2151</ele>
        <time>2022-07-12T08:37:17Z</time>
      </trkpt>
      <trkpt lat="44.70913" lon="7.03146">
        <ele>2151</ele>
        <time>2022-07-12T08:37:21Z</time>
      </trkpt>
      <trkpt lat="44.70917" lon="7.03145">
        <ele>2151</ele>
        <time>2022-07-12T08:37:26Z</time>
      </trkpt>
      <trkpt lat="44.7092" lon="7.03149">
        <ele>2153</ele>
        <time>2022-07-12T08:37:32Z</time>
      </trkpt>
      <trkpt lat="44.70921" lon="7.03153">
        <ele>2155</ele>
        <time>2022-07-12T08:37:38Z</time>
      </trkpt>
      <trkpt lat="44.70921" lon="7.03158">
        <ele>2158</ele>
        <time>2022-07-12T08:37:45Z</time>
      </trkpt>
      <trkpt lat="44.70921" lon="7.03169">
        <ele>2158</ele>
        <time>2022-07-12T08:38:00Z</time>
      </trkpt>
      <trkpt lat="44.70918" lon="7.03179">
        <ele>2160</ele>
        <time>2022-07-12T08:38:14Z</time>
      </trkpt>
      <trkpt lat="44.70917" lon="7.03183">
        <ele>2160</ele>
        <time>2022-07-12T08:38:19Z</time>
      </trkpt>
      <trkpt lat="44.70911" lon="7.0319">
        <ele>2160</ele>
        <time>2022-07-12T08:38:29Z</time>
      </trkpt>
      <trkpt lat="44.70908" lon="7.03195">
        <ele>2161</ele>
        <time>2022-07-12T08:38:34Z</time>
      </trkpt>
      <trkpt lat="44.70905" lon="7.03203">
        <ele>2162</ele>
        <time>2022-07-12T08:38:42Z</time>
      </trkpt>
      <trkpt lat="44.70901" lon="7.03213">
        <ele>2164</ele>
        <time>2022-07-12T08:38:51Z</time>
      </trkpt>
      <trkpt lat="44.709" lon="7.03218">
        <ele>2165</ele>
        <time>2022-07-12T08:38:56Z</time>
      </trkpt>
      <trkpt lat="44.70898" lon="7.03222">
        <ele>2165</ele>
        <time>2022-07-12T08:39:01Z</time>
      </trkpt>
      <trkpt lat="44.70893" lon="7.03229">
        <ele>2167</ele>
        <time>2022-07-12T08:39:18Z</time>
      </trkpt>
      <trkpt lat="44.70895" lon="7.03233">
        <ele>2168</ele>
        <time>2022-07-12T08:39:23Z</time>
      </trkpt>
      <trkpt lat="44.70902" lon="7.03227">
        <ele>2168</ele>
        <time>2022-07-12T08:39:32Z</time>
      </trkpt>
      <trkpt lat="44.70906" lon="7.03229">
        <ele>2171</ele>
        <time>2022-07-12T08:39:36Z</time>
      </trkpt>
      <trkpt lat="44.70909" lon="7.03227">
        <ele>2171</ele>
        <time>2022-07-12T08:39:41Z</time>
      </trkpt>
      <trkpt lat="44.70913" lon="7.03228">
        <ele>2173</ele>
        <time>2022-07-12T08:39:45Z</time>
      </trkpt>
      <trkpt lat="44.70915" lon="7.03232">
        <ele>2174</ele>
        <time>2022-07-12T08:39:49Z</time>
      </trkpt>
      <trkpt lat="44.70906" lon="7.03256">
        <ele>2180</ele>
        <time>2022-07-12T08:40:13Z</time>
      </trkpt>
      <trkpt lat="44.70903" lon="7.03261">
        <ele>2181</ele>
        <time>2022-07-12T08:40:18Z</time>
      </trkpt>
      <trkpt lat="44.70902" lon="7.03266">
        <ele>2181</ele>
        <time>2022-07-12T08:40:24Z</time>
      </trkpt>
      <trkpt lat="44.70897" lon="7.0328">
        <ele>2184</ele>
        <time>2022-07-12T08:40:39Z</time>
      </trkpt>
      <trkpt lat="44.70895" lon="7.03284">
        <ele>2185</ele>
        <time>2022-07-12T08:40:44Z</time>
      </trkpt>
      <trkpt lat="44.70888" lon="7.03287">
        <ele>2185</ele>
        <time>2022-07-12T08:41:06Z</time>
      </trkpt>
      <trkpt lat="44.70885" lon="7.03289">
        <ele>2184</ele>
        <time>2022-07-12T08:41:11Z</time>
      </trkpt>
      <trkpt lat="44.70882" lon="7.03291">
        <ele>2184</ele>
        <time>2022-07-12T08:41:19Z</time>
      </trkpt>
      <trkpt lat="44.7088" lon="7.03296">
        <ele>2183</ele>
        <time>2022-07-12T08:41:26Z</time>
      </trkpt>
      <trkpt lat="44.70879" lon="7.03301">
        <ele>2181</ele>
        <time>2022-07-12T08:41:30Z</time>
      </trkpt>
      <trkpt lat="44.70873" lon="7.03315">
        <ele>2179</ele>
        <time>2022-07-12T08:41:43Z</time>
      </trkpt>
      <trkpt lat="44.70869" lon="7.03319">
        <ele>2179</ele>
        <time>2022-07-12T08:41:48Z</time>
      </trkpt>
      <trkpt lat="44.70866" lon="7.03321">
        <ele>2177</ele>
        <time>2022-07-12T08:41:52Z</time>
      </trkpt>
      <trkpt lat="44.70839" lon="7.03346">
        <ele>2170</ele>
        <time>2022-07-12T08:42:24Z</time>
      </trkpt>
      <trkpt lat="44.70836" lon="7.03348">
        <ele>2169</ele>
        <time>2022-07-12T08:42:28Z</time>
      </trkpt>
      <trkpt lat="44.70832" lon="7.03348">
        <ele>2169</ele>
        <time>2022-07-12T08:42:32Z</time>
      </trkpt>
      <trkpt lat="44.70828" lon="7.03348">
        <ele>2167</ele>
        <time>2022-07-12T08:42:36Z</time>
      </trkpt>
      <trkpt lat="44.70825" lon="7.0335">
        <ele>2167</ele>
        <time>2022-07-12T08:42:42Z</time>
      </trkpt>
      <trkpt lat="44.70808" lon="7.03387">
        <ele>2165</ele>
        <time>2022-07-12T08:43:13Z</time>
      </trkpt>
      <trkpt lat="44.70807" lon="7.03393">
        <ele>2164</ele>
        <time>2022-07-12T08:43:17Z</time>
      </trkpt>
      <trkpt lat="44.7079" lon="7.03436">
        <ele>2164</ele>
        <time>2022-07-12T08:43:51Z</time>
      </trkpt>
      <trkpt lat="44.70788" lon="7.03441">
        <ele>2164</ele>
        <time>2022-07-12T08:43:55Z</time>
      </trkpt>
      <trkpt lat="44.70783" lon="7.03455">
        <ele>2165</ele>
        <time>2022-07-12T08:44:08Z</time>
      </trkpt>
      <trkpt lat="44.70781" lon="7.0346">
        <ele>2165</ele>
        <time>2022-07-12T08:44:12Z</time>
      </trkpt>
      <trkpt lat="44.7078" lon="7.03464">
        <ele>2164</ele>
        <time>2022-07-12T08:44:15Z</time>
      </trkpt>
      <trkpt lat="44.70777" lon="7.03467">
        <ele>2163</ele>
        <time>2022-07-12T08:44:18Z</time>
      </trkpt>
      <trkpt lat="44.70774" lon="7.0347">
        <ele>2163</ele>
        <time>2022-07-12T08:44:21Z</time>
      </trkpt>
      <trkpt lat="44.70768" lon="7.03485">
        <ele>2163</ele>
        <time>2022-07-12T08:44:31Z</time>
      </trkpt>
      <trkpt lat="44.70757" lon="7.03508">
        <ele>2162</ele>
        <time>2022-07-12T08:44:51Z</time>
      </trkpt>
      <trkpt lat="44.70744" lon="7.0355">
        <ele>2162</ele>
        <time>2022-07-12T08:45:23Z</time>
      </trkpt>
      <trkpt lat="44.70741" lon="7.03559">
        <ele>2161</ele>
        <time>2022-07-12T08:45:30Z</time>
      </trkpt>
      <trkpt lat="44.70735" lon="7.03608">
        <ele>2160</ele>
        <time>2022-07-12T08:46:03Z</time>
      </trkpt>
      <trkpt lat="44.70734" lon="7.03624">
        <ele>2159</ele>
        <time>2022-07-12T08:46:14Z</time>
      </trkpt>
      <trkpt lat="44.70733" lon="7.03635">
        <ele>2159</ele>
        <time>2022-07-12T08:46:22Z</time>
      </trkpt>
      <trkpt lat="44.70732" lon="7.03641">
        <ele>2158</ele>
        <time>2022-07-12T08:46:26Z</time>
      </trkpt>
      <trkpt lat="44.70729" lon="7.03652">
        <ele>2157</ele>
        <time>2022-07-12T08:46:34Z</time>
      </trkpt>
      <trkpt lat="44.70729" lon="7.03657">
        <ele>2157</ele>
        <time>2022-07-12T08:46:37Z</time>
      </trkpt>
      <trkpt lat="44.70729" lon="7.03662">
        <ele>2156</ele>
        <time>2022-07-12T08:46:40Z</time>
      </trkpt>
      <trkpt lat="44.70719" lon="7.03679">
        <ele>2156</ele>
        <time>2022-07-12T08:46:55Z</time>
      </trkpt>
      <trkpt lat="44.70714" lon="7.03706">
        <ele>2155</ele>
        <time>2022-07-12T08:47:14Z</time>
      </trkpt>
      <trkpt lat="44.7071" lon="7.03728">
        <ele>2157</ele>
        <time>2022-07-12T08:47:30Z</time>
      </trkpt>
      <trkpt lat="44.70703" lon="7.0374">
        <ele>2159</ele>
        <time>2022-07-12T08:47:42Z</time>
      </trkpt>
      <trkpt lat="44.707" lon="7.03742">
        <ele>2161</ele>
        <time>2022-07-12T08:47:46Z</time>
      </trkpt>
      <trkpt lat="44.70681" lon="7.03761">
        <ele>2162</ele>
        <time>2022-07-12T08:48:11Z</time>
      </trkpt>
      <trkpt lat="44.70678" lon="7.03762">
        <ele>2162</ele>
        <time>2022-07-12T08:48:15Z</time>
      </trkpt>
      <trkpt lat="44.70674" lon="7.03764">
        <ele>2162</ele>
        <time>2022-07-12T08:48:19Z</time>
      </trkpt>
      <trkpt lat="44.70667" lon="7.03768">
        <ele>2162</ele>
        <time>2022-07-12T08:48:28Z</time>
      </trkpt>
      <trkpt lat="44.70663" lon="7.03769">
        <ele>2163</ele>
        <time>2022-07-12T08:48:34Z</time>
      </trkpt>
      <trkpt lat="44.7066" lon="7.03771">
        <ele>2162</ele>
        <time>2022-07-12T08:48:38Z</time>
      </trkpt>
      <trkpt lat="44.70657" lon="7.03776">
        <ele>2162</ele>
        <time>2022-07-12T08:48:43Z</time>
      </trkpt>
      <trkpt lat="44.7065" lon="7.0378">
        <ele>2161</ele>
        <time>2022-07-12T08:48:51Z</time>
      </trkpt>
      <trkpt lat="44.70634" lon="7.03783">
        <ele>2158</ele>
        <time>2022-07-12T08:49:08Z</time>
      </trkpt>
      <trkpt lat="44.7063" lon="7.03783">
        <ele>2159</ele>
        <time>2022-07-12T08:49:12Z</time>
      </trkpt>
      <trkpt lat="44.70619" lon="7.03777">
        <ele>2160</ele>
        <time>2022-07-12T08:49:24Z</time>
      </trkpt>
      <trkpt lat="44.70615" lon="7.03778">
        <ele>2160</ele>
        <time>2022-07-12T08:49:29Z</time>
      </trkpt>
      <trkpt lat="44.70612" lon="7.0378">
        <ele>2160</ele>
        <time>2022-07-12T08:49:33Z</time>
      </trkpt>
      <trkpt lat="44.70609" lon="7.03782">
        <ele>2160</ele>
        <time>2022-07-12T08:49:38Z</time>
      </trkpt>
      <trkpt lat="44.70607" lon="7.03787">
        <ele>2159</ele>
        <time>2022-07-12T08:49:44Z</time>
      </trkpt>
      <trkpt lat="44.70603" lon="7.03786">
        <ele>2159</ele>
        <time>2022-07-12T08:50:13Z</time>
      </trkpt>
      <trkpt lat="44.70573" lon="7.03809">
        <ele>2160</ele>
        <time>2022-07-12T08:50:43Z</time>
      </trkpt>
      <trkpt lat="44.70556" lon="7.0382">
        <ele>2161</ele>
        <time>2022-07-12T08:50:59Z</time>
      </trkpt>
      <trkpt lat="44.70541" lon="7.03837">
        <ele>2161</ele>
        <time>2022-07-12T08:51:15Z</time>
      </trkpt>
      <trkpt lat="44.70527" lon="7.03855">
        <ele>2163</ele>
        <time>2022-07-12T08:51:31Z</time>
      </trkpt>
      <trkpt lat="44.70524" lon="7.03858">
        <ele>2163</ele>
        <time>2022-07-12T08:51:34Z</time>
      </trkpt>
      <trkpt lat="44.70516" lon="7.03871">
        <ele>2164</ele>
        <time>2022-07-12T08:51:45Z</time>
      </trkpt>
      <trkpt lat="44.70514" lon="7.03876">
        <ele>2165</ele>
        <time>2022-07-12T08:51:49Z</time>
      </trkpt>
      <trkpt lat="44.70499" lon="7.03908">
        <ele>2168</ele>
        <time>2022-07-12T08:52:22Z</time>
      </trkpt>
      <trkpt lat="44.70495" lon="7.03917">
        <ele>2169</ele>
        <time>2022-07-12T08:52:31Z</time>
      </trkpt>
      <trkpt lat="44.70495" lon="7.03923">
        <ele>2169</ele>
        <time>2022-07-12T08:52:36Z</time>
      </trkpt>
      <trkpt lat="44.70492" lon="7.03927">
        <ele>2169</ele>
        <time>2022-07-12T08:52:41Z</time>
      </trkpt>
      <trkpt lat="44.70489" lon="7.03931">
        <ele>2169</ele>
        <time>2022-07-12T08:52:45Z</time>
      </trkpt>
      <trkpt lat="44.70487" lon="7.03935">
        <ele>2169</ele>
        <time>2022-07-12T08:52:49Z</time>
      </trkpt>
      <trkpt lat="44.70486" lon="7.03951">
        <ele>2169</ele>
        <time>2022-07-12T08:53:01Z</time>
      </trkpt>
      <trkpt lat="44.70487" lon="7.03957">
        <ele>2169</ele>
        <time>2022-07-12T08:53:05Z</time>
      </trkpt>
      <trkpt lat="44.70484" lon="7.03962">
        <ele>2169</ele>
        <time>2022-07-12T08:53:10Z</time>
      </trkpt>
      <trkpt lat="44.70478" lon="7.03966">
        <ele>2170</ele>
        <time>2022-07-12T08:53:36Z</time>
      </trkpt>
      <trkpt lat="44.70474" lon="7.03969">
        <ele>2171</ele>
        <time>2022-07-12T08:53:40Z</time>
      </trkpt>
      <trkpt lat="44.7047" lon="7.03972">
        <ele>2171</ele>
        <time>2022-07-12T08:53:44Z</time>
      </trkpt>
      <trkpt lat="44.70467" lon="7.03974">
        <ele>2171</ele>
        <time>2022-07-12T08:53:49Z</time>
      </trkpt>
      <trkpt lat="44.70463" lon="7.03977">
        <ele>2172</ele>
        <time>2022-07-12T08:53:54Z</time>
      </trkpt>
      <trkpt lat="44.70457" lon="7.03983">
        <ele>2172</ele>
        <time>2022-07-12T08:54:02Z</time>
      </trkpt>
      <trkpt lat="44.70449" lon="7.03985">
        <ele>2173</ele>
        <time>2022-07-12T08:54:10Z</time>
      </trkpt>
      <trkpt lat="44.70447" lon="7.03989">
        <ele>2173</ele>
        <time>2022-07-12T08:54:14Z</time>
      </trkpt>
      <trkpt lat="44.70444" lon="7.03993">
        <ele>2172</ele>
        <time>2022-07-12T08:54:18Z</time>
      </trkpt>
      <trkpt lat="44.7044" lon="7.04002">
        <ele>2171</ele>
        <time>2022-07-12T08:54:26Z</time>
      </trkpt>
      <trkpt lat="44.70431" lon="7.0401">
        <ele>2171</ele>
        <time>2022-07-12T08:54:38Z</time>
      </trkpt>
      <trkpt lat="44.70427" lon="7.04012">
        <ele>2171</ele>
        <time>2022-07-12T08:54:42Z</time>
      </trkpt>
      <trkpt lat="44.70424" lon="7.0401">
        <ele>2171</ele>
        <time>2022-07-12T08:54:46Z</time>
      </trkpt>
      <trkpt lat="44.7042" lon="7.04012">
        <ele>2171</ele>
        <time>2022-07-12T08:54:50Z</time>
      </trkpt>
      <trkpt lat="44.70408" lon="7.04019">
        <ele>2170</ele>
        <time>2022-07-12T08:55:02Z</time>
      </trkpt>
      <trkpt lat="44.70405" lon="7.04021">
        <ele>2170</ele>
        <time>2022-07-12T08:55:06Z</time>
      </trkpt>
      <trkpt lat="44.70388" lon="7.04037">
        <ele>2168</ele>
        <time>2022-07-12T08:55:26Z</time>
      </trkpt>
      <trkpt lat="44.70385" lon="7.04039">
        <ele>2168</ele>
        <time>2022-07-12T08:55:30Z</time>
      </trkpt>
      <trkpt lat="44.70363" lon="7.04058">
        <ele>2168</ele>
        <time>2022-07-12T08:55:54Z</time>
      </trkpt>
      <trkpt lat="44.7036" lon="7.04062">
        <ele>2168</ele>
        <time>2022-07-12T08:55:58Z</time>
      </trkpt>
      <trkpt lat="44.70335" lon="7.04087">
        <ele>2168</ele>
        <time>2022-07-12T08:56:29Z</time>
      </trkpt>
      <trkpt lat="44.70331" lon="7.0409">
        <ele>2169</ele>
        <time>2022-07-12T08:56:33Z</time>
      </trkpt>
      <trkpt lat="44.70328" lon="7.04092">
        <ele>2169</ele>
        <time>2022-07-12T08:56:37Z</time>
      </trkpt>
      <trkpt lat="44.70325" lon="7.04093">
        <ele>2170</ele>
        <time>2022-07-12T08:56:41Z</time>
      </trkpt>
      <trkpt lat="44.70323" lon="7.04097">
        <ele>2169</ele>
        <time>2022-07-12T08:56:45Z</time>
      </trkpt>
      <trkpt lat="44.70319" lon="7.04098">
        <ele>2169</ele>
        <time>2022-07-12T08:56:49Z</time>
      </trkpt>
      <trkpt lat="44.70315" lon="7.041">
        <ele>2169</ele>
        <time>2022-07-12T08:56:53Z</time>
      </trkpt>
      <trkpt lat="44.70311" lon="7.04102">
        <ele>2168</ele>
        <time>2022-07-12T08:56:57Z</time>
      </trkpt>
      <trkpt lat="44.70309" lon="7.04106">
        <ele>2168</ele>
        <time>2022-07-12T08:57:01Z</time>
      </trkpt>
      <trkpt lat="44.70302" lon="7.04111">
        <ele>2167</ele>
        <time>2022-07-12T08:57:09Z</time>
      </trkpt>
      <trkpt lat="44.70287" lon="7.0412">
        <ele>2167</ele>
        <time>2022-07-12T08:57:26Z</time>
      </trkpt>
      <trkpt lat="44.7027" lon="7.04133">
        <ele>2168</ele>
        <time>2022-07-12T08:57:46Z</time>
      </trkpt>
      <trkpt lat="44.70266" lon="7.04134">
        <ele>2168</ele>
        <time>2022-07-12T08:57:50Z</time>
      </trkpt>
      <trkpt lat="44.70262" lon="7.04134">
        <ele>2168</ele>
        <time>2022-07-12T08:57:54Z</time>
      </trkpt>
      <trkpt lat="44.70258" lon="7.04134">
        <ele>2168</ele>
        <time>2022-07-12T08:57:58Z</time>
      </trkpt>
      <trkpt lat="44.70243" lon="7.04142">
        <ele>2168</ele>
        <time>2022-07-12T08:58:14Z</time>
      </trkpt>
      <trkpt lat="44.70233" lon="7.04146">
        <ele>2170</ele>
        <time>2022-07-12T08:58:26Z</time>
      </trkpt>
      <trkpt lat="44.70229" lon="7.04148">
        <ele>2170</ele>
        <time>2022-07-12T08:58:31Z</time>
      </trkpt>
      <trkpt lat="44.70221" lon="7.04151">
        <ele>2170</ele>
        <time>2022-07-12T08:58:39Z</time>
      </trkpt>
      <trkpt lat="44.70213" lon="7.04152">
        <ele>2170</ele>
        <time>2022-07-12T08:58:47Z</time>
      </trkpt>
      <trkpt lat="44.70201" lon="7.04156">
        <ele>2171</ele>
        <time>2022-07-12T08:58:59Z</time>
      </trkpt>
      <trkpt lat="44.70197" lon="7.04157">
        <ele>2172</ele>
        <time>2022-07-12T08:59:03Z</time>
      </trkpt>
      <trkpt lat="44.70175" lon="7.04167">
        <ele>2175</ele>
        <time>2022-07-12T08:59:31Z</time>
      </trkpt>
      <trkpt lat="44.70171" lon="7.04167">
        <ele>2176</ele>
        <time>2022-07-12T08:59:35Z</time>
      </trkpt>
      <trkpt lat="44.70164" lon="7.04171">
        <ele>2177</ele>
        <time>2022-07-12T08:59:45Z</time>
      </trkpt>
      <trkpt lat="44.7016" lon="7.04173">
        <ele>2177</ele>
        <time>2022-07-12T08:59:50Z</time>
      </trkpt>
      <trkpt lat="44.70156" lon="7.04175">
        <ele>2177</ele>
        <time>2022-07-12T08:59:54Z</time>
      </trkpt>
      <trkpt lat="44.70151" lon="7.04175">
        <ele>2177</ele>
        <time>2022-07-12T08:59:59Z</time>
      </trkpt>
      <trkpt lat="44.70148" lon="7.04176">
        <ele>2177</ele>
        <time>2022-07-12T09:00:04Z</time>
      </trkpt>
      <trkpt lat="44.70137" lon="7.04181">
        <ele>2179</ele>
        <time>2022-07-12T09:00:18Z</time>
      </trkpt>
      <trkpt lat="44.70134" lon="7.04182">
        <ele>2179</ele>
        <time>2022-07-12T09:00:22Z</time>
      </trkpt>
      <trkpt lat="44.70131" lon="7.04184">
        <ele>2179</ele>
        <time>2022-07-12T09:00:26Z</time>
      </trkpt>
      <trkpt lat="44.70127" lon="7.04185">
        <ele>2180</ele>
        <time>2022-07-12T09:00:30Z</time>
      </trkpt>
      <trkpt lat="44.70124" lon="7.04187">
        <ele>2180</ele>
        <time>2022-07-12T09:00:34Z</time>
      </trkpt>
      <trkpt lat="44.70117" lon="7.0419">
        <ele>2180</ele>
        <time>2022-07-12T09:00:42Z</time>
      </trkpt>
      <trkpt lat="44.70114" lon="7.04193">
        <ele>2180</ele>
        <time>2022-07-12T09:00:46Z</time>
      </trkpt>
      <trkpt lat="44.70112" lon="7.04198">
        <ele>2181</ele>
        <time>2022-07-12T09:00:52Z</time>
      </trkpt>
      <trkpt lat="44.7011" lon="7.04201">
        <ele>2182</ele>
        <time>2022-07-12T09:00:57Z</time>
      </trkpt>
      <trkpt lat="44.70106" lon="7.04203">
        <ele>2183</ele>
        <time>2022-07-12T09:01:01Z</time>
      </trkpt>
      <trkpt lat="44.701" lon="7.04208">
        <ele>2184</ele>
        <time>2022-07-12T09:01:09Z</time>
      </trkpt>
      <trkpt lat="44.70094" lon="7.04215">
        <ele>2185</ele>
        <time>2022-07-12T09:01:18Z</time>
      </trkpt>
      <trkpt lat="44.7008" lon="7.04223">
        <ele>2185</ele>
        <time>2022-07-12T09:01:34Z</time>
      </trkpt>
      <trkpt lat="44.70076" lon="7.04226">
        <ele>2186</ele>
        <time>2022-07-12T09:01:39Z</time>
      </trkpt>
      <trkpt lat="44.70074" lon="7.0423">
        <ele>2187</ele>
        <time>2022-07-12T09:01:44Z</time>
      </trkpt>
      <trkpt lat="44.7007" lon="7.04233">
        <ele>2188</ele>
        <time>2022-07-12T09:01:48Z</time>
      </trkpt>
      <trkpt lat="44.70067" lon="7.04236">
        <ele>2188</ele>
        <time>2022-07-12T09:01:52Z</time>
      </trkpt>
      <trkpt lat="44.70065" lon="7.04239">
        <ele>2188</ele>
        <time>2022-07-12T09:01:56Z</time>
      </trkpt>
      <trkpt lat="44.70057" lon="7.04244">
        <ele>2188</ele>
        <time>2022-07-12T09:02:04Z</time>
      </trkpt>
      <trkpt lat="44.70054" lon="7.04246">
        <ele>2188</ele>
        <time>2022-07-12T09:02:08Z</time>
      </trkpt>
      <trkpt lat="44.70042" lon="7.04252">
        <ele>2188</ele>
        <time>2022-07-12T09:02:22Z</time>
      </trkpt>
      <trkpt lat="44.70039" lon="7.04253">
        <ele>2188</ele>
        <time>2022-07-12T09:02:26Z</time>
      </trkpt>
      <trkpt lat="44.70035" lon="7.04254">
        <ele>2188</ele>
        <time>2022-07-12T09:02:30Z</time>
      </trkpt>
      <trkpt lat="44.70032" lon="7.04255">
        <ele>2189</ele>
        <time>2022-07-12T09:02:34Z</time>
      </trkpt>
      <trkpt lat="44.70029" lon="7.04256">
        <ele>2190</ele>
        <time>2022-07-12T09:02:38Z</time>
      </trkpt>
      <trkpt lat="44.70007" lon="7.04276">
        <ele>2191</ele>
        <time>2022-07-12T09:03:06Z</time>
      </trkpt>
      <trkpt lat="44.70004" lon="7.04279">
        <ele>2191</ele>
        <time>2022-07-12T09:03:10Z</time>
      </trkpt>
      <trkpt lat="44.70001" lon="7.04282">
        <ele>2191</ele>
        <time>2022-07-12T09:03:15Z</time>
      </trkpt>
      <trkpt lat="44.69997" lon="7.04284">
        <ele>2192</ele>
        <time>2022-07-12T09:03:19Z</time>
      </trkpt>
      <trkpt lat="44.69993" lon="7.04284">
        <ele>2192</ele>
        <time>2022-07-12T09:03:23Z</time>
      </trkpt>
      <trkpt lat="44.69985" lon="7.04286">
        <ele>2192</ele>
        <time>2022-07-12T09:03:31Z</time>
      </trkpt>
      <trkpt lat="44.69982" lon="7.0429">
        <ele>2192</ele>
        <time>2022-07-12T09:03:36Z</time>
      </trkpt>
      <trkpt lat="44.69981" lon="7.04295">
        <ele>2192</ele>
        <time>2022-07-12T09:03:41Z</time>
      </trkpt>
      <trkpt lat="44.6998" lon="7.04299">
        <ele>2193</ele>
        <time>2022-07-12T09:03:45Z</time>
      </trkpt>
      <trkpt lat="44.69979" lon="7.04305">
        <ele>2193</ele>
        <time>2022-07-12T09:03:49Z</time>
      </trkpt>
      <trkpt lat="44.69974" lon="7.04313">
        <ele>2194</ele>
        <time>2022-07-12T09:03:57Z</time>
      </trkpt>
      <trkpt lat="44.69961" lon="7.04329">
        <ele>2196</ele>
        <time>2022-07-12T09:04:17Z</time>
      </trkpt>
      <trkpt lat="44.69954" lon="7.04332">
        <ele>2196</ele>
        <time>2022-07-12T09:04:25Z</time>
      </trkpt>
      <trkpt lat="44.6995" lon="7.04333">
        <ele>2196</ele>
        <time>2022-07-12T09:04:30Z</time>
      </trkpt>
      <trkpt lat="44.69944" lon="7.0434">
        <ele>2196</ele>
        <time>2022-07-12T09:04:40Z</time>
      </trkpt>
      <trkpt lat="44.69941" lon="7.04343">
        <ele>2197</ele>
        <time>2022-07-12T09:04:44Z</time>
      </trkpt>
      <trkpt lat="44.69938" lon="7.04345">
        <ele>2197</ele>
        <time>2022-07-12T09:04:48Z</time>
      </trkpt>
      <trkpt lat="44.69934" lon="7.04347">
        <ele>2198</ele>
        <time>2022-07-12T09:04:52Z</time>
      </trkpt>
      <trkpt lat="44.69927" lon="7.04351">
        <ele>2199</ele>
        <time>2022-07-12T09:05:00Z</time>
      </trkpt>
      <trkpt lat="44.69924" lon="7.04354">
        <ele>2199</ele>
        <time>2022-07-12T09:05:04Z</time>
      </trkpt>
      <trkpt lat="44.69916" lon="7.04357">
        <ele>2199</ele>
        <time>2022-07-12T09:05:12Z</time>
      </trkpt>
      <trkpt lat="44.69913" lon="7.04359">
        <ele>2199</ele>
        <time>2022-07-12T09:05:16Z</time>
      </trkpt>
      <trkpt lat="44.6991" lon="7.04362">
        <ele>2200</ele>
        <time>2022-07-12T09:05:20Z</time>
      </trkpt>
      <trkpt lat="44.69907" lon="7.04372">
        <ele>2200</ele>
        <time>2022-07-12T09:05:29Z</time>
      </trkpt>
      <trkpt lat="44.69904" lon="7.04375">
        <ele>2201</ele>
        <time>2022-07-12T09:05:34Z</time>
      </trkpt>
      <trkpt lat="44.69905" lon="7.04386">
        <ele>2204</ele>
        <time>2022-07-12T09:05:52Z</time>
      </trkpt>
      <trkpt lat="44.69903" lon="7.0439">
        <ele>2204</ele>
        <time>2022-07-12T09:05:57Z</time>
      </trkpt>
      <trkpt lat="44.69901" lon="7.04395">
        <ele>2204</ele>
        <time>2022-07-12T09:06:04Z</time>
      </trkpt>
      <trkpt lat="44.69892" lon="7.04402">
        <ele>2207</ele>
        <time>2022-07-12T09:06:21Z</time>
      </trkpt>
      <trkpt lat="44.69887" lon="7.0441">
        <ele>2208</ele>
        <time>2022-07-12T09:06:31Z</time>
      </trkpt>
      <trkpt lat="44.69885" lon="7.04414">
        <ele>2209</ele>
        <time>2022-07-12T09:06:37Z</time>
      </trkpt>
      <trkpt lat="44.69879" lon="7.04419">
        <ele>2211</ele>
        <time>2022-07-12T09:06:48Z</time>
      </trkpt>
      <trkpt lat="44.69878" lon="7.04424">
        <ele>2212</ele>
        <time>2022-07-12T09:06:55Z</time>
      </trkpt>
      <trkpt lat="44.69871" lon="7.04436">
        <ele>2212</ele>
        <time>2022-07-12T09:07:10Z</time>
      </trkpt>
      <trkpt lat="44.69867" lon="7.04436">
        <ele>2213</ele>
        <time>2022-07-12T09:07:15Z</time>
      </trkpt>
      <trkpt lat="44.69864" lon="7.04437">
        <ele>2213</ele>
        <time>2022-07-12T09:07:20Z</time>
      </trkpt>
      <trkpt lat="44.6986" lon="7.04437">
        <ele>2212</ele>
        <time>2022-07-12T09:07:24Z</time>
      </trkpt>
      <trkpt lat="44.69856" lon="7.04435">
        <ele>2213</ele>
        <time>2022-07-12T09:07:29Z</time>
      </trkpt>
      <trkpt lat="44.69853" lon="7.04433">
        <ele>2215</ele>
        <time>2022-07-12T09:07:34Z</time>
      </trkpt>
      <trkpt lat="44.69849" lon="7.04435">
        <ele>2216</ele>
        <time>2022-07-12T09:07:39Z</time>
      </trkpt>
      <trkpt lat="44.69847" lon="7.04439">
        <ele>2219</ele>
        <time>2022-07-12T09:07:44Z</time>
      </trkpt>
      <trkpt lat="44.69845" lon="7.04444">
        <ele>2220</ele>
        <time>2022-07-12T09:07:50Z</time>
      </trkpt>
      <trkpt lat="44.69841" lon="7.04446">
        <ele>2225</ele>
        <time>2022-07-12T09:08:21Z</time>
      </trkpt>
      <trkpt lat="44.69839" lon="7.04451">
        <ele>2224</ele>
        <time>2022-07-12T09:08:31Z</time>
      </trkpt>
      <trkpt lat="44.69823" lon="7.04462">
        <ele>2223</ele>
        <time>2022-07-12T09:08:54Z</time>
      </trkpt>
      <trkpt lat="44.69821" lon="7.04467">
        <ele>2223</ele>
        <time>2022-07-12T09:08:58Z</time>
      </trkpt>
      <trkpt lat="44.69818" lon="7.04478">
        <ele>2223</ele>
        <time>2022-07-12T09:09:06Z</time>
      </trkpt>
      <trkpt lat="44.69813" lon="7.04488">
        <ele>2223</ele>
        <time>2022-07-12T09:09:14Z</time>
      </trkpt>
      <trkpt lat="44.6981" lon="7.04491">
        <ele>2223</ele>
        <time>2022-07-12T09:09:18Z</time>
      </trkpt>
      <trkpt lat="44.69807" lon="7.04493">
        <ele>2223</ele>
        <time>2022-07-12T09:09:22Z</time>
      </trkpt>
      <trkpt lat="44.69803" lon="7.04496">
        <ele>2223</ele>
        <time>2022-07-12T09:09:26Z</time>
      </trkpt>
      <trkpt lat="44.698" lon="7.04499">
        <ele>2224</ele>
        <time>2022-07-12T09:09:31Z</time>
      </trkpt>
      <trkpt lat="44.69796" lon="7.04498">
        <ele>2225</ele>
        <time>2022-07-12T09:09:36Z</time>
      </trkpt>
      <trkpt lat="44.69793" lon="7.045">
        <ele>2226</ele>
        <time>2022-07-12T09:09:40Z</time>
      </trkpt>
      <trkpt lat="44.69789" lon="7.0451">
        <ele>2227</ele>
        <time>2022-07-12T09:09:49Z</time>
      </trkpt>
      <trkpt lat="44.69781" lon="7.0453">
        <ele>2228</ele>
        <time>2022-07-12T09:10:06Z</time>
      </trkpt>
      <trkpt lat="44.69779" lon="7.04534">
        <ele>2228</ele>
        <time>2022-07-12T09:10:10Z</time>
      </trkpt>
      <trkpt lat="44.69773" lon="7.04542">
        <ele>2230</ele>
        <time>2022-07-12T09:10:18Z</time>
      </trkpt>
      <trkpt lat="44.69766" lon="7.04554">
        <ele>2232</ele>
        <time>2022-07-12T09:10:30Z</time>
      </trkpt>
      <trkpt lat="44.69763" lon="7.04557">
        <ele>2233</ele>
        <time>2022-07-12T09:10:34Z</time>
      </trkpt>
      <trkpt lat="44.69747" lon="7.04574">
        <ele>2234</ele>
        <time>2022-07-12T09:10:53Z</time>
      </trkpt>
      <trkpt lat="44.69743" lon="7.04583">
        <ele>2234</ele>
        <time>2022-07-12T09:11:02Z</time>
      </trkpt>
      <trkpt lat="44.69735" lon="7.04595">
        <ele>2235</ele>
        <time>2022-07-12T09:11:14Z</time>
      </trkpt>
      <trkpt lat="44.69734" lon="7.046">
        <ele>2235</ele>
        <time>2022-07-12T09:11:18Z</time>
      </trkpt>
      <trkpt lat="44.69728" lon="7.04606">
        <ele>2237</ele>
        <time>2022-07-12T09:11:26Z</time>
      </trkpt>
      <trkpt lat="44.69724" lon="7.04608">
        <ele>2238</ele>
        <time>2022-07-12T09:11:30Z</time>
      </trkpt>
      <trkpt lat="44.69721" lon="7.0461">
        <ele>2238</ele>
        <time>2022-07-12T09:11:34Z</time>
      </trkpt>
      <trkpt lat="44.69714" lon="7.0461">
        <ele>2239</ele>
        <time>2022-07-12T09:11:42Z</time>
      </trkpt>
      <trkpt lat="44.6971" lon="7.04613">
        <ele>2239</ele>
        <time>2022-07-12T09:11:47Z</time>
      </trkpt>
      <trkpt lat="44.69707" lon="7.04614">
        <ele>2239</ele>
        <time>2022-07-12T09:11:52Z</time>
      </trkpt>
      <trkpt lat="44.69701" lon="7.0462">
        <ele>2241</ele>
        <time>2022-07-12T09:12:03Z</time>
      </trkpt>
      <trkpt lat="44.69698" lon="7.04624">
        <ele>2241</ele>
        <time>2022-07-12T09:12:09Z</time>
      </trkpt>
      <trkpt lat="44.69696" lon="7.04627">
        <ele>2242</ele>
        <time>2022-07-12T09:12:15Z</time>
      </trkpt>
      <trkpt lat="44.69693" lon="7.04631">
        <ele>2243</ele>
        <time>2022-07-12T09:12:20Z</time>
      </trkpt>
      <trkpt lat="44.69687" lon="7.04637">
        <ele>2244</ele>
        <time>2022-07-12T09:12:31Z</time>
      </trkpt>
      <trkpt lat="44.69681" lon="7.04644">
        <ele>2245</ele>
        <time>2022-07-12T09:12:40Z</time>
      </trkpt>
      <trkpt lat="44.6967" lon="7.04658">
        <ele>2247</ele>
        <time>2022-07-12T09:12:57Z</time>
      </trkpt>
      <trkpt lat="44.69668" lon="7.04662">
        <ele>2247</ele>
        <time>2022-07-12T09:13:02Z</time>
      </trkpt>
      <trkpt lat="44.69665" lon="7.04665">
        <ele>2248</ele>
        <time>2022-07-12T09:13:08Z</time>
      </trkpt>
      <trkpt lat="44.69663" lon="7.04669">
        <ele>2249</ele>
        <time>2022-07-12T09:13:13Z</time>
      </trkpt>
      <trkpt lat="44.69657" lon="7.04677">
        <ele>2251</ele>
        <time>2022-07-12T09:13:24Z</time>
      </trkpt>
      <trkpt lat="44.69654" lon="7.04679">
        <ele>2250</ele>
        <time>2022-07-12T09:13:28Z</time>
      </trkpt>
      <trkpt lat="44.69648" lon="7.04686">
        <ele>2250</ele>
        <time>2022-07-12T09:13:37Z</time>
      </trkpt>
      <trkpt lat="44.69645" lon="7.04689">
        <ele>2252</ele>
        <time>2022-07-12T09:13:42Z</time>
      </trkpt>
      <trkpt lat="44.69634" lon="7.04704">
        <ele>2254</ele>
        <time>2022-07-12T09:14:02Z</time>
      </trkpt>
      <trkpt lat="44.69632" lon="7.04709">
        <ele>2255</ele>
        <time>2022-07-12T09:14:07Z</time>
      </trkpt>
      <trkpt lat="44.69628" lon="7.04712">
        <ele>2256</ele>
        <time>2022-07-12T09:14:12Z</time>
      </trkpt>
      <trkpt lat="44.69625" lon="7.04715">
        <ele>2256</ele>
        <time>2022-07-12T09:14:17Z</time>
      </trkpt>
      <trkpt lat="44.69623" lon="7.04719">
        <ele>2256</ele>
        <time>2022-07-12T09:14:21Z</time>
      </trkpt>
      <trkpt lat="44.69616" lon="7.04724">
        <ele>2257</ele>
        <time>2022-07-12T09:14:29Z</time>
      </trkpt>
      <trkpt lat="44.69614" lon="7.04728">
        <ele>2257</ele>
        <time>2022-07-12T09:14:34Z</time>
      </trkpt>
      <trkpt lat="44.69612" lon="7.04733">
        <ele>2257</ele>
        <time>2022-07-12T09:14:39Z</time>
      </trkpt>
      <trkpt lat="44.69608" lon="7.04736">
        <ele>2257</ele>
        <time>2022-07-12T09:14:43Z</time>
      </trkpt>
      <trkpt lat="44.69606" lon="7.0474">
        <ele>2258</ele>
        <time>2022-07-12T09:14:48Z</time>
      </trkpt>
      <trkpt lat="44.69603" lon="7.04742">
        <ele>2258</ele>
        <time>2022-07-12T09:14:52Z</time>
      </trkpt>
      <trkpt lat="44.69599" lon="7.04744">
        <ele>2258</ele>
        <time>2022-07-12T09:14:56Z</time>
      </trkpt>
      <trkpt lat="44.69597" lon="7.04748">
        <ele>2258</ele>
        <time>2022-07-12T09:15:00Z</time>
      </trkpt>
      <trkpt lat="44.69594" lon="7.04751">
        <ele>2258</ele>
        <time>2022-07-12T09:15:04Z</time>
      </trkpt>
      <trkpt lat="44.69588" lon="7.04756">
        <ele>2259</ele>
        <time>2022-07-12T09:15:12Z</time>
      </trkpt>
      <trkpt lat="44.69584" lon="7.04759">
        <ele>2260</ele>
        <time>2022-07-12T09:15:17Z</time>
      </trkpt>
      <trkpt lat="44.69577" lon="7.04763">
        <ele>2260</ele>
        <time>2022-07-12T09:15:27Z</time>
      </trkpt>
      <trkpt lat="44.69574" lon="7.04767">
        <ele>2260</ele>
        <time>2022-07-12T09:15:32Z</time>
      </trkpt>
      <trkpt lat="44.69573" lon="7.04773">
        <ele>2261</ele>
        <time>2022-07-12T09:15:38Z</time>
      </trkpt>
      <trkpt lat="44.69571" lon="7.04777">
        <ele>2261</ele>
        <time>2022-07-12T09:15:42Z</time>
      </trkpt>
      <trkpt lat="44.69561" lon="7.04784">
        <ele>2263</ele>
        <time>2022-07-12T09:15:55Z</time>
      </trkpt>
      <trkpt lat="44.69558" lon="7.04788">
        <ele>2263</ele>
        <time>2022-07-12T09:15:59Z</time>
      </trkpt>
      <trkpt lat="44.69556" lon="7.04793">
        <ele>2263</ele>
        <time>2022-07-12T09:16:04Z</time>
      </trkpt>
      <trkpt lat="44.69549" lon="7.04798">
        <ele>2265</ele>
        <time>2022-07-12T09:16:13Z</time>
      </trkpt>
      <trkpt lat="44.69547" lon="7.04802">
        <ele>2266</ele>
        <time>2022-07-12T09:16:17Z</time>
      </trkpt>
      <trkpt lat="44.69544" lon="7.04806">
        <ele>2266</ele>
        <time>2022-07-12T09:16:21Z</time>
      </trkpt>
      <trkpt lat="44.69541" lon="7.04809">
        <ele>2266</ele>
        <time>2022-07-12T09:16:25Z</time>
      </trkpt>
      <trkpt lat="44.69538" lon="7.04813">
        <ele>2266</ele>
        <time>2022-07-12T09:16:29Z</time>
      </trkpt>
      <trkpt lat="44.69536" lon="7.04816">
        <ele>2266</ele>
        <time>2022-07-12T09:16:33Z</time>
      </trkpt>
      <trkpt lat="44.69532" lon="7.04819">
        <ele>2267</ele>
        <time>2022-07-12T09:16:38Z</time>
      </trkpt>
      <trkpt lat="44.6953" lon="7.04822">
        <ele>2267</ele>
        <time>2022-07-12T09:16:42Z</time>
      </trkpt>
      <trkpt lat="44.69527" lon="7.04826">
        <ele>2267</ele>
        <time>2022-07-12T09:16:48Z</time>
      </trkpt>
      <trkpt lat="44.69522" lon="7.04834">
        <ele>2267</ele>
        <time>2022-07-12T09:16:57Z</time>
      </trkpt>
      <trkpt lat="44.69512" lon="7.04849">
        <ele>2268</ele>
        <time>2022-07-12T09:17:19Z</time>
      </trkpt>
      <trkpt lat="44.69509" lon="7.04852">
        <ele>2270</ele>
        <time>2022-07-12T09:17:25Z</time>
      </trkpt>
      <trkpt lat="44.69505" lon="7.04853">
        <ele>2270</ele>
        <time>2022-07-12T09:17:29Z</time>
      </trkpt>
      <trkpt lat="44.69499" lon="7.04858">
        <ele>2271</ele>
        <time>2022-07-12T09:17:38Z</time>
      </trkpt>
      <trkpt lat="44.69497" lon="7.04863">
        <ele>2271</ele>
        <time>2022-07-12T09:17:45Z</time>
      </trkpt>
      <trkpt lat="44.69494" lon="7.04865">
        <ele>2271</ele>
        <time>2022-07-12T09:17:50Z</time>
      </trkpt>
      <trkpt lat="44.6949" lon="7.04862">
        <ele>2271</ele>
        <time>2022-07-12T09:17:55Z</time>
      </trkpt>
      <trkpt lat="44.69487" lon="7.04861">
        <ele>2271</ele>
        <time>2022-07-12T09:18:03Z</time>
      </trkpt>
      <trkpt lat="44.69486" lon="7.04871">
        <ele>2272</ele>
        <time>2022-07-12T09:18:15Z</time>
      </trkpt>
      <trkpt lat="44.69484" lon="7.04874">
        <ele>2273</ele>
        <time>2022-07-12T09:18:22Z</time>
      </trkpt>
      <trkpt lat="44.69481" lon="7.04871">
        <ele>2274</ele>
        <time>2022-07-12T09:18:28Z</time>
      </trkpt>
      <trkpt lat="44.69479" lon="7.04876">
        <ele>2275</ele>
        <time>2022-07-12T09:18:36Z</time>
      </trkpt>
      <trkpt lat="44.69475" lon="7.04876">
        <ele>2276</ele>
        <time>2022-07-12T09:18:44Z</time>
      </trkpt>
      <trkpt lat="44.69473" lon="7.04881">
        <ele>2278</ele>
        <time>2022-07-12T09:18:50Z</time>
      </trkpt>
      <trkpt lat="44.69471" lon="7.04885">
        <ele>2279</ele>
        <time>2022-07-12T09:18:55Z</time>
      </trkpt>
      <trkpt lat="44.69468" lon="7.04889">
        <ele>2281</ele>
        <time>2022-07-12T09:19:01Z</time>
      </trkpt>
      <trkpt lat="44.69465" lon="7.04891">
        <ele>2281</ele>
        <time>2022-07-12T09:19:06Z</time>
      </trkpt>
      <trkpt lat="44.69462" lon="7.04893">
        <ele>2282</ele>
        <time>2022-07-12T09:19:12Z</time>
      </trkpt>
      <trkpt lat="44.69459" lon="7.04896">
        <ele>2283</ele>
        <time>2022-07-12T09:19:19Z</time>
      </trkpt>
      <trkpt lat="44.69456" lon="7.04894">
        <ele>2284</ele>
        <time>2022-07-12T09:19:24Z</time>
      </trkpt>
      <trkpt lat="44.69456" lon="7.04899">
        <ele>2285</ele>
        <time>2022-07-12T09:19:38Z</time>
      </trkpt>
      <trkpt lat="44.69457" lon="7.04905">
        <ele>2287</ele>
        <time>2022-07-12T09:19:44Z</time>
      </trkpt>
      <trkpt lat="44.69457" lon="7.0491">
        <ele>2288</ele>
        <time>2022-07-12T09:19:50Z</time>
      </trkpt>
      <trkpt lat="44.69458" lon="7.04916">
        <ele>2290</ele>
        <time>2022-07-12T09:19:56Z</time>
      </trkpt>
      <trkpt lat="44.69454" lon="7.04916">
        <ele>2291</ele>
        <time>2022-07-12T09:20:05Z</time>
      </trkpt>
      <trkpt lat="44.69451" lon="7.04913">
        <ele>2291</ele>
        <time>2022-07-12T09:20:12Z</time>
      </trkpt>
      <trkpt lat="44.69451" lon="7.04918">
        <ele>2292</ele>
        <time>2022-07-12T09:20:20Z</time>
      </trkpt>
      <trkpt lat="44.69447" lon="7.04919">
        <ele>2293</ele>
        <time>2022-07-12T09:20:27Z</time>
      </trkpt>
      <trkpt lat="44.69445" lon="7.04924">
        <ele>2295</ele>
        <time>2022-07-12T09:20:34Z</time>
      </trkpt>
      <trkpt lat="44.69443" lon="7.04929">
        <ele>2295</ele>
        <time>2022-07-12T09:20:45Z</time>
      </trkpt>
      <trkpt lat="44.69441" lon="7.04933">
        <ele>2298</ele>
        <time>2022-07-12T09:20:53Z</time>
      </trkpt>
      <trkpt lat="44.69439" lon="7.04938">
        <ele>2299</ele>
        <time>2022-07-12T09:20:58Z</time>
      </trkpt>
      <trkpt lat="44.69436" lon="7.04942">
        <ele>2300</ele>
        <time>2022-07-12T09:21:03Z</time>
      </trkpt>
      <trkpt lat="44.69437" lon="7.04947">
        <ele>2300</ele>
        <time>2022-07-12T09:21:08Z</time>
      </trkpt>
      <trkpt lat="44.69437" lon="7.04952">
        <ele>2302</ele>
        <time>2022-07-12T09:21:15Z</time>
      </trkpt>
      <trkpt lat="44.69429" lon="7.04955">
        <ele>2304</ele>
        <time>2022-07-12T09:21:27Z</time>
      </trkpt>
      <trkpt lat="44.69428" lon="7.0496">
        <ele>2304</ele>
        <time>2022-07-12T09:21:32Z</time>
      </trkpt>
      <trkpt lat="44.69427" lon="7.04965">
        <ele>2306</ele>
        <time>2022-07-12T09:21:38Z</time>
      </trkpt>
      <trkpt lat="44.69419" lon="7.04976">
        <ele>2308</ele>
        <time>2022-07-12T09:21:56Z</time>
      </trkpt>
      <trkpt lat="44.69413" lon="7.04995">
        <ele>2312</ele>
        <time>2022-07-12T09:22:19Z</time>
      </trkpt>
      <trkpt lat="44.69413" lon="7.05001">
        <ele>2313</ele>
        <time>2022-07-12T09:22:25Z</time>
      </trkpt>
      <trkpt lat="44.69403" lon="7.05028">
        <ele>2320</ele>
        <time>2022-07-12T09:22:57Z</time>
      </trkpt>
      <trkpt lat="44.69391" lon="7.05048">
        <ele>2324</ele>
        <time>2022-07-12T09:23:27Z</time>
      </trkpt>
      <trkpt lat="44.69388" lon="7.05051">
        <ele>2324</ele>
        <time>2022-07-12T09:23:33Z</time>
      </trkpt>
      <trkpt lat="44.69388" lon="7.05056">
        <ele>2326</ele>
        <time>2022-07-12T09:23:43Z</time>
      </trkpt>
      <trkpt lat="44.69374" lon="7.0508">
        <ele>2330</ele>
        <time>2022-07-12T09:24:17Z</time>
      </trkpt>
      <trkpt lat="44.69373" lon="7.05085">
        <ele>2331</ele>
        <time>2022-07-12T09:24:25Z</time>
      </trkpt>
      <trkpt lat="44.6937" lon="7.05088">
        <ele>2332</ele>
        <time>2022-07-12T09:24:31Z</time>
      </trkpt>
      <trkpt lat="44.69367" lon="7.05097">
        <ele>2334</ele>
        <time>2022-07-12T09:24:46Z</time>
      </trkpt>
      <trkpt lat="44.69365" lon="7.05101">
        <ele>2334</ele>
        <time>2022-07-12T09:24:52Z</time>
      </trkpt>
      <trkpt lat="44.69362" lon="7.05105">
        <ele>2336</ele>
        <time>2022-07-12T09:24:58Z</time>
      </trkpt>
      <trkpt lat="44.69362" lon="7.05109">
        <ele>2336</ele>
        <time>2022-07-12T09:25:07Z</time>
      </trkpt>
      <trkpt lat="44.69365" lon="7.05113">
        <ele>2337</ele>
        <time>2022-07-12T09:25:14Z</time>
      </trkpt>
      <trkpt lat="44.69364" lon="7.05117">
        <ele>2338</ele>
        <time>2022-07-12T09:25:19Z</time>
      </trkpt>
      <trkpt lat="44.69361" lon="7.0512">
        <ele>2339</ele>
        <time>2022-07-12T09:25:25Z</time>
      </trkpt>
      <trkpt lat="44.6936" lon="7.05125">
        <ele>2340</ele>
        <time>2022-07-12T09:25:35Z</time>
      </trkpt>
      <trkpt lat="44.69357" lon="7.05127">
        <ele>2341</ele>
        <time>2022-07-12T09:25:43Z</time>
      </trkpt>
      <trkpt lat="44.69356" lon="7.05131">
        <ele>2343</ele>
        <time>2022-07-12T09:25:51Z</time>
      </trkpt>
      <trkpt lat="44.69352" lon="7.05132">
        <ele>2343</ele>
        <time>2022-07-12T09:25:59Z</time>
      </trkpt>
      <trkpt lat="44.69353" lon="7.05137">
        <ele>2344</ele>
        <time>2022-07-12T09:26:10Z</time>
      </trkpt>
      <trkpt lat="44.69343" lon="7.05143">
        <ele>2347</ele>
        <time>2022-07-12T09:26:29Z</time>
      </trkpt>
      <trkpt lat="44.69339" lon="7.05142">
        <ele>2347</ele>
        <time>2022-07-12T09:26:34Z</time>
      </trkpt>
      <trkpt lat="44.69332" lon="7.05145">
        <ele>2349</ele>
        <time>2022-07-12T09:26:44Z</time>
      </trkpt>
      <trkpt lat="44.69324" lon="7.05144">
        <ele>2349</ele>
        <time>2022-07-12T09:26:52Z</time>
      </trkpt>
      <trkpt lat="44.69321" lon="7.05145">
        <ele>2349</ele>
        <time>2022-07-12T09:26:56Z</time>
      </trkpt>
      <trkpt lat="44.69318" lon="7.05148">
        <ele>2350</ele>
        <time>2022-07-12T09:27:02Z</time>
      </trkpt>
      <trkpt lat="44.69315" lon="7.0515">
        <ele>2351</ele>
        <time>2022-07-12T09:27:08Z</time>
      </trkpt>
      <trkpt lat="44.69312" lon="7.05152">
        <ele>2352</ele>
        <time>2022-07-12T09:27:15Z</time>
      </trkpt>
      <trkpt lat="44.69309" lon="7.05155">
        <ele>2354</ele>
        <time>2022-07-12T09:27:25Z</time>
      </trkpt>
      <trkpt lat="44.69299" lon="7.05162">
        <ele>2356</ele>
        <time>2022-07-12T09:27:49Z</time>
      </trkpt>
      <trkpt lat="44.69295" lon="7.05163">
        <ele>2359</ele>
        <time>2022-07-12T09:28:00Z</time>
      </trkpt>
      <trkpt lat="44.69286" lon="7.05173">
        <ele>2364</ele>
        <time>2022-07-12T09:28:20Z</time>
      </trkpt>
      <trkpt lat="44.69284" lon="7.05176">
        <ele>2365</ele>
        <time>2022-07-12T09:28:29Z</time>
      </trkpt>
      <trkpt lat="44.69278" lon="7.05183">
        <ele>2368</ele>
        <time>2022-07-12T09:28:48Z</time>
      </trkpt>
      <trkpt lat="44.69272" lon="7.05189">
        <ele>2371</ele>
        <time>2022-07-12T09:29:02Z</time>
      </trkpt>
      <trkpt lat="44.69268" lon="7.05191">
        <ele>2372</ele>
        <time>2022-07-12T09:29:07Z</time>
      </trkpt>
      <trkpt lat="44.69266" lon="7.05194">
        <ele>2372</ele>
        <time>2022-07-12T09:29:12Z</time>
      </trkpt>
      <trkpt lat="44.69252" lon="7.05204">
        <ele>2376</ele>
        <time>2022-07-12T09:29:35Z</time>
      </trkpt>
      <trkpt lat="44.69247" lon="7.05211">
        <ele>2377</ele>
        <time>2022-07-12T09:29:45Z</time>
      </trkpt>
      <trkpt lat="44.69244" lon="7.05214">
        <ele>2378</ele>
        <time>2022-07-12T09:29:50Z</time>
      </trkpt>
      <trkpt lat="44.69233" lon="7.05207">
        <ele>2381</ele>
        <time>2022-07-12T09:30:06Z</time>
      </trkpt>
      <trkpt lat="44.69224" lon="7.05217">
        <ele>2384</ele>
        <time>2022-07-12T09:30:23Z</time>
      </trkpt>
      <trkpt lat="44.6922" lon="7.0522">
        <ele>2385</ele>
        <time>2022-07-12T09:30:28Z</time>
      </trkpt>
      <trkpt lat="44.69218" lon="7.05223">
        <ele>2386</ele>
        <time>2022-07-12T09:30:34Z</time>
      </trkpt>
      <trkpt lat="44.69218" lon="7.05229">
        <ele>2387</ele>
        <time>2022-07-12T09:30:41Z</time>
      </trkpt>
      <trkpt lat="44.69215" lon="7.05232">
        <ele>2387</ele>
        <time>2022-07-12T09:30:46Z</time>
      </trkpt>
      <trkpt lat="44.69214" lon="7.05237">
        <ele>2389</ele>
        <time>2022-07-12T09:30:54Z</time>
      </trkpt>
      <trkpt lat="44.69205" lon="7.05254">
        <ele>2392</ele>
        <time>2022-07-12T09:31:21Z</time>
      </trkpt>
      <trkpt lat="44.69203" lon="7.05258">
        <ele>2393</ele>
        <time>2022-07-12T09:31:27Z</time>
      </trkpt>
      <trkpt lat="44.69201" lon="7.05262">
        <ele>2395</ele>
        <time>2022-07-12T09:31:33Z</time>
      </trkpt>
      <trkpt lat="44.69198" lon="7.05266">
        <ele>2396</ele>
        <time>2022-07-12T09:31:40Z</time>
      </trkpt>
      <trkpt lat="44.69181" lon="7.05287">
        <ele>2400</ele>
        <time>2022-07-12T09:32:10Z</time>
      </trkpt>
      <trkpt lat="44.69177" lon="7.05292">
        <ele>2401</ele>
        <time>2022-07-12T09:32:15Z</time>
      </trkpt>
      <trkpt lat="44.69171" lon="7.05297">
        <ele>2401</ele>
        <time>2022-07-12T09:32:24Z</time>
      </trkpt>
      <trkpt lat="44.69168" lon="7.053">
        <ele>2401</ele>
        <time>2022-07-12T09:32:29Z</time>
      </trkpt>
      <trkpt lat="44.69165" lon="7.05305">
        <ele>2401</ele>
        <time>2022-07-12T09:32:34Z</time>
      </trkpt>
      <trkpt lat="44.69162" lon="7.05308">
        <ele>2401</ele>
        <time>2022-07-12T09:32:38Z</time>
      </trkpt>
      <trkpt lat="44.69157" lon="7.05317">
        <ele>2400</ele>
        <time>2022-07-12T09:32:47Z</time>
      </trkpt>
      <trkpt lat="44.69154" lon="7.05318">
        <ele>2400</ele>
        <time>2022-07-12T09:32:51Z</time>
      </trkpt>
      <trkpt lat="44.6915" lon="7.05317">
        <ele>2399</ele>
        <time>2022-07-12T09:32:57Z</time>
      </trkpt>
      <trkpt lat="44.69149" lon="7.05322">
        <ele>2399</ele>
        <time>2022-07-12T09:33:02Z</time>
      </trkpt>
      <trkpt lat="44.69145" lon="7.05324">
        <ele>2399</ele>
        <time>2022-07-12T09:33:07Z</time>
      </trkpt>
      <trkpt lat="44.69142" lon="7.05324">
        <ele>2400</ele>
        <time>2022-07-12T09:33:12Z</time>
      </trkpt>
      <trkpt lat="44.69138" lon="7.05325">
        <ele>2401</ele>
        <time>2022-07-12T09:33:17Z</time>
      </trkpt>
      <trkpt lat="44.69135" lon="7.05325">
        <ele>2401</ele>
        <time>2022-07-12T09:33:23Z</time>
      </trkpt>
      <trkpt lat="44.6913" lon="7.05333">
        <ele>2403</ele>
        <time>2022-07-12T09:33:32Z</time>
      </trkpt>
      <trkpt lat="44.69125" lon="7.05341">
        <ele>2405</ele>
        <time>2022-07-12T09:33:40Z</time>
      </trkpt>
      <trkpt lat="44.69122" lon="7.05344">
        <ele>2406</ele>
        <time>2022-07-12T09:33:44Z</time>
      </trkpt>
      <trkpt lat="44.69114" lon="7.05354">
        <ele>2407</ele>
        <time>2022-07-12T09:33:56Z</time>
      </trkpt>
      <trkpt lat="44.69111" lon="7.05358">
        <ele>2408</ele>
        <time>2022-07-12T09:34:01Z</time>
      </trkpt>
      <trkpt lat="44.69109" lon="7.05362">
        <ele>2408</ele>
        <time>2022-07-12T09:34:05Z</time>
      </trkpt>
      <trkpt lat="44.69108" lon="7.05367">
        <ele>2408</ele>
        <time>2022-07-12T09:34:10Z</time>
      </trkpt>
      <trkpt lat="44.69107" lon="7.05373">
        <ele>2409</ele>
        <time>2022-07-12T09:34:15Z</time>
      </trkpt>
      <trkpt lat="44.69101" lon="7.05385">
        <ele>2411</ele>
        <time>2022-07-12T09:34:30Z</time>
      </trkpt>
      <trkpt lat="44.69093" lon="7.0541">
        <ele>2414</ele>
        <time>2022-07-12T09:34:55Z</time>
      </trkpt>
      <trkpt lat="44.6909" lon="7.05414">
        <ele>2414</ele>
        <time>2022-07-12T09:35:00Z</time>
      </trkpt>
      <trkpt lat="44.69088" lon="7.05424">
        <ele>2416</ele>
        <time>2022-07-12T09:35:11Z</time>
      </trkpt>
      <trkpt lat="44.69086" lon="7.05429">
        <ele>2417</ele>
        <time>2022-07-12T09:35:16Z</time>
      </trkpt>
      <trkpt lat="44.69086" lon="7.0546">
        <ele>2421</ele>
        <time>2022-07-12T09:35:49Z</time>
      </trkpt>
      <trkpt lat="44.69082" lon="7.0547">
        <ele>2423</ele>
        <time>2022-07-12T09:35:59Z</time>
      </trkpt>
      <trkpt lat="44.69073" lon="7.05479">
        <ele>2422</ele>
        <time>2022-07-12T09:36:12Z</time>
      </trkpt>
      <trkpt lat="44.69069" lon="7.05488">
        <ele>2420</ele>
        <time>2022-07-12T09:36:22Z</time>
      </trkpt>
      <trkpt lat="44.69065" lon="7.05496">
        <ele>2418</ele>
        <time>2022-07-12T09:36:31Z</time>
      </trkpt>
      <trkpt lat="44.69059" lon="7.05516">
        <ele>2423</ele>
        <time>2022-07-12T09:36:47Z</time>
      </trkpt>
      <trkpt lat="44.69058" lon="7.05526">
        <ele>2423</ele>
        <time>2022-07-12T09:36:56Z</time>
      </trkpt>
      <trkpt lat="44.69056" lon="7.05536">
        <ele>2424</ele>
        <time>2022-07-12T09:37:05Z</time>
      </trkpt>
      <trkpt lat="44.69055" lon="7.05541">
        <ele>2424</ele>
        <time>2022-07-12T09:37:09Z</time>
      </trkpt>
      <trkpt lat="44.69052" lon="7.05557">
        <ele>2426</ele>
        <time>2022-07-12T09:37:23Z</time>
      </trkpt>
      <trkpt lat="44.69051" lon="7.05562">
        <ele>2426</ele>
        <time>2022-07-12T09:37:27Z</time>
      </trkpt>
      <trkpt lat="44.69049" lon="7.05566">
        <ele>2426</ele>
        <time>2022-07-12T09:37:31Z</time>
      </trkpt>
      <trkpt lat="44.69048" lon="7.05582">
        <ele>2424</ele>
        <time>2022-07-12T09:37:43Z</time>
      </trkpt>
      <trkpt lat="44.69047" lon="7.05594">
        <ele>2425</ele>
        <time>2022-07-12T09:37:51Z</time>
      </trkpt>
      <trkpt lat="44.69044" lon="7.05598">
        <ele>2425</ele>
        <time>2022-07-12T09:37:55Z</time>
      </trkpt>
      <trkpt lat="44.69044" lon="7.05603">
        <ele>2425</ele>
        <time>2022-07-12T09:37:59Z</time>
      </trkpt>
      <trkpt lat="44.69033" lon="7.0564">
        <ele>2426</ele>
        <time>2022-07-12T09:38:26Z</time>
      </trkpt>
      <trkpt lat="44.69027" lon="7.05654">
        <ele>2428</ele>
        <time>2022-07-12T09:38:40Z</time>
      </trkpt>
      <trkpt lat="44.69026" lon="7.05659">
        <ele>2430</ele>
        <time>2022-07-12T09:38:47Z</time>
      </trkpt>
      <trkpt lat="44.69025" lon="7.05664">
        <ele>2431</ele>
        <time>2022-07-12T09:38:54Z</time>
      </trkpt>
      <trkpt lat="44.69024" lon="7.05669">
        <ele>2433</ele>
        <time>2022-07-12T09:38:59Z</time>
      </trkpt>
      <trkpt lat="44.69023" lon="7.05673">
        <ele>2433</ele>
        <time>2022-07-12T09:39:03Z</time>
      </trkpt>
      <trkpt lat="44.69019" lon="7.05675">
        <ele>2433</ele>
        <time>2022-07-12T09:39:07Z</time>
      </trkpt>
      <trkpt lat="44.69014" lon="7.05688">
        <ele>2436</ele>
        <time>2022-07-12T09:39:21Z</time>
      </trkpt>
      <trkpt lat="44.69014" lon="7.05693">
        <ele>2437</ele>
        <time>2022-07-12T09:39:28Z</time>
      </trkpt>
      <trkpt lat="44.69012" lon="7.05698">
        <ele>2438</ele>
        <time>2022-07-12T09:39:33Z</time>
      </trkpt>
      <trkpt lat="44.69009" lon="7.05702">
        <ele>2438</ele>
        <time>2022-07-12T09:39:38Z</time>
      </trkpt>
      <trkpt lat="44.69004" lon="7.05711">
        <ele>2439</ele>
        <time>2022-07-12T09:39:48Z</time>
      </trkpt>
      <trkpt lat="44.68997" lon="7.05725">
        <ele>2441</ele>
        <time>2022-07-12T09:40:04Z</time>
      </trkpt>
      <trkpt lat="44.68998" lon="7.05731">
        <ele>2443</ele>
        <time>2022-07-12T09:40:10Z</time>
      </trkpt>
      <trkpt lat="44.68992" lon="7.0574">
        <ele>2443</ele>
        <time>2022-07-12T09:40:21Z</time>
      </trkpt>
      <trkpt lat="44.6899" lon="7.05772">
        <ele>2447</ele>
        <time>2022-07-12T09:40:52Z</time>
      </trkpt>
      <trkpt lat="44.6899" lon="7.05777">
        <ele>2447</ele>
        <time>2022-07-12T09:40:56Z</time>
      </trkpt>
      <trkpt lat="44.68988" lon="7.05782">
        <ele>2447</ele>
        <time>2022-07-12T09:41:01Z</time>
      </trkpt>
      <trkpt lat="44.68986" lon="7.05786">
        <ele>2448</ele>
        <time>2022-07-12T09:41:05Z</time>
      </trkpt>
      <trkpt lat="44.68983" lon="7.05794">
        <ele>2448</ele>
        <time>2022-07-12T09:41:13Z</time>
      </trkpt>
      <trkpt lat="44.6898" lon="7.05797">
        <ele>2448</ele>
        <time>2022-07-12T09:41:17Z</time>
      </trkpt>
      <trkpt lat="44.68979" lon="7.05802">
        <ele>2448</ele>
        <time>2022-07-12T09:41:21Z</time>
      </trkpt>
      <trkpt lat="44.68974" lon="7.0581">
        <ele>2449</ele>
        <time>2022-07-12T09:41:32Z</time>
      </trkpt>
      <trkpt lat="44.68971" lon="7.05814">
        <ele>2449</ele>
        <time>2022-07-12T09:41:37Z</time>
      </trkpt>
      <trkpt lat="44.6897" lon="7.05818">
        <ele>2450</ele>
        <time>2022-07-12T09:41:43Z</time>
      </trkpt>
      <trkpt lat="44.68969" lon="7.05823">
        <ele>2452</ele>
        <time>2022-07-12T09:41:48Z</time>
      </trkpt>
      <trkpt lat="44.68971" lon="7.05833">
        <ele>2455</ele>
        <time>2022-07-12T09:41:59Z</time>
      </trkpt>
      <trkpt lat="44.6897" lon="7.05849">
        <ele>2457</ele>
        <time>2022-07-12T09:42:14Z</time>
      </trkpt>
      <trkpt lat="44.6897" lon="7.05865">
        <ele>2456</ele>
        <time>2022-07-12T09:42:26Z</time>
      </trkpt>
      <trkpt lat="44.68968" lon="7.05908">
        <ele>2454</ele>
        <time>2022-07-12T09:42:56Z</time>
      </trkpt>
      <trkpt lat="44.68968" lon="7.05914">
        <ele>2454</ele>
        <time>2022-07-12T09:43:00Z</time>
      </trkpt>
      <trkpt lat="44.68968" lon="7.05919">
        <ele>2454</ele>
        <time>2022-07-12T09:43:04Z</time>
      </trkpt>
      <trkpt lat="44.68966" lon="7.05946">
        <ele>2454</ele>
        <time>2022-07-12T09:43:24Z</time>
      </trkpt>
      <trkpt lat="44.68964" lon="7.05951">
        <ele>2454</ele>
        <time>2022-07-12T09:43:29Z</time>
      </trkpt>
      <trkpt lat="44.68963" lon="7.05956">
        <ele>2454</ele>
        <time>2022-07-12T09:43:33Z</time>
      </trkpt>
      <trkpt lat="44.68963" lon="7.05962">
        <ele>2454</ele>
        <time>2022-07-12T09:43:37Z</time>
      </trkpt>
      <trkpt lat="44.68961" lon="7.05965">
        <ele>2455</ele>
        <time>2022-07-12T09:43:43Z</time>
      </trkpt>
      <trkpt lat="44.68957" lon="7.05967">
        <ele>2455</ele>
        <time>2022-07-12T09:43:48Z</time>
      </trkpt>
      <trkpt lat="44.68956" lon="7.05972">
        <ele>2455</ele>
        <time>2022-07-12T09:43:52Z</time>
      </trkpt>
      <trkpt lat="44.68953" lon="7.05975">
        <ele>2454</ele>
        <time>2022-07-12T09:43:56Z</time>
      </trkpt>
      <trkpt lat="44.6895" lon="7.05978">
        <ele>2452</ele>
        <time>2022-07-12T09:44:01Z</time>
      </trkpt>
      <trkpt lat="44.68946" lon="7.06006">
        <ele>2454</ele>
        <time>2022-07-12T09:44:22Z</time>
      </trkpt>
      <trkpt lat="44.68944" lon="7.0601">
        <ele>2454</ele>
        <time>2022-07-12T09:44:26Z</time>
      </trkpt>
      <trkpt lat="44.68942" lon="7.06015">
        <ele>2453</ele>
        <time>2022-07-12T09:44:31Z</time>
      </trkpt>
      <trkpt lat="44.68932" lon="7.06024">
        <ele>2454</ele>
        <time>2022-07-12T09:44:46Z</time>
      </trkpt>
      <trkpt lat="44.68928" lon="7.06024">
        <ele>2455</ele>
        <time>2022-07-12T09:44:53Z</time>
      </trkpt>
      <trkpt lat="44.68925" lon="7.06025">
        <ele>2454</ele>
        <time>2022-07-12T09:44:59Z</time>
      </trkpt>
      <trkpt lat="44.68919" lon="7.06032">
        <ele>2456</ele>
        <time>2022-07-12T09:45:08Z</time>
      </trkpt>
      <trkpt lat="44.68917" lon="7.06037">
        <ele>2456</ele>
        <time>2022-07-12T09:45:12Z</time>
      </trkpt>
      <trkpt lat="44.68911" lon="7.06052">
        <ele>2457</ele>
        <time>2022-07-12T09:45:25Z</time>
      </trkpt>
      <trkpt lat="44.68909" lon="7.06062">
        <ele>2458</ele>
        <time>2022-07-12T09:45:33Z</time>
      </trkpt>
      <trkpt lat="44.68906" lon="7.06067">
        <ele>2458</ele>
        <time>2022-07-12T09:45:37Z</time>
      </trkpt>
      <trkpt lat="44.68905" lon="7.06072">
        <ele>2457</ele>
        <time>2022-07-12T09:45:41Z</time>
      </trkpt>
      <trkpt lat="44.68888" lon="7.06098">
        <ele>2457</ele>
        <time>2022-07-12T09:46:09Z</time>
      </trkpt>
      <trkpt lat="44.68882" lon="7.06104">
        <ele>2456</ele>
        <time>2022-07-12T09:46:19Z</time>
      </trkpt>
      <trkpt lat="44.68867" lon="7.06135">
        <ele>2462</ele>
        <time>2022-07-12T09:46:49Z</time>
      </trkpt>
      <trkpt lat="44.68866" lon="7.0614">
        <ele>2462</ele>
        <time>2022-07-12T09:46:53Z</time>
      </trkpt>
      <trkpt lat="44.68864" lon="7.06144">
        <ele>2462</ele>
        <time>2022-07-12T09:46:57Z</time>
      </trkpt>
      <trkpt lat="44.68862" lon="7.06148">
        <ele>2462</ele>
        <time>2022-07-12T09:47:01Z</time>
      </trkpt>
      <trkpt lat="44.68853" lon="7.06167">
        <ele>2464</ele>
        <time>2022-07-12T09:47:20Z</time>
      </trkpt>
      <trkpt lat="44.6885" lon="7.0617">
        <ele>2464</ele>
        <time>2022-07-12T09:47:24Z</time>
      </trkpt>
      <trkpt lat="44.68847" lon="7.06174">
        <ele>2464</ele>
        <time>2022-07-12T09:47:28Z</time>
      </trkpt>
      <trkpt lat="44.6884" lon="7.06178">
        <ele>2465</ele>
        <time>2022-07-12T09:47:38Z</time>
      </trkpt>
      <trkpt lat="44.68837" lon="7.0618">
        <ele>2465</ele>
        <time>2022-07-12T09:47:43Z</time>
      </trkpt>
      <trkpt lat="44.68833" lon="7.0618">
        <ele>2463</ele>
        <time>2022-07-12T09:47:48Z</time>
      </trkpt>
      <trkpt lat="44.68827" lon="7.06187">
        <ele>2465</ele>
        <time>2022-07-12T09:47:59Z</time>
      </trkpt>
      <trkpt lat="44.68824" lon="7.06191">
        <ele>2466</ele>
        <time>2022-07-12T09:48:05Z</time>
      </trkpt>
      <trkpt lat="44.68821" lon="7.06194">
        <ele>2466</ele>
        <time>2022-07-12T09:48:10Z</time>
      </trkpt>
      <trkpt lat="44.68818" lon="7.06197">
        <ele>2467</ele>
        <time>2022-07-12T09:48:14Z</time>
      </trkpt>
      <trkpt lat="44.68813" lon="7.06205">
        <ele>2468</ele>
        <time>2022-07-12T09:48:23Z</time>
      </trkpt>
      <trkpt lat="44.68811" lon="7.06209">
        <ele>2468</ele>
        <time>2022-07-12T09:48:29Z</time>
      </trkpt>
      <trkpt lat="44.68806" lon="7.06217">
        <ele>2472</ele>
        <time>2022-07-12T09:48:41Z</time>
      </trkpt>
      <trkpt lat="44.68804" lon="7.06221">
        <ele>2475</ele>
        <time>2022-07-12T09:48:47Z</time>
      </trkpt>
      <trkpt lat="44.68802" lon="7.06226">
        <ele>2476</ele>
        <time>2022-07-12T09:48:51Z</time>
      </trkpt>
      <trkpt lat="44.688" lon="7.0623">
        <ele>2478</ele>
        <time>2022-07-12T09:48:57Z</time>
      </trkpt>
      <trkpt lat="44.68797" lon="7.06232">
        <ele>2478</ele>
        <time>2022-07-12T09:49:02Z</time>
      </trkpt>
      <trkpt lat="44.68793" lon="7.06231">
        <ele>2479</ele>
        <time>2022-07-12T09:49:08Z</time>
      </trkpt>
      <trkpt lat="44.68791" lon="7.06235">
        <ele>2480</ele>
        <time>2022-07-12T09:49:14Z</time>
      </trkpt>
      <trkpt lat="44.6879" lon="7.06241">
        <ele>2483</ele>
        <time>2022-07-12T09:49:21Z</time>
      </trkpt>
      <trkpt lat="44.6879" lon="7.06246">
        <ele>2484</ele>
        <time>2022-07-12T09:49:27Z</time>
      </trkpt>
      <trkpt lat="44.6879" lon="7.06251">
        <ele>2488</ele>
        <time>2022-07-12T09:49:32Z</time>
      </trkpt>
      <trkpt lat="44.68789" lon="7.06256">
        <ele>2489</ele>
        <time>2022-07-12T09:49:39Z</time>
      </trkpt>
      <trkpt lat="44.68786" lon="7.06267">
        <ele>2492</ele>
        <time>2022-07-12T09:49:53Z</time>
      </trkpt>
      <trkpt lat="44.6878" lon="7.06286">
        <ele>2495</ele>
        <time>2022-07-12T09:50:17Z</time>
      </trkpt>
      <trkpt lat="44.68779" lon="7.06291">
        <ele>2497</ele>
        <time>2022-07-12T09:50:23Z</time>
      </trkpt>
      <trkpt lat="44.68776" lon="7.06308">
        <ele>2499</ele>
        <time>2022-07-12T09:50:38Z</time>
      </trkpt>
      <trkpt lat="44.6877" lon="7.06322">
        <ele>2498</ele>
        <time>2022-07-12T09:50:50Z</time>
      </trkpt>
      <trkpt lat="44.6877" lon="7.06328">
        <ele>2500</ele>
        <time>2022-07-12T09:50:57Z</time>
      </trkpt>
      <trkpt lat="44.68769" lon="7.06332">
        <ele>2500</ele>
        <time>2022-07-12T09:51:02Z</time>
      </trkpt>
      <trkpt lat="44.68768" lon="7.06337">
        <ele>2501</ele>
        <time>2022-07-12T09:51:08Z</time>
      </trkpt>
      <trkpt lat="44.68762" lon="7.06343">
        <ele>2502</ele>
        <time>2022-07-12T09:51:17Z</time>
      </trkpt>
      <trkpt lat="44.68758" lon="7.06352">
        <ele>2502</ele>
        <time>2022-07-12T09:51:28Z</time>
      </trkpt>
      <trkpt lat="44.68757" lon="7.06367">
        <ele>2505</ele>
        <time>2022-07-12T09:51:43Z</time>
      </trkpt>
      <trkpt lat="44.68756" lon="7.06372">
        <ele>2506</ele>
        <time>2022-07-12T09:51:48Z</time>
      </trkpt>
      <trkpt lat="44.68754" lon="7.06378">
        <ele>2507</ele>
        <time>2022-07-12T09:51:53Z</time>
      </trkpt>
      <trkpt lat="44.68752" lon="7.06382">
        <ele>2507</ele>
        <time>2022-07-12T09:51:58Z</time>
      </trkpt>
      <trkpt lat="44.6875" lon="7.06386">
        <ele>2508</ele>
        <time>2022-07-12T09:52:03Z</time>
      </trkpt>
      <trkpt lat="44.68748" lon="7.06391">
        <ele>2508</ele>
        <time>2022-07-12T09:52:08Z</time>
      </trkpt>
      <trkpt lat="44.68746" lon="7.06395">
        <ele>2508</ele>
        <time>2022-07-12T09:52:13Z</time>
      </trkpt>
      <trkpt lat="44.68744" lon="7.064">
        <ele>2508</ele>
        <time>2022-07-12T09:52:18Z</time>
      </trkpt>
      <trkpt lat="44.68745" lon="7.06411">
        <ele>2509</ele>
        <time>2022-07-12T09:52:27Z</time>
      </trkpt>
      <trkpt lat="44.68744" lon="7.06416">
        <ele>2509</ele>
        <time>2022-07-12T09:52:31Z</time>
      </trkpt>
      <trkpt lat="44.68743" lon="7.06421">
        <ele>2509</ele>
        <time>2022-07-12T09:52:36Z</time>
      </trkpt>
      <trkpt lat="44.6874" lon="7.06422">
        <ele>2509</ele>
        <time>2022-07-12T09:52:40Z</time>
      </trkpt>
      <trkpt lat="44.68737" lon="7.06423">
        <ele>2509</ele>
        <time>2022-07-12T09:52:44Z</time>
      </trkpt>
      <trkpt lat="44.68722" lon="7.06454">
        <ele>2511</ele>
        <time>2022-07-12T09:53:16Z</time>
      </trkpt>
      <trkpt lat="44.6872" lon="7.06458">
        <ele>2512</ele>
        <time>2022-07-12T09:53:21Z</time>
      </trkpt>
      <trkpt lat="44.68718" lon="7.06462">
        <ele>2512</ele>
        <time>2022-07-12T09:53:26Z</time>
      </trkpt>
      <trkpt lat="44.68719" lon="7.06467">
        <ele>2511</ele>
        <time>2022-07-12T09:53:31Z</time>
      </trkpt>
      <trkpt lat="44.68723" lon="7.06468">
        <ele>2511</ele>
        <time>2022-07-12T09:53:37Z</time>
      </trkpt>
      <trkpt lat="44.68724" lon="7.06474">
        <ele>2511</ele>
        <time>2022-07-12T09:53:42Z</time>
      </trkpt>
      <trkpt lat="44.68722" lon="7.06478">
        <ele>2511</ele>
        <time>2022-07-12T09:53:46Z</time>
      </trkpt>
      <trkpt lat="44.68726" lon="7.0648">
        <ele>2511</ele>
        <time>2022-07-12T09:53:54Z</time>
      </trkpt>
      <trkpt lat="44.68725" lon="7.06486">
        <ele>2511</ele>
        <time>2022-07-12T09:53:58Z</time>
      </trkpt>
      <trkpt lat="44.68725" lon="7.06491">
        <ele>2512</ele>
        <time>2022-07-12T09:54:02Z</time>
      </trkpt>
      <trkpt lat="44.68733" lon="7.06487">
        <ele>2514</ele>
        <time>2022-07-12T09:54:10Z</time>
      </trkpt>
      <trkpt lat="44.68736" lon="7.06483">
        <ele>2513</ele>
        <time>2022-07-12T09:54:13Z</time>
      </trkpt>
      <trkpt lat="44.68733" lon="7.06482">
        <ele>2512</ele>
        <time>2022-07-12T10:00:09Z</time>
      </trkpt>
      <trkpt lat="44.6873" lon="7.0648">
        <ele>2512</ele>
        <time>2022-07-12T10:00:34Z</time>
      </trkpt>
      <trkpt lat="44.68726" lon="7.06479">
        <ele>2514</ele>
        <time>2022-07-12T10:00:39Z</time>
      </trkpt>
      <trkpt lat="44.68725" lon="7.06475">
        <ele>2514</ele>
        <time>2022-07-12T10:00:46Z</time>
      </trkpt>
      <trkpt lat="44.68722" lon="7.06472">
        <ele>2514</ele>
        <time>2022-07-12T10:01:14Z</time>
      </trkpt>
      <trkpt lat="44.68714" lon="7.06472">
        <ele>2513</ele>
        <time>2022-07-12T10:01:24Z</time>
      </trkpt>
      <trkpt lat="44.68712" lon="7.06474">
        <ele>2513</ele>
        <time>2022-07-12T10:01:28Z</time>
      </trkpt>
      <trkpt lat="44.68707" lon="7.06481">
        <ele>2515</ele>
        <time>2022-07-12T10:01:37Z</time>
      </trkpt>
      <trkpt lat="44.68703" lon="7.06483">
        <ele>2515</ele>
        <time>2022-07-12T10:01:42Z</time>
      </trkpt>
      <trkpt lat="44.687" lon="7.06482">
        <ele>2514</ele>
        <time>2022-07-12T10:01:46Z</time>
      </trkpt>
      <trkpt lat="44.68696" lon="7.06479">
        <ele>2513</ele>
        <time>2022-07-12T10:01:50Z</time>
      </trkpt>
      <trkpt lat="44.68693" lon="7.06477">
        <ele>2512</ele>
        <time>2022-07-12T10:01:54Z</time>
      </trkpt>
      <trkpt lat="44.68689" lon="7.06475">
        <ele>2511</ele>
        <time>2022-07-12T10:01:58Z</time>
      </trkpt>
      <trkpt lat="44.68682" lon="7.06478">
        <ele>2512</ele>
        <time>2022-07-12T10:02:07Z</time>
      </trkpt>
      <trkpt lat="44.68678" lon="7.06478">
        <ele>2514</ele>
        <time>2022-07-12T10:02:12Z</time>
      </trkpt>
      <trkpt lat="44.68674" lon="7.06479">
        <ele>2514</ele>
        <time>2022-07-12T10:02:16Z</time>
      </trkpt>
      <trkpt lat="44.68671" lon="7.06481">
        <ele>2514</ele>
        <time>2022-07-12T10:02:21Z</time>
      </trkpt>
      <trkpt lat="44.68667" lon="7.06483">
        <ele>2513</ele>
        <time>2022-07-12T10:02:26Z</time>
      </trkpt>
      <trkpt lat="44.68652" lon="7.06484">
        <ele>2514</ele>
        <time>2022-07-12T10:02:43Z</time>
      </trkpt>
      <trkpt lat="44.68649" lon="7.06485">
        <ele>2514</ele>
        <time>2022-07-12T10:02:47Z</time>
      </trkpt>
      <trkpt lat="44.68645" lon="7.06484">
        <ele>2514</ele>
        <time>2022-07-12T10:02:52Z</time>
      </trkpt>
      <trkpt lat="44.68642" lon="7.06482">
        <ele>2514</ele>
        <time>2022-07-12T10:02:56Z</time>
      </trkpt>
      <trkpt lat="44.68634" lon="7.06481">
        <ele>2514</ele>
        <time>2022-07-12T10:03:04Z</time>
      </trkpt>
      <trkpt lat="44.6863" lon="7.06479">
        <ele>2514</ele>
        <time>2022-07-12T10:03:08Z</time>
      </trkpt>
      <trkpt lat="44.68627" lon="7.06479">
        <ele>2514</ele>
        <time>2022-07-12T10:03:13Z</time>
      </trkpt>
      <trkpt lat="44.68623" lon="7.06481">
        <ele>2514</ele>
        <time>2022-07-12T10:03:19Z</time>
      </trkpt>
      <trkpt lat="44.6862" lon="7.06482">
        <ele>2516</ele>
        <time>2022-07-12T10:03:25Z</time>
      </trkpt>
      <trkpt lat="44.68618" lon="7.06486">
        <ele>2517</ele>
        <time>2022-07-12T10:03:29Z</time>
      </trkpt>
      <trkpt lat="44.68616" lon="7.06491">
        <ele>2519</ele>
        <time>2022-07-12T10:03:34Z</time>
      </trkpt>
      <trkpt lat="44.68606" lon="7.06504">
        <ele>2523</ele>
        <time>2022-07-12T10:03:54Z</time>
      </trkpt>
      <trkpt lat="44.68603" lon="7.06507">
        <ele>2524</ele>
        <time>2022-07-12T10:04:00Z</time>
      </trkpt>
      <trkpt lat="44.68599" lon="7.06507">
        <ele>2526</ele>
        <time>2022-07-12T10:04:07Z</time>
      </trkpt>
      <trkpt lat="44.68595" lon="7.06507">
        <ele>2527</ele>
        <time>2022-07-12T10:04:13Z</time>
      </trkpt>
      <trkpt lat="44.68592" lon="7.06504">
        <ele>2527</ele>
        <time>2022-07-12T10:04:18Z</time>
      </trkpt>
      <trkpt lat="44.6859" lon="7.06488">
        <ele>2527</ele>
        <time>2022-07-12T10:04:36Z</time>
      </trkpt>
      <trkpt lat="44.68588" lon="7.06484">
        <ele>2528</ele>
        <time>2022-07-12T10:04:42Z</time>
      </trkpt>
      <trkpt lat="44.68586" lon="7.0648">
        <ele>2528</ele>
        <time>2022-07-12T10:04:48Z</time>
      </trkpt>
      <trkpt lat="44.68586" lon="7.06469">
        <ele>2530</ele>
        <time>2022-07-12T10:04:58Z</time>
      </trkpt>
      <trkpt lat="44.68583" lon="7.06459">
        <ele>2530</ele>
        <time>2022-07-12T10:05:09Z</time>
      </trkpt>
      <trkpt lat="44.68584" lon="7.06454">
        <ele>2530</ele>
        <time>2022-07-12T10:05:14Z</time>
      </trkpt>
      <trkpt lat="44.68583" lon="7.06449">
        <ele>2532</ele>
        <time>2022-07-12T10:05:21Z</time>
      </trkpt>
      <trkpt lat="44.68583" lon="7.06435">
        <ele>2534</ele>
        <time>2022-07-12T10:05:39Z</time>
      </trkpt>
      <trkpt lat="44.68581" lon="7.06431">
        <ele>2536</ele>
        <time>2022-07-12T10:05:44Z</time>
      </trkpt>
      <trkpt lat="44.68577" lon="7.06416">
        <ele>2538</ele>
        <time>2022-07-12T10:06:05Z</time>
      </trkpt>
      <trkpt lat="44.68577" lon="7.06411">
        <ele>2540</ele>
        <time>2022-07-12T10:06:10Z</time>
      </trkpt>
      <trkpt lat="44.68578" lon="7.06406">
        <ele>2541</ele>
        <time>2022-07-12T10:06:15Z</time>
      </trkpt>
      <trkpt lat="44.6858" lon="7.06401">
        <ele>2544</ele>
        <time>2022-07-12T10:06:21Z</time>
      </trkpt>
      <trkpt lat="44.6858" lon="7.06396">
        <ele>2545</ele>
        <time>2022-07-12T10:06:25Z</time>
      </trkpt>
      <trkpt lat="44.68577" lon="7.06392">
        <ele>2541</ele>
        <time>2022-07-12T10:06:29Z</time>
      </trkpt>
      <trkpt lat="44.68577" lon="7.06387">
        <ele>2541</ele>
        <time>2022-07-12T10:06:40Z</time>
      </trkpt>
      <trkpt lat="44.68582" lon="7.06379">
        <ele>2547</ele>
        <time>2022-07-12T10:06:50Z</time>
      </trkpt>
      <trkpt lat="44.68583" lon="7.06374">
        <ele>2549</ele>
        <time>2022-07-12T10:06:55Z</time>
      </trkpt>
      <trkpt lat="44.68581" lon="7.06369">
        <ele>2549</ele>
        <time>2022-07-12T10:07:02Z</time>
      </trkpt>
      <trkpt lat="44.6858" lon="7.06364">
        <ele>2550</ele>
        <time>2022-07-12T10:07:09Z</time>
      </trkpt>
      <trkpt lat="44.68581" lon="7.06358">
        <ele>2551</ele>
        <time>2022-07-12T10:07:15Z</time>
      </trkpt>
      <trkpt lat="44.68581" lon="7.06353">
        <ele>2552</ele>
        <time>2022-07-12T10:07:22Z</time>
      </trkpt>
      <trkpt lat="44.6858" lon="7.06348">
        <ele>2553</ele>
        <time>2022-07-12T10:07:32Z</time>
      </trkpt>
      <trkpt lat="44.68581" lon="7.06343">
        <ele>2556</ele>
        <time>2022-07-12T10:07:39Z</time>
      </trkpt>
      <trkpt lat="44.6858" lon="7.06338">
        <ele>2556</ele>
        <time>2022-07-12T10:07:46Z</time>
      </trkpt>
      <trkpt lat="44.6858" lon="7.06333">
        <ele>2556</ele>
        <time>2022-07-12T10:07:54Z</time>
      </trkpt>
      <trkpt lat="44.68581" lon="7.06328">
        <ele>2557</ele>
        <time>2022-07-12T10:07:58Z</time>
      </trkpt>
      <trkpt lat="44.68583" lon="7.06324">
        <ele>2558</ele>
        <time>2022-07-12T10:08:03Z</time>
      </trkpt>
      <trkpt lat="44.68584" lon="7.06319">
        <ele>2559</ele>
        <time>2022-07-12T10:08:10Z</time>
      </trkpt>
      <trkpt lat="44.6858" lon="7.06304">
        <ele>2561</ele>
        <time>2022-07-12T10:08:30Z</time>
      </trkpt>
      <trkpt lat="44.6858" lon="7.06299">
        <ele>2560</ele>
        <time>2022-07-12T10:08:35Z</time>
      </trkpt>
      <trkpt lat="44.68578" lon="7.06295">
        <ele>2561</ele>
        <time>2022-07-12T10:08:42Z</time>
      </trkpt>
      <trkpt lat="44.68577" lon="7.0629">
        <ele>2562</ele>
        <time>2022-07-12T10:08:49Z</time>
      </trkpt>
      <trkpt lat="44.68575" lon="7.06286">
        <ele>2563</ele>
        <time>2022-07-12T10:08:54Z</time>
      </trkpt>
      <trkpt lat="44.68575" lon="7.06281">
        <ele>2565</ele>
        <time>2022-07-12T10:09:02Z</time>
      </trkpt>
      <trkpt lat="44.68576" lon="7.06266">
        <ele>2567</ele>
        <time>2022-07-12T10:09:17Z</time>
      </trkpt>
      <trkpt lat="44.68575" lon="7.06261">
        <ele>2568</ele>
        <time>2022-07-12T10:09:24Z</time>
      </trkpt>
      <trkpt lat="44.68573" lon="7.06258">
        <ele>2569</ele>
        <time>2022-07-12T10:09:31Z</time>
      </trkpt>
      <trkpt lat="44.68571" lon="7.06252">
        <ele>2569</ele>
        <time>2022-07-12T10:09:37Z</time>
      </trkpt>
      <trkpt lat="44.68571" lon="7.06247">
        <ele>2569</ele>
        <time>2022-07-12T10:09:43Z</time>
      </trkpt>
      <trkpt lat="44.6857" lon="7.06237">
        <ele>2571</ele>
        <time>2022-07-12T10:09:55Z</time>
      </trkpt>
      <trkpt lat="44.68569" lon="7.06232">
        <ele>2571</ele>
        <time>2022-07-12T10:10:01Z</time>
      </trkpt>
      <trkpt lat="44.68568" lon="7.06228">
        <ele>2571</ele>
        <time>2022-07-12T10:10:05Z</time>
      </trkpt>
      <trkpt lat="44.68567" lon="7.06223">
        <ele>2571</ele>
        <time>2022-07-12T10:10:11Z</time>
      </trkpt>
      <trkpt lat="44.68567" lon="7.06213">
        <ele>2573</ele>
        <time>2022-07-12T10:10:22Z</time>
      </trkpt>
      <trkpt lat="44.68565" lon="7.06209">
        <ele>2574</ele>
        <time>2022-07-12T10:10:29Z</time>
      </trkpt>
      <trkpt lat="44.68564" lon="7.06198">
        <ele>2577</ele>
        <time>2022-07-12T10:10:44Z</time>
      </trkpt>
      <trkpt lat="44.6856" lon="7.06199">
        <ele>2578</ele>
        <time>2022-07-12T10:10:51Z</time>
      </trkpt>
      <trkpt lat="44.68556" lon="7.06208">
        <ele>2584</ele>
        <time>2022-07-12T10:11:04Z</time>
      </trkpt>
      <trkpt lat="44.68553" lon="7.06211">
        <ele>2585</ele>
        <time>2022-07-12T10:11:10Z</time>
      </trkpt>
      <trkpt lat="44.6855" lon="7.06214">
        <ele>2586</ele>
        <time>2022-07-12T10:11:19Z</time>
      </trkpt>
      <trkpt lat="44.68547" lon="7.06216">
        <ele>2587</ele>
        <time>2022-07-12T10:11:29Z</time>
      </trkpt>
      <trkpt lat="44.68545" lon="7.06221">
        <ele>2590</ele>
        <time>2022-07-12T10:11:38Z</time>
      </trkpt>
      <trkpt lat="44.68542" lon="7.0622">
        <ele>2592</ele>
        <time>2022-07-12T10:11:49Z</time>
      </trkpt>
      <trkpt lat="44.6853" lon="7.06234">
        <ele>2598</ele>
        <time>2022-07-12T10:12:21Z</time>
      </trkpt>
      <trkpt lat="44.68528" lon="7.06237">
        <ele>2600</ele>
        <time>2022-07-12T10:12:29Z</time>
      </trkpt>
      <trkpt lat="44.68525" lon="7.06241">
        <ele>2601</ele>
        <time>2022-07-12T10:12:35Z</time>
      </trkpt>
      <trkpt lat="44.68522" lon="7.06241">
        <ele>2602</ele>
        <time>2022-07-12T10:12:47Z</time>
      </trkpt>
      <trkpt lat="44.68519" lon="7.06244">
        <ele>2601</ele>
        <time>2022-07-12T10:12:52Z</time>
      </trkpt>
      <trkpt lat="44.68517" lon="7.06248">
        <ele>2603</ele>
        <time>2022-07-12T10:12:59Z</time>
      </trkpt>
      <trkpt lat="44.68514" lon="7.06249">
        <ele>2604</ele>
        <time>2022-07-12T10:13:09Z</time>
      </trkpt>
      <trkpt lat="44.68511" lon="7.0625">
        <ele>2606</ele>
        <time>2022-07-12T10:13:16Z</time>
      </trkpt>
      <trkpt lat="44.6851" lon="7.06241">
        <ele>2606</ele>
        <time>2022-07-12T10:13:29Z</time>
      </trkpt>
      <trkpt lat="44.68511" lon="7.06236">
        <ele>2606</ele>
        <time>2022-07-12T10:13:36Z</time>
      </trkpt>
      <trkpt lat="44.6851" lon="7.06231">
        <ele>2607</ele>
        <time>2022-07-12T10:13:43Z</time>
      </trkpt>
      <trkpt lat="44.6851" lon="7.06227">
        <ele>2608</ele>
        <time>2022-07-12T10:13:49Z</time>
      </trkpt>
      <trkpt lat="44.6851" lon="7.06216">
        <ele>2609</ele>
        <time>2022-07-12T10:14:01Z</time>
      </trkpt>
      <trkpt lat="44.68508" lon="7.06213">
        <ele>2609</ele>
        <time>2022-07-12T10:14:08Z</time>
      </trkpt>
      <trkpt lat="44.6851" lon="7.06209">
        <ele>2610</ele>
        <time>2022-07-12T10:14:14Z</time>
      </trkpt>
      <trkpt lat="44.68512" lon="7.06205">
        <ele>2611</ele>
        <time>2022-07-12T10:14:19Z</time>
      </trkpt>
      <trkpt lat="44.68515" lon="7.06201">
        <ele>2614</ele>
        <time>2022-07-12T10:14:25Z</time>
      </trkpt>
      <trkpt lat="44.68516" lon="7.06196">
        <ele>2615</ele>
        <time>2022-07-12T10:14:31Z</time>
      </trkpt>
      <trkpt lat="44.68516" lon="7.06191">
        <ele>2618</ele>
        <time>2022-07-12T10:14:40Z</time>
      </trkpt>
      <trkpt lat="44.68515" lon="7.06186">
        <ele>2618</ele>
        <time>2022-07-12T10:14:48Z</time>
      </trkpt>
      <trkpt lat="44.68513" lon="7.06174">
        <ele>2619</ele>
        <time>2022-07-12T10:14:58Z</time>
      </trkpt>
      <trkpt lat="44.68513" lon="7.06169">
        <ele>2620</ele>
        <time>2022-07-12T10:15:10Z</time>
      </trkpt>
      <trkpt lat="44.68511" lon="7.06165">
        <ele>2619</ele>
        <time>2022-07-12T10:15:17Z</time>
      </trkpt>
      <trkpt lat="44.6851" lon="7.06161">
        <ele>2619</ele>
        <time>2022-07-12T10:15:28Z</time>
      </trkpt>
      <trkpt lat="44.68508" lon="7.06156">
        <ele>2623</ele>
        <time>2022-07-12T10:15:39Z</time>
      </trkpt>
      <trkpt lat="44.68506" lon="7.06152">
        <ele>2623</ele>
        <time>2022-07-12T10:15:48Z</time>
      </trkpt>
      <trkpt lat="44.68503" lon="7.06153">
        <ele>2626</ele>
        <time>2022-07-12T10:15:56Z</time>
      </trkpt>
      <trkpt lat="44.68502" lon="7.06158">
        <ele>2628</ele>
        <time>2022-07-12T10:16:13Z</time>
      </trkpt>
      <trkpt lat="44.68497" lon="7.06164">
        <ele>2634</ele>
        <time>2022-07-12T10:16:30Z</time>
      </trkpt>
      <trkpt lat="44.68494" lon="7.06168">
        <ele>2636</ele>
        <time>2022-07-12T10:16:39Z</time>
      </trkpt>
      <trkpt lat="44.68493" lon="7.06172">
        <ele>2638</ele>
        <time>2022-07-12T10:16:48Z</time>
      </trkpt>
      <trkpt lat="44.68487" lon="7.06178">
        <ele>2642</ele>
        <time>2022-07-12T10:17:09Z</time>
      </trkpt>
      <trkpt lat="44.68484" lon="7.0618">
        <ele>2645</ele>
        <time>2022-07-12T10:17:18Z</time>
      </trkpt>
      <trkpt lat="44.68481" lon="7.06178">
        <ele>2645</ele>
        <time>2022-07-12T10:17:24Z</time>
      </trkpt>
      <trkpt lat="44.68472" lon="7.06187">
        <ele>2648</ele>
        <time>2022-07-12T10:17:43Z</time>
      </trkpt>
      <trkpt lat="44.68468" lon="7.06187">
        <ele>2648</ele>
        <time>2022-07-12T10:17:52Z</time>
      </trkpt>
      <trkpt lat="44.68465" lon="7.06187">
        <ele>2650</ele>
        <time>2022-07-12T10:17:59Z</time>
      </trkpt>
      <trkpt lat="44.68458" lon="7.06191">
        <ele>2651</ele>
        <time>2022-07-12T10:18:11Z</time>
      </trkpt>
      <trkpt lat="44.68449" lon="7.06192">
        <ele>2653</ele>
        <time>2022-07-12T10:18:30Z</time>
      </trkpt>
      <trkpt lat="44.68448" lon="7.06196">
        <ele>2654</ele>
        <time>2022-07-12T10:18:37Z</time>
      </trkpt>
      <trkpt lat="44.68447" lon="7.06202">
        <ele>2657</ele>
        <time>2022-07-12T10:18:44Z</time>
      </trkpt>
      <trkpt lat="44.68444" lon="7.06211">
        <ele>2658</ele>
        <time>2022-07-12T10:18:59Z</time>
      </trkpt>
      <trkpt lat="44.68442" lon="7.06215">
        <ele>2659</ele>
        <time>2022-07-12T10:19:08Z</time>
      </trkpt>
      <trkpt lat="44.68441" lon="7.0622">
        <ele>2660</ele>
        <time>2022-07-12T10:19:15Z</time>
      </trkpt>
      <trkpt lat="44.68439" lon="7.06224">
        <ele>2661</ele>
        <time>2022-07-12T10:19:21Z</time>
      </trkpt>
      <trkpt lat="44.68436" lon="7.06228">
        <ele>2662</ele>
        <time>2022-07-12T10:19:29Z</time>
      </trkpt>
      <trkpt lat="44.68433" lon="7.06232">
        <ele>2662</ele>
        <time>2022-07-12T10:19:36Z</time>
      </trkpt>
      <trkpt lat="44.68431" lon="7.06242">
        <ele>2663</ele>
        <time>2022-07-12T10:19:47Z</time>
      </trkpt>
      <trkpt lat="44.6843" lon="7.06247">
        <ele>2661</ele>
        <time>2022-07-12T10:19:52Z</time>
      </trkpt>
      <trkpt lat="44.68428" lon="7.06252">
        <ele>2661</ele>
        <time>2022-07-12T10:19:58Z</time>
      </trkpt>
      <trkpt lat="44.68425" lon="7.06254">
        <ele>2662</ele>
        <time>2022-07-12T10:20:08Z</time>
      </trkpt>
      <trkpt lat="44.68416" lon="7.06258">
        <ele>2665</ele>
        <time>2022-07-12T10:20:32Z</time>
      </trkpt>
      <trkpt lat="44.68413" lon="7.06261">
        <ele>2669</ele>
        <time>2022-07-12T10:20:39Z</time>
      </trkpt>
      <trkpt lat="44.6841" lon="7.06261">
        <ele>2671</ele>
        <time>2022-07-12T10:20:50Z</time>
      </trkpt>
      <trkpt lat="44.68405" lon="7.06269">
        <ele>2674</ele>
        <time>2022-07-12T10:21:08Z</time>
      </trkpt>
      <trkpt lat="44.68401" lon="7.06269">
        <ele>2675</ele>
        <time>2022-07-12T10:21:19Z</time>
      </trkpt>
      <trkpt lat="44.68398" lon="7.06271">
        <ele>2676</ele>
        <time>2022-07-12T10:21:27Z</time>
      </trkpt>
      <trkpt lat="44.68395" lon="7.06274">
        <ele>2678</ele>
        <time>2022-07-12T10:21:39Z</time>
      </trkpt>
      <trkpt lat="44.68392" lon="7.06277">
        <ele>2679</ele>
        <time>2022-07-12T10:21:48Z</time>
      </trkpt>
      <trkpt lat="44.6839" lon="7.06281">
        <ele>2682</ele>
        <time>2022-07-12T10:21:56Z</time>
      </trkpt>
      <trkpt lat="44.6839" lon="7.06287">
        <ele>2682</ele>
        <time>2022-07-12T10:22:04Z</time>
      </trkpt>
      <trkpt lat="44.68385" lon="7.06297">
        <ele>2684</ele>
        <time>2022-07-12T10:22:27Z</time>
      </trkpt>
      <trkpt lat="44.6838" lon="7.06308">
        <ele>2686</ele>
        <time>2022-07-12T10:22:46Z</time>
      </trkpt>
      <trkpt lat="44.68376" lon="7.06319">
        <ele>2691</ele>
        <time>2022-07-12T10:23:03Z</time>
      </trkpt>
      <trkpt lat="44.68373" lon="7.06338">
        <ele>2694</ele>
        <time>2022-07-12T10:23:24Z</time>
      </trkpt>
      <trkpt lat="44.6837" lon="7.06353">
        <ele>2695</ele>
        <time>2022-07-12T10:23:38Z</time>
      </trkpt>
      <trkpt lat="44.68368" lon="7.06358">
        <ele>2695</ele>
        <time>2022-07-12T10:23:45Z</time>
      </trkpt>
      <trkpt lat="44.68369" lon="7.06363">
        <ele>2696</ele>
        <time>2022-07-12T10:23:51Z</time>
      </trkpt>
      <trkpt lat="44.68367" lon="7.06367">
        <ele>2697</ele>
        <time>2022-07-12T10:23:58Z</time>
      </trkpt>
      <trkpt lat="44.68364" lon="7.06371">
        <ele>2699</ele>
        <time>2022-07-12T10:24:06Z</time>
      </trkpt>
      <trkpt lat="44.68362" lon="7.06376">
        <ele>2700</ele>
        <time>2022-07-12T10:24:13Z</time>
      </trkpt>
      <trkpt lat="44.68364" lon="7.06391">
        <ele>2701</ele>
        <time>2022-07-12T10:24:29Z</time>
      </trkpt>
      <trkpt lat="44.68362" lon="7.06395">
        <ele>2701</ele>
        <time>2022-07-12T10:24:35Z</time>
      </trkpt>
      <trkpt lat="44.68361" lon="7.06401">
        <ele>2701</ele>
        <time>2022-07-12T10:24:40Z</time>
      </trkpt>
      <trkpt lat="44.6836" lon="7.06406">
        <ele>2701</ele>
        <time>2022-07-12T10:24:45Z</time>
      </trkpt>
      <trkpt lat="44.68358" lon="7.0641">
        <ele>2703</ele>
        <time>2022-07-12T10:24:52Z</time>
      </trkpt>
      <trkpt lat="44.68355" lon="7.06413">
        <ele>2704</ele>
        <time>2022-07-12T10:24:59Z</time>
      </trkpt>
      <trkpt lat="44.68352" lon="7.06415">
        <ele>2705</ele>
        <time>2022-07-12T10:25:06Z</time>
      </trkpt>
      <trkpt lat="44.68349" lon="7.06419">
        <ele>2706</ele>
        <time>2022-07-12T10:25:13Z</time>
      </trkpt>
      <trkpt lat="44.6835" lon="7.06424">
        <ele>2706</ele>
        <time>2022-07-12T10:25:19Z</time>
      </trkpt>
      <trkpt lat="44.68344" lon="7.06437">
        <ele>2707</ele>
        <time>2022-07-12T10:25:35Z</time>
      </trkpt>
      <trkpt lat="44.68337" lon="7.06449">
        <ele>2709</ele>
        <time>2022-07-12T10:25:51Z</time>
      </trkpt>
      <trkpt lat="44.68333" lon="7.06458">
        <ele>2710</ele>
        <time>2022-07-12T10:26:02Z</time>
      </trkpt>
      <trkpt lat="44.68331" lon="7.06463">
        <ele>2710</ele>
        <time>2022-07-12T10:26:07Z</time>
      </trkpt>
      <trkpt lat="44.68329" lon="7.06474">
        <ele>2708</ele>
        <time>2022-07-12T10:26:17Z</time>
      </trkpt>
      <trkpt lat="44.68324" lon="7.0648">
        <ele>2709</ele>
        <time>2022-07-12T10:26:27Z</time>
      </trkpt>
      <trkpt lat="44.68321" lon="7.06484">
        <ele>2710</ele>
        <time>2022-07-12T10:26:33Z</time>
      </trkpt>
      <trkpt lat="44.6832" lon="7.06489">
        <ele>2711</ele>
        <time>2022-07-12T10:26:39Z</time>
      </trkpt>
      <trkpt lat="44.68318" lon="7.06499">
        <ele>2712</ele>
        <time>2022-07-12T10:26:53Z</time>
      </trkpt>
      <trkpt lat="44.68319" lon="7.06504">
        <ele>2712</ele>
        <time>2022-07-12T10:26:59Z</time>
      </trkpt>
      <trkpt lat="44.68323" lon="7.06507">
        <ele>2712</ele>
        <time>2022-07-12T10:27:05Z</time>
      </trkpt>
      <trkpt lat="44.68326" lon="7.0651">
        <ele>2712</ele>
        <time>2022-07-12T10:27:14Z</time>
      </trkpt>
      <trkpt lat="44.68328" lon="7.06515">
        <ele>2711</ele>
        <time>2022-07-12T10:27:19Z</time>
      </trkpt>
      <trkpt lat="44.68328" lon="7.0652">
        <ele>2712</ele>
        <time>2022-07-12T10:27:24Z</time>
      </trkpt>
      <trkpt lat="44.68327" lon="7.06526">
        <ele>2712</ele>
        <time>2022-07-12T10:27:29Z</time>
      </trkpt>
      <trkpt lat="44.68326" lon="7.0653">
        <ele>2712</ele>
        <time>2022-07-12T10:27:33Z</time>
      </trkpt>
      <trkpt lat="44.68324" lon="7.06535">
        <ele>2713</ele>
        <time>2022-07-12T10:27:39Z</time>
      </trkpt>
      <trkpt lat="44.68322" lon="7.06539">
        <ele>2714</ele>
        <time>2022-07-12T10:27:45Z</time>
      </trkpt>
      <trkpt lat="44.68322" lon="7.06545">
        <ele>2714</ele>
        <time>2022-07-12T10:27:50Z</time>
      </trkpt>
      <trkpt lat="44.6832" lon="7.06555">
        <ele>2715</ele>
        <time>2022-07-12T10:28:04Z</time>
      </trkpt>
      <trkpt lat="44.68317" lon="7.06557">
        <ele>2716</ele>
        <time>2022-07-12T10:28:16Z</time>
      </trkpt>
      <trkpt lat="44.68314" lon="7.06561">
        <ele>2717</ele>
        <time>2022-07-12T10:28:36Z</time>
      </trkpt>
      <trkpt lat="44.68311" lon="7.06563">
        <ele>2718</ele>
        <time>2022-07-12T10:28:49Z</time>
      </trkpt>
      <trkpt lat="44.68308" lon="7.06564">
        <ele>2719</ele>
        <time>2022-07-12T10:28:58Z</time>
      </trkpt>
      <trkpt lat="44.68304" lon="7.06564">
        <ele>2720</ele>
        <time>2022-07-12T10:29:05Z</time>
      </trkpt>
      <trkpt lat="44.68298" lon="7.0657">
        <ele>2720</ele>
        <time>2022-07-12T10:29:24Z</time>
      </trkpt>
      <trkpt lat="44.68295" lon="7.06571">
        <ele>2721</ele>
        <time>2022-07-12T10:29:34Z</time>
      </trkpt>
      <trkpt lat="44.68291" lon="7.06572">
        <ele>2722</ele>
        <time>2022-07-12T10:29:42Z</time>
      </trkpt>
      <trkpt lat="44.68288" lon="7.06569">
        <ele>2724</ele>
        <time>2022-07-12T10:29:48Z</time>
      </trkpt>
      <trkpt lat="44.68284" lon="7.0657">
        <ele>2725</ele>
        <time>2022-07-12T10:29:56Z</time>
      </trkpt>
      <trkpt lat="44.68281" lon="7.06569">
        <ele>2726</ele>
        <time>2022-07-12T10:30:03Z</time>
      </trkpt>
      <trkpt lat="44.68277" lon="7.06569">
        <ele>2727</ele>
        <time>2022-07-12T10:30:13Z</time>
      </trkpt>
      <trkpt lat="44.68274" lon="7.06569">
        <ele>2729</ele>
        <time>2022-07-12T10:30:20Z</time>
      </trkpt>
      <trkpt lat="44.6827" lon="7.06567">
        <ele>2730</ele>
        <time>2022-07-12T10:30:27Z</time>
      </trkpt>
      <trkpt lat="44.68267" lon="7.06565">
        <ele>2730</ele>
        <time>2022-07-12T10:30:36Z</time>
      </trkpt>
      <trkpt lat="44.68264" lon="7.06563">
        <ele>2730</ele>
        <time>2022-07-12T10:30:42Z</time>
      </trkpt>
      <trkpt lat="44.6826" lon="7.06564">
        <ele>2730</ele>
        <time>2022-07-12T10:30:50Z</time>
      </trkpt>
      <trkpt lat="44.68257" lon="7.06566">
        <ele>2731</ele>
        <time>2022-07-12T10:30:58Z</time>
      </trkpt>
      <trkpt lat="44.68254" lon="7.06569">
        <ele>2733</ele>
        <time>2022-07-12T10:31:05Z</time>
      </trkpt>
      <trkpt lat="44.68249" lon="7.06576">
        <ele>2735</ele>
        <time>2022-07-12T10:31:18Z</time>
      </trkpt>
      <trkpt lat="44.68246" lon="7.0658">
        <ele>2736</ele>
        <time>2022-07-12T10:31:26Z</time>
      </trkpt>
      <trkpt lat="44.68241" lon="7.06588">
        <ele>2736</ele>
        <time>2022-07-12T10:31:39Z</time>
      </trkpt>
      <trkpt lat="44.6824" lon="7.06593">
        <ele>2738</ele>
        <time>2022-07-12T10:31:49Z</time>
      </trkpt>
      <trkpt lat="44.68237" lon="7.06596">
        <ele>2739</ele>
        <time>2022-07-12T10:31:57Z</time>
      </trkpt>
      <trkpt lat="44.68234" lon="7.06599">
        <ele>2739</ele>
        <time>2022-07-12T10:32:04Z</time>
      </trkpt>
      <trkpt lat="44.68234" lon="7.06604">
        <ele>2739</ele>
        <time>2022-07-12T10:32:12Z</time>
      </trkpt>
      <trkpt lat="44.68231" lon="7.06606">
        <ele>2740</ele>
        <time>2022-07-12T10:32:25Z</time>
      </trkpt>
      <trkpt lat="44.68227" lon="7.06607">
        <ele>2740</ele>
        <time>2022-07-12T10:32:35Z</time>
      </trkpt>
      <trkpt lat="44.68226" lon="7.06611">
        <ele>2744</ele>
        <time>2022-07-12T10:32:47Z</time>
      </trkpt>
      <trkpt lat="44.68224" lon="7.06615">
        <ele>2745</ele>
        <time>2022-07-12T10:33:00Z</time>
      </trkpt>
      <trkpt lat="44.6822" lon="7.06614">
        <ele>2748</ele>
        <time>2022-07-12T10:33:10Z</time>
      </trkpt>
      <trkpt lat="44.6822" lon="7.06619">
        <ele>2749</ele>
        <time>2022-07-12T10:33:21Z</time>
      </trkpt>
      <trkpt lat="44.68219" lon="7.06624">
        <ele>2751</ele>
        <time>2022-07-12T10:33:29Z</time>
      </trkpt>
      <trkpt lat="44.68216" lon="7.06628">
        <ele>2753</ele>
        <time>2022-07-12T10:33:40Z</time>
      </trkpt>
      <trkpt lat="44.68214" lon="7.06633">
        <ele>2754</ele>
        <time>2022-07-12T10:33:46Z</time>
      </trkpt>
      <trkpt lat="44.68215" lon="7.06638">
        <ele>2754</ele>
        <time>2022-07-12T10:33:51Z</time>
      </trkpt>
      <trkpt lat="44.68217" lon="7.06643">
        <ele>2754</ele>
        <time>2022-07-12T10:34:04Z</time>
      </trkpt>
      <trkpt lat="44.68218" lon="7.06648">
        <ele>2755</ele>
        <time>2022-07-12T10:34:23Z</time>
      </trkpt>
      <trkpt lat="44.68215" lon="7.06653">
        <ele>2754</ele>
        <time>2022-07-12T10:34:31Z</time>
      </trkpt>
      <trkpt lat="44.68216" lon="7.06659">
        <ele>2753</ele>
        <time>2022-07-12T10:34:40Z</time>
      </trkpt>
      <trkpt lat="44.68214" lon="7.06664">
        <ele>2753</ele>
        <time>2022-07-12T10:34:47Z</time>
      </trkpt>
      <trkpt lat="44.6821" lon="7.06663">
        <ele>2752</ele>
        <time>2022-07-12T10:34:51Z</time>
      </trkpt>
      <trkpt lat="44.68207" lon="7.06667">
        <ele>2752</ele>
        <time>2022-07-12T10:34:59Z</time>
      </trkpt>
      <trkpt lat="44.68204" lon="7.06673">
        <ele>2754</ele>
        <time>2022-07-12T10:35:15Z</time>
      </trkpt>
      <trkpt lat="44.68207" lon="7.06677">
        <ele>2754</ele>
        <time>2022-07-12T10:35:26Z</time>
      </trkpt>
      <trkpt lat="44.68207" lon="7.06683">
        <ele>2754</ele>
        <time>2022-07-12T10:35:31Z</time>
      </trkpt>
      <trkpt lat="44.68205" lon="7.06688">
        <ele>2753</ele>
        <time>2022-07-12T10:35:37Z</time>
      </trkpt>
      <trkpt lat="44.68204" lon="7.06694">
        <ele>2752</ele>
        <time>2022-07-12T10:35:44Z</time>
      </trkpt>
      <trkpt lat="44.68203" lon="7.067">
        <ele>2751</ele>
        <time>2022-07-12T10:35:49Z</time>
      </trkpt>
      <trkpt lat="44.68202" lon="7.06706">
        <ele>2751</ele>
        <time>2022-07-12T10:35:55Z</time>
      </trkpt>
      <trkpt lat="44.68201" lon="7.06712">
        <ele>2750</ele>
        <time>2022-07-12T10:36:01Z</time>
      </trkpt>
      <trkpt lat="44.68196" lon="7.06711">
        <ele>2750</ele>
        <time>2022-07-12T10:36:05Z</time>
      </trkpt>
      <trkpt lat="44.68193" lon="7.06717">
        <ele>2750</ele>
        <time>2022-07-12T10:36:14Z</time>
      </trkpt>
      <trkpt lat="44.68191" lon="7.06722">
        <ele>2750</ele>
        <time>2022-07-12T10:36:22Z</time>
      </trkpt>
      <trkpt lat="44.68186" lon="7.06723">
        <ele>2751</ele>
        <time>2022-07-12T10:36:32Z</time>
      </trkpt>
      <trkpt lat="44.68182" lon="7.06726">
        <ele>2752</ele>
        <time>2022-07-12T10:36:38Z</time>
      </trkpt>
      <trkpt lat="44.68184" lon="7.06731">
        <ele>2754</ele>
        <time>2022-07-12T10:36:45Z</time>
      </trkpt>
      <trkpt lat="44.68183" lon="7.06736">
        <ele>2756</ele>
        <time>2022-07-12T10:36:51Z</time>
      </trkpt>
      <trkpt lat="44.68178" lon="7.06747">
        <ele>2759</ele>
        <time>2022-07-12T10:37:05Z</time>
      </trkpt>
      <trkpt lat="44.68175" lon="7.06752">
        <ele>2758</ele>
        <time>2022-07-12T10:37:13Z</time>
      </trkpt>
      <trkpt lat="44.68173" lon="7.06758">
        <ele>2758</ele>
        <time>2022-07-12T10:37:20Z</time>
      </trkpt>
      <trkpt lat="44.68173" lon="7.06763">
        <ele>2759</ele>
        <time>2022-07-12T10:37:25Z</time>
      </trkpt>
      <trkpt lat="44.68169" lon="7.06772">
        <ele>2758</ele>
        <time>2022-07-12T10:37:35Z</time>
      </trkpt>
      <trkpt lat="44.68168" lon="7.06777">
        <ele>2756</ele>
        <time>2022-07-12T10:37:40Z</time>
      </trkpt>
      <trkpt lat="44.68165" lon="7.06779">
        <ele>2756</ele>
        <time>2022-07-12T10:37:44Z</time>
      </trkpt>
      <trkpt lat="44.68161" lon="7.06781">
        <ele>2755</ele>
        <time>2022-07-12T10:37:49Z</time>
      </trkpt>
      <trkpt lat="44.68158" lon="7.06778">
        <ele>2755</ele>
        <time>2022-07-12T10:37:55Z</time>
      </trkpt>
      <trkpt lat="44.68154" lon="7.06777">
        <ele>2754</ele>
        <time>2022-07-12T10:38:01Z</time>
      </trkpt>
      <trkpt lat="44.68152" lon="7.06781">
        <ele>2754</ele>
        <time>2022-07-12T10:38:07Z</time>
      </trkpt>
      <trkpt lat="44.6815" lon="7.06787">
        <ele>2758</ele>
        <time>2022-07-12T10:38:13Z</time>
      </trkpt>
      <trkpt lat="44.6815" lon="7.06792">
        <ele>2758</ele>
        <time>2022-07-12T10:38:18Z</time>
      </trkpt>
      <trkpt lat="44.68141" lon="7.06809">
        <ele>2761</ele>
        <time>2022-07-12T10:38:42Z</time>
      </trkpt>
      <trkpt lat="44.68139" lon="7.06819">
        <ele>2761</ele>
        <time>2022-07-12T10:38:53Z</time>
      </trkpt>
      <trkpt lat="44.68137" lon="7.06824">
        <ele>2763</ele>
        <time>2022-07-12T10:38:59Z</time>
      </trkpt>
      <trkpt lat="44.68135" lon="7.06829">
        <ele>2765</ele>
        <time>2022-07-12T10:39:06Z</time>
      </trkpt>
      <trkpt lat="44.68132" lon="7.06831">
        <ele>2765</ele>
        <time>2022-07-12T10:39:12Z</time>
      </trkpt>
      <trkpt lat="44.68129" lon="7.06834">
        <ele>2766</ele>
        <time>2022-07-12T10:39:20Z</time>
      </trkpt>
      <trkpt lat="44.68125" lon="7.06833">
        <ele>2766</ele>
        <time>2022-07-12T10:39:25Z</time>
      </trkpt>
      <trkpt lat="44.68125" lon="7.06837">
        <ele>2766</ele>
        <time>2022-07-12T10:39:30Z</time>
      </trkpt>
      <trkpt lat="44.68125" lon="7.06842">
        <ele>2769</ele>
        <time>2022-07-12T10:39:38Z</time>
      </trkpt>
      <trkpt lat="44.68121" lon="7.06844">
        <ele>2771</ele>
        <time>2022-07-12T10:39:45Z</time>
      </trkpt>
      <trkpt lat="44.68123" lon="7.06849">
        <ele>2772</ele>
        <time>2022-07-12T10:39:52Z</time>
      </trkpt>
      <trkpt lat="44.6812" lon="7.06852">
        <ele>2772</ele>
        <time>2022-07-12T10:40:05Z</time>
      </trkpt>
      <trkpt lat="44.68117" lon="7.06854">
        <ele>2772</ele>
        <time>2022-07-12T10:40:12Z</time>
      </trkpt>
      <trkpt lat="44.68116" lon="7.06859">
        <ele>2772</ele>
        <time>2022-07-12T10:40:19Z</time>
      </trkpt>
      <trkpt lat="44.68116" lon="7.06864">
        <ele>2773</ele>
        <time>2022-07-12T10:40:26Z</time>
      </trkpt>
      <trkpt lat="44.68114" lon="7.06869">
        <ele>2773</ele>
        <time>2022-07-12T10:40:32Z</time>
      </trkpt>
      <trkpt lat="44.6811" lon="7.06878">
        <ele>2773</ele>
        <time>2022-07-12T10:40:44Z</time>
      </trkpt>
      <trkpt lat="44.68109" lon="7.06883">
        <ele>2774</ele>
        <time>2022-07-12T10:40:50Z</time>
      </trkpt>
      <trkpt lat="44.68107" lon="7.06887">
        <ele>2776</ele>
        <time>2022-07-12T10:40:56Z</time>
      </trkpt>
      <trkpt lat="44.68103" lon="7.06889">
        <ele>2777</ele>
        <time>2022-07-12T10:41:02Z</time>
      </trkpt>
      <trkpt lat="44.68101" lon="7.06892">
        <ele>2777</ele>
        <time>2022-07-12T10:41:06Z</time>
      </trkpt>
      <trkpt lat="44.68098" lon="7.06896">
        <ele>2777</ele>
        <time>2022-07-12T10:41:13Z</time>
      </trkpt>
      <trkpt lat="44.68098" lon="7.06901">
        <ele>2776</ele>
        <time>2022-07-12T10:41:21Z</time>
      </trkpt>
      <trkpt lat="44.68096" lon="7.06906">
        <ele>2777</ele>
        <time>2022-07-12T10:41:30Z</time>
      </trkpt>
      <trkpt lat="44.68093" lon="7.06903">
        <ele>2778</ele>
        <time>2022-07-12T10:41:41Z</time>
      </trkpt>
      <trkpt lat="44.68092" lon="7.06908">
        <ele>2781</ele>
        <time>2022-07-12T10:41:48Z</time>
      </trkpt>
      <trkpt lat="44.6809" lon="7.06912">
        <ele>2784</ele>
        <time>2022-07-12T10:42:03Z</time>
      </trkpt>
      <trkpt lat="44.68089" lon="7.06917">
        <ele>2788</ele>
        <time>2022-07-12T10:42:10Z</time>
      </trkpt>
      <trkpt lat="44.68088" lon="7.06922">
        <ele>2790</ele>
        <time>2022-07-12T10:42:18Z</time>
      </trkpt>
      <trkpt lat="44.68085" lon="7.06926">
        <ele>2794</ele>
        <time>2022-07-12T10:42:29Z</time>
      </trkpt>
      <trkpt lat="44.68082" lon="7.06928">
        <ele>2795</ele>
        <time>2022-07-12T10:42:37Z</time>
      </trkpt>
      <trkpt lat="44.68079" lon="7.06928">
        <ele>2796</ele>
        <time>2022-07-12T10:42:45Z</time>
      </trkpt>
      <trkpt lat="44.68077" lon="7.06933">
        <ele>2796</ele>
        <time>2022-07-12T10:42:50Z</time>
      </trkpt>
      <trkpt lat="44.68075" lon="7.06929">
        <ele>2796</ele>
        <time>2022-07-12T10:42:58Z</time>
      </trkpt>
      <trkpt lat="44.68073" lon="7.06933">
        <ele>2795</ele>
        <time>2022-07-12T10:43:11Z</time>
      </trkpt>
      <trkpt lat="44.68073" lon="7.06938">
        <ele>2798</ele>
        <time>2022-07-12T10:43:20Z</time>
      </trkpt>
      <trkpt lat="44.68071" lon="7.06943">
        <ele>2799</ele>
        <time>2022-07-12T10:43:28Z</time>
      </trkpt>
      <trkpt lat="44.68068" lon="7.06946">
        <ele>2801</ele>
        <time>2022-07-12T10:43:39Z</time>
      </trkpt>
      <trkpt lat="44.68062" lon="7.06953">
        <ele>2806</ele>
        <time>2022-07-12T10:43:57Z</time>
      </trkpt>
      <trkpt lat="44.68059" lon="7.06956">
        <ele>2807</ele>
        <time>2022-07-12T10:44:05Z</time>
      </trkpt>
      <trkpt lat="44.68056" lon="7.0696">
        <ele>2808</ele>
        <time>2022-07-12T10:44:11Z</time>
      </trkpt>
      <trkpt lat="44.68053" lon="7.06961">
        <ele>2808</ele>
        <time>2022-07-12T10:44:16Z</time>
      </trkpt>
      <trkpt lat="44.68044" lon="7.06969">
        <ele>2808</ele>
        <time>2022-07-12T10:44:35Z</time>
      </trkpt>
      <trkpt lat="44.68041" lon="7.06973">
        <ele>2808</ele>
        <time>2022-07-12T10:44:41Z</time>
      </trkpt>
      <trkpt lat="44.68039" lon="7.06977">
        <ele>2809</ele>
        <time>2022-07-12T10:44:46Z</time>
      </trkpt>
      <trkpt lat="44.68035" lon="7.06978">
        <ele>2809</ele>
        <time>2022-07-12T10:44:52Z</time>
      </trkpt>
      <trkpt lat="44.68031" lon="7.06977">
        <ele>2810</ele>
        <time>2022-07-12T10:44:59Z</time>
      </trkpt>
      <trkpt lat="44.68028" lon="7.06977">
        <ele>2809</ele>
        <time>2022-07-12T10:45:05Z</time>
      </trkpt>
      <trkpt lat="44.68022" lon="7.06985">
        <ele>2810</ele>
        <time>2022-07-12T10:45:16Z</time>
      </trkpt>
      <trkpt lat="44.68021" lon="7.06994">
        <ele>2812</ele>
        <time>2022-07-12T10:45:26Z</time>
      </trkpt>
      <trkpt lat="44.68019" lon="7.06999">
        <ele>2813</ele>
        <time>2022-07-12T10:45:31Z</time>
      </trkpt>
      <trkpt lat="44.68009" lon="7.07005">
        <ele>2816</ele>
        <time>2022-07-12T10:45:49Z</time>
      </trkpt>
      <trkpt lat="44.68006" lon="7.07002">
        <ele>2817</ele>
        <time>2022-07-12T10:45:55Z</time>
      </trkpt>
      <trkpt lat="44.68003" lon="7.07005">
        <ele>2818</ele>
        <time>2022-07-12T10:46:01Z</time>
      </trkpt>
      <trkpt lat="44.67998" lon="7.07012">
        <ele>2819</ele>
        <time>2022-07-12T10:46:11Z</time>
      </trkpt>
      <trkpt lat="44.67985" lon="7.07021">
        <ele>2817</ele>
        <time>2022-07-12T10:46:32Z</time>
      </trkpt>
      <trkpt lat="44.67979" lon="7.07028">
        <ele>2817</ele>
        <time>2022-07-12T10:46:42Z</time>
      </trkpt>
      <trkpt lat="44.67989" lon="7.07034">
        <ele>2818</ele>
        <time>2022-07-12T10:47:16Z</time>
      </trkpt>
      <trkpt lat="44.67992" lon="7.0703">
        <ele>2819</ele>
        <time>2022-07-12T10:47:32Z</time>
      </trkpt>
      <trkpt lat="44.67989" lon="7.07026">
        <ele>2819</ele>
        <time>2022-07-12T10:47:38Z</time>
      </trkpt>
      <trkpt lat="44.67985" lon="7.07024">
        <ele>2818</ele>
        <time>2022-07-12T10:47:43Z</time>
      </trkpt>
      <trkpt lat="44.67982" lon="7.07022">
        <ele>2815</ele>
        <time>2022-07-12T10:47:47Z</time>
      </trkpt>
      <trkpt lat="44.6798" lon="7.07025">
        <ele>2817</ele>
        <time>2022-07-12T10:48:27Z</time>
      </trkpt>
      <trkpt lat="44.67976" lon="7.07023">
        <ele>2820</ele>
        <time>2022-07-12T10:48:36Z</time>
      </trkpt>
      <trkpt lat="44.67976" lon="7.07018">
        <ele>2820</ele>
        <time>2022-07-12T10:48:39Z</time>
      </trkpt>
      <trkpt lat="44.67966" lon="7.07007">
        <ele>2820</ele>
        <time>2022-07-12T10:48:52Z</time>
      </trkpt>
      <trkpt lat="44.67964" lon="7.07004">
        <ele>2819</ele>
        <time>2022-07-12T10:48:56Z</time>
      </trkpt>
      <trkpt lat="44.67963" lon="7.06999">
        <ele>2820</ele>
        <time>2022-07-12T10:49:00Z</time>
      </trkpt>
      <trkpt lat="44.67959" lon="7.0699">
        <ele>2820</ele>
        <time>2022-07-12T10:49:08Z</time>
      </trkpt>
      <trkpt lat="44.67957" lon="7.06985">
        <ele>2821</ele>
        <time>2022-07-12T10:49:12Z</time>
      </trkpt>
      <trkpt lat="44.67955" lon="7.06983">
        <ele>2824</ele>
        <time>2022-07-12T10:49:59Z</time>
      </trkpt>
      <trkpt lat="44.67951" lon="7.06975">
        <ele>2825</ele>
        <time>2022-07-12T10:50:17Z</time>
      </trkpt>
      <trkpt lat="44.67944" lon="7.06971">
        <ele>2823</ele>
        <time>2022-07-12T10:50:25Z</time>
      </trkpt>
      <trkpt lat="44.6794" lon="7.0697">
        <ele>2822</ele>
        <time>2022-07-12T10:50:29Z</time>
      </trkpt>
      <trkpt lat="44.67937" lon="7.06967">
        <ele>2821</ele>
        <time>2022-07-12T10:50:34Z</time>
      </trkpt>
      <trkpt lat="44.67933" lon="7.06967">
        <ele>2819</ele>
        <time>2022-07-12T10:50:38Z</time>
      </trkpt>
      <trkpt lat="44.67929" lon="7.06965">
        <ele>2819</ele>
        <time>2022-07-12T10:50:42Z</time>
      </trkpt>
      <trkpt lat="44.67927" lon="7.06961">
        <ele>2818</ele>
        <time>2022-07-12T10:50:46Z</time>
      </trkpt>
      <trkpt lat="44.67924" lon="7.06957">
        <ele>2818</ele>
        <time>2022-07-12T10:50:51Z</time>
      </trkpt>
      <trkpt lat="44.6792" lon="7.06948">
        <ele>2818</ele>
        <time>2022-07-12T10:51:10Z</time>
      </trkpt>
      <trkpt lat="44.67922" lon="7.06943">
        <ele>2823</ele>
        <time>2022-07-12T10:51:50Z</time>
      </trkpt>
      <trkpt lat="44.67925" lon="7.06941">
        <ele>2823</ele>
        <time>2022-07-12T10:51:55Z</time>
      </trkpt>
      <trkpt lat="44.67929" lon="7.06943">
        <ele>2825</ele>
        <time>2022-07-12T10:52:00Z</time>
      </trkpt>
      <trkpt lat="44.67932" lon="7.06945">
        <ele>2825</ele>
        <time>2022-07-12T10:52:06Z</time>
      </trkpt>
      <trkpt lat="44.67933" lon="7.0694">
        <ele>2826</ele>
        <time>2022-07-12T10:52:12Z</time>
      </trkpt>
      <trkpt lat="44.67935" lon="7.06935">
        <ele>2827</ele>
        <time>2022-07-12T10:52:18Z</time>
      </trkpt>
      <trkpt lat="44.67937" lon="7.06931">
        <ele>2828</ele>
        <time>2022-07-12T10:52:24Z</time>
      </trkpt>
      <trkpt lat="44.67944" lon="7.06935">
        <ele>2831</ele>
        <time>2022-07-12T10:52:36Z</time>
      </trkpt>
      <trkpt lat="44.67945" lon="7.0693">
        <ele>2832</ele>
        <time>2022-07-12T10:52:43Z</time>
      </trkpt>
      <trkpt lat="44.67942" lon="7.06926">
        <ele>2832</ele>
        <time>2022-07-12T10:52:47Z</time>
      </trkpt>
      <trkpt lat="44.67934" lon="7.06916">
        <ele>2827</ele>
        <time>2022-07-12T10:53:02Z</time>
      </trkpt>
      <trkpt lat="44.67931" lon="7.06913">
        <ele>2827</ele>
        <time>2022-07-12T10:53:07Z</time>
      </trkpt>
      <trkpt lat="44.67928" lon="7.0691">
        <ele>2827</ele>
        <time>2022-07-12T10:53:11Z</time>
      </trkpt>
      <trkpt lat="44.6792" lon="7.06891">
        <ele>2829</ele>
        <time>2022-07-12T10:53:29Z</time>
      </trkpt>
      <trkpt lat="44.67917" lon="7.06892">
        <ele>2830</ele>
        <time>2022-07-12T10:56:08Z</time>
      </trkpt>
      <trkpt lat="44.67915" lon="7.06888">
        <ele>2830</ele>
        <time>2022-07-12T10:56:13Z</time>
      </trkpt>
      <trkpt lat="44.67913" lon="7.06884">
        <ele>2829</ele>
        <time>2022-07-12T10:56:19Z</time>
      </trkpt>
      <trkpt lat="44.67907" lon="7.06878">
        <ele>2827</ele>
        <time>2022-07-12T10:56:33Z</time>
      </trkpt>
      <trkpt lat="44.67905" lon="7.06873">
        <ele>2826</ele>
        <time>2022-07-12T10:56:39Z</time>
      </trkpt>
      <trkpt lat="44.67902" lon="7.06871">
        <ele>2824</ele>
        <time>2022-07-12T10:56:48Z</time>
      </trkpt>
      <trkpt lat="44.67897" lon="7.06865">
        <ele>2821</ele>
        <time>2022-07-12T10:57:05Z</time>
      </trkpt>
      <trkpt lat="44.67893" lon="7.06863">
        <ele>2820</ele>
        <time>2022-07-12T10:57:11Z</time>
      </trkpt>
      <trkpt lat="44.67886" lon="7.0686">
        <ele>2817</ele>
        <time>2022-07-12T10:57:29Z</time>
      </trkpt>
      <trkpt lat="44.67882" lon="7.06858">
        <ele>2815</ele>
        <time>2022-07-12T10:57:36Z</time>
      </trkpt>
      <trkpt lat="44.67881" lon="7.06854">
        <ele>2815</ele>
        <time>2022-07-12T10:57:42Z</time>
      </trkpt>
      <trkpt lat="44.67878" lon="7.0685">
        <ele>2813</ele>
        <time>2022-07-12T10:57:48Z</time>
      </trkpt>
      <trkpt lat="44.67876" lon="7.06846">
        <ele>2813</ele>
        <time>2022-07-12T10:57:55Z</time>
      </trkpt>
      <trkpt lat="44.67873" lon="7.06843">
        <ele>2811</ele>
        <time>2022-07-12T10:58:01Z</time>
      </trkpt>
      <trkpt lat="44.6787" lon="7.0684">
        <ele>2811</ele>
        <time>2022-07-12T10:58:09Z</time>
      </trkpt>
      <trkpt lat="44.67867" lon="7.06842">
        <ele>2809</ele>
        <time>2022-07-12T10:58:14Z</time>
      </trkpt>
      <trkpt lat="44.67863" lon="7.06841">
        <ele>2808</ele>
        <time>2022-07-12T10:58:23Z</time>
      </trkpt>
      <trkpt lat="44.6786" lon="7.06839">
        <ele>2805</ele>
        <time>2022-07-12T10:58:29Z</time>
      </trkpt>
      <trkpt lat="44.67854" lon="7.06843">
        <ele>2804</ele>
        <time>2022-07-12T10:58:41Z</time>
      </trkpt>
      <trkpt lat="44.6785" lon="7.06842">
        <ele>2803</ele>
        <time>2022-07-12T10:58:47Z</time>
      </trkpt>
      <trkpt lat="44.67846" lon="7.06841">
        <ele>2802</ele>
        <time>2022-07-12T10:59:04Z</time>
      </trkpt>
      <trkpt lat="44.67843" lon="7.06843">
        <ele>2801</ele>
        <time>2022-07-12T10:59:10Z</time>
      </trkpt>
      <trkpt lat="44.67832" lon="7.06841">
        <ele>2798</ele>
        <time>2022-07-12T10:59:29Z</time>
      </trkpt>
      <trkpt lat="44.67828" lon="7.0684">
        <ele>2797</ele>
        <time>2022-07-12T10:59:34Z</time>
      </trkpt>
      <trkpt lat="44.67825" lon="7.06841">
        <ele>2796</ele>
        <time>2022-07-12T10:59:38Z</time>
      </trkpt>
      <trkpt lat="44.67817" lon="7.06842">
        <ele>2794</ele>
        <time>2022-07-12T10:59:58Z</time>
      </trkpt>
      <trkpt lat="44.67814" lon="7.0684">
        <ele>2792</ele>
        <time>2022-07-12T11:00:03Z</time>
      </trkpt>
      <trkpt lat="44.6781" lon="7.06839">
        <ele>2792</ele>
        <time>2022-07-12T11:00:09Z</time>
      </trkpt>
      <trkpt lat="44.67807" lon="7.06835">
        <ele>2792</ele>
        <time>2022-07-12T11:00:13Z</time>
      </trkpt>
      <trkpt lat="44.67803" lon="7.06833">
        <ele>2793</ele>
        <time>2022-07-12T11:00:20Z</time>
      </trkpt>
      <trkpt lat="44.67784" lon="7.06838">
        <ele>2793</ele>
        <time>2022-07-12T11:00:45Z</time>
      </trkpt>
      <trkpt lat="44.6778" lon="7.06838">
        <ele>2792</ele>
        <time>2022-07-12T11:00:50Z</time>
      </trkpt>
      <trkpt lat="44.67777" lon="7.06838">
        <ele>2791</ele>
        <time>2022-07-12T11:00:55Z</time>
      </trkpt>
      <trkpt lat="44.67766" lon="7.06834">
        <ele>2791</ele>
        <time>2022-07-12T11:01:13Z</time>
      </trkpt>
      <trkpt lat="44.67762" lon="7.06835">
        <ele>2791</ele>
        <time>2022-07-12T11:01:18Z</time>
      </trkpt>
      <trkpt lat="44.67758" lon="7.06835">
        <ele>2790</ele>
        <time>2022-07-12T11:01:22Z</time>
      </trkpt>
      <trkpt lat="44.67755" lon="7.06832">
        <ele>2790</ele>
        <time>2022-07-12T11:01:26Z</time>
      </trkpt>
      <trkpt lat="44.67741" lon="7.06829">
        <ele>2788</ele>
        <time>2022-07-12T11:01:43Z</time>
      </trkpt>
      <trkpt lat="44.67737" lon="7.06828">
        <ele>2787</ele>
        <time>2022-07-12T11:01:47Z</time>
      </trkpt>
      <trkpt lat="44.67726" lon="7.06828">
        <ele>2783</ele>
        <time>2022-07-12T11:02:02Z</time>
      </trkpt>
      <trkpt lat="44.67715" lon="7.06829">
        <ele>2781</ele>
        <time>2022-07-12T11:02:16Z</time>
      </trkpt>
      <trkpt lat="44.67712" lon="7.06831">
        <ele>2781</ele>
        <time>2022-07-12T11:02:22Z</time>
      </trkpt>
      <trkpt lat="44.67704" lon="7.06829">
        <ele>2777</ele>
        <time>2022-07-12T11:02:33Z</time>
      </trkpt>
      <trkpt lat="44.67699" lon="7.06831">
        <ele>2777</ele>
        <time>2022-07-12T11:02:43Z</time>
      </trkpt>
      <trkpt lat="44.67696" lon="7.06829">
        <ele>2775</ele>
        <time>2022-07-12T11:02:50Z</time>
      </trkpt>
      <trkpt lat="44.67693" lon="7.06831">
        <ele>2774</ele>
        <time>2022-07-12T11:02:56Z</time>
      </trkpt>
      <trkpt lat="44.67689" lon="7.06834">
        <ele>2771</ele>
        <time>2022-07-12T11:03:01Z</time>
      </trkpt>
      <trkpt lat="44.67685" lon="7.06834">
        <ele>2770</ele>
        <time>2022-07-12T11:03:06Z</time>
      </trkpt>
      <trkpt lat="44.67682" lon="7.06834">
        <ele>2768</ele>
        <time>2022-07-12T11:03:11Z</time>
      </trkpt>
      <trkpt lat="44.67678" lon="7.06834">
        <ele>2767</ele>
        <time>2022-07-12T11:03:16Z</time>
      </trkpt>
      <trkpt lat="44.67668" lon="7.06836">
        <ele>2764</ele>
        <time>2022-07-12T11:03:33Z</time>
      </trkpt>
      <trkpt lat="44.67657" lon="7.06838">
        <ele>2762</ele>
        <time>2022-07-12T11:03:48Z</time>
      </trkpt>
      <trkpt lat="44.67656" lon="7.06843">
        <ele>2760</ele>
        <time>2022-07-12T11:03:59Z</time>
      </trkpt>
      <trkpt lat="44.67659" lon="7.06846">
        <ele>2760</ele>
        <time>2022-07-12T11:04:06Z</time>
      </trkpt>
      <trkpt lat="44.67661" lon="7.0685">
        <ele>2759</ele>
        <time>2022-07-12T11:04:12Z</time>
      </trkpt>
      <trkpt lat="44.67664" lon="7.06853">
        <ele>2759</ele>
        <time>2022-07-12T11:04:17Z</time>
      </trkpt>
      <trkpt lat="44.67668" lon="7.06852">
        <ele>2758</ele>
        <time>2022-07-12T11:04:23Z</time>
      </trkpt>
      <trkpt lat="44.67679" lon="7.06856">
        <ele>2757</ele>
        <time>2022-07-12T11:04:40Z</time>
      </trkpt>
      <trkpt lat="44.6768" lon="7.06861">
        <ele>2758</ele>
        <time>2022-07-12T11:04:51Z</time>
      </trkpt>
      <trkpt lat="44.67672" lon="7.06863">
        <ele>2756</ele>
        <time>2022-07-12T11:05:03Z</time>
      </trkpt>
      <trkpt lat="44.67669" lon="7.06865">
        <ele>2755</ele>
        <time>2022-07-12T11:05:08Z</time>
      </trkpt>
      <trkpt lat="44.67666" lon="7.06867">
        <ele>2752</ele>
        <time>2022-07-12T11:05:13Z</time>
      </trkpt>
      <trkpt lat="44.67662" lon="7.06869">
        <ele>2751</ele>
        <time>2022-07-12T11:05:17Z</time>
      </trkpt>
      <trkpt lat="44.67659" lon="7.0687">
        <ele>2750</ele>
        <time>2022-07-12T11:05:23Z</time>
      </trkpt>
      <trkpt lat="44.67651" lon="7.06868">
        <ele>2749</ele>
        <time>2022-07-12T11:05:33Z</time>
      </trkpt>
      <trkpt lat="44.67644" lon="7.06868">
        <ele>2747</ele>
        <time>2022-07-12T11:05:43Z</time>
      </trkpt>
      <trkpt lat="44.67636" lon="7.06869">
        <ele>2745</ele>
        <time>2022-07-12T11:05:53Z</time>
      </trkpt>
      <trkpt lat="44.67633" lon="7.06869">
        <ele>2745</ele>
        <time>2022-07-12T11:05:58Z</time>
      </trkpt>
      <trkpt lat="44.67629" lon="7.06869">
        <ele>2743</ele>
        <time>2022-07-12T11:06:05Z</time>
      </trkpt>
      <trkpt lat="44.67625" lon="7.06869">
        <ele>2743</ele>
        <time>2022-07-12T11:06:10Z</time>
      </trkpt>
      <trkpt lat="44.67622" lon="7.06867">
        <ele>2741</ele>
        <time>2022-07-12T11:06:15Z</time>
      </trkpt>
      <trkpt lat="44.67618" lon="7.06865">
        <ele>2741</ele>
        <time>2022-07-12T11:06:20Z</time>
      </trkpt>
      <trkpt lat="44.67615" lon="7.06863">
        <ele>2741</ele>
        <time>2022-07-12T11:06:25Z</time>
      </trkpt>
      <trkpt lat="44.67606" lon="7.06857">
        <ele>2740</ele>
        <time>2022-07-12T11:06:37Z</time>
      </trkpt>
      <trkpt lat="44.67592" lon="7.0684">
        <ele>2737</ele>
        <time>2022-07-12T11:07:02Z</time>
      </trkpt>
      <trkpt lat="44.67576" lon="7.06827">
        <ele>2732</ele>
        <time>2022-07-12T11:07:27Z</time>
      </trkpt>
      <trkpt lat="44.67568" lon="7.06821">
        <ele>2728</ele>
        <time>2022-07-12T11:07:41Z</time>
      </trkpt>
      <trkpt lat="44.67559" lon="7.06819">
        <ele>2727</ele>
        <time>2022-07-12T11:07:54Z</time>
      </trkpt>
      <trkpt lat="44.67551" lon="7.06811">
        <ele>2723</ele>
        <time>2022-07-12T11:08:11Z</time>
      </trkpt>
      <trkpt lat="44.67543" lon="7.06804">
        <ele>2722</ele>
        <time>2022-07-12T11:08:22Z</time>
      </trkpt>
      <trkpt lat="44.67535" lon="7.068">
        <ele>2721</ele>
        <time>2022-07-12T11:08:37Z</time>
      </trkpt>
      <trkpt lat="44.67531" lon="7.06802">
        <ele>2721</ele>
        <time>2022-07-12T11:08:43Z</time>
      </trkpt>
      <trkpt lat="44.67528" lon="7.06803">
        <ele>2720</ele>
        <time>2022-07-12T11:08:51Z</time>
      </trkpt>
      <trkpt lat="44.67525" lon="7.06799">
        <ele>2719</ele>
        <time>2022-07-12T11:08:55Z</time>
      </trkpt>
      <trkpt lat="44.67523" lon="7.06795">
        <ele>2718</ele>
        <time>2022-07-12T11:09:00Z</time>
      </trkpt>
      <trkpt lat="44.6752" lon="7.06794">
        <ele>2718</ele>
        <time>2022-07-12T11:09:03Z</time>
      </trkpt>
      <trkpt lat="44.67516" lon="7.06791">
        <ele>2718</ele>
        <time>2022-07-12T11:09:08Z</time>
      </trkpt>
      <trkpt lat="44.67515" lon="7.06785">
        <ele>2718</ele>
        <time>2022-07-12T11:09:13Z</time>
      </trkpt>
      <trkpt lat="44.67515" lon="7.0678">
        <ele>2718</ele>
        <time>2022-07-12T11:09:21Z</time>
      </trkpt>
      <trkpt lat="44.67515" lon="7.06775">
        <ele>2718</ele>
        <time>2022-07-12T11:09:25Z</time>
      </trkpt>
      <trkpt lat="44.67508" lon="7.06774">
        <ele>2716</ele>
        <time>2022-07-12T11:09:35Z</time>
      </trkpt>
      <trkpt lat="44.67504" lon="7.06772">
        <ele>2716</ele>
        <time>2022-07-12T11:09:42Z</time>
      </trkpt>
      <trkpt lat="44.67497" lon="7.06764">
        <ele>2715</ele>
        <time>2022-07-12T11:09:56Z</time>
      </trkpt>
      <trkpt lat="44.6749" lon="7.06756">
        <ele>2711</ele>
        <time>2022-07-12T11:10:11Z</time>
      </trkpt>
      <trkpt lat="44.67482" lon="7.06748">
        <ele>2709</ele>
        <time>2022-07-12T11:10:25Z</time>
      </trkpt>
      <trkpt lat="44.67478" lon="7.06751">
        <ele>2707</ele>
        <time>2022-07-12T11:10:55Z</time>
      </trkpt>
      <trkpt lat="44.67483" lon="7.06762">
        <ele>2707</ele>
        <time>2022-07-12T11:11:09Z</time>
      </trkpt>
      <trkpt lat="44.67488" lon="7.06773">
        <ele>2704</ele>
        <time>2022-07-12T11:11:20Z</time>
      </trkpt>
      <trkpt lat="44.67479" lon="7.0678">
        <ele>2701</ele>
        <time>2022-07-12T11:11:46Z</time>
      </trkpt>
      <trkpt lat="44.67478" lon="7.06793">
        <ele>2694</ele>
        <time>2022-07-12T11:12:05Z</time>
      </trkpt>
      <trkpt lat="44.67475" lon="7.06805">
        <ele>2691</ele>
        <time>2022-07-12T11:12:22Z</time>
      </trkpt>
      <trkpt lat="44.67466" lon="7.0681">
        <ele>2689</ele>
        <time>2022-07-12T11:12:52Z</time>
      </trkpt>
      <trkpt lat="44.67457" lon="7.0681">
        <ele>2686</ele>
        <time>2022-07-12T11:13:05Z</time>
      </trkpt>
      <trkpt lat="44.6744" lon="7.06801">
        <ele>2686</ele>
        <time>2022-07-12T11:13:30Z</time>
      </trkpt>
      <trkpt lat="44.67435" lon="7.06801">
        <ele>2686</ele>
        <time>2022-07-12T11:13:40Z</time>
      </trkpt>
      <trkpt lat="44.67432" lon="7.068">
        <ele>2685</ele>
        <time>2022-07-12T11:13:46Z</time>
      </trkpt>
      <trkpt lat="44.67429" lon="7.06796">
        <ele>2683</ele>
        <time>2022-07-12T11:13:52Z</time>
      </trkpt>
      <trkpt lat="44.67426" lon="7.06795">
        <ele>2683</ele>
        <time>2022-07-12T11:13:58Z</time>
      </trkpt>
      <trkpt lat="44.67424" lon="7.0679">
        <ele>2683</ele>
        <time>2022-07-12T11:14:04Z</time>
      </trkpt>
      <trkpt lat="44.67421" lon="7.06791">
        <ele>2681</ele>
        <time>2022-07-12T11:14:11Z</time>
      </trkpt>
      <trkpt lat="44.67419" lon="7.06787">
        <ele>2681</ele>
        <time>2022-07-12T11:14:17Z</time>
      </trkpt>
      <trkpt lat="44.67417" lon="7.06782">
        <ele>2680</ele>
        <time>2022-07-12T11:14:25Z</time>
      </trkpt>
      <trkpt lat="44.67414" lon="7.06783">
        <ele>2679</ele>
        <time>2022-07-12T11:14:32Z</time>
      </trkpt>
      <trkpt lat="44.67413" lon="7.06788">
        <ele>2679</ele>
        <time>2022-07-12T11:14:41Z</time>
      </trkpt>
      <trkpt lat="44.6741" lon="7.06788">
        <ele>2679</ele>
        <time>2022-07-12T11:14:49Z</time>
      </trkpt>
      <trkpt lat="44.67407" lon="7.06792">
        <ele>2679</ele>
        <time>2022-07-12T11:14:58Z</time>
      </trkpt>
      <trkpt lat="44.67403" lon="7.06792">
        <ele>2679</ele>
        <time>2022-07-12T11:15:07Z</time>
      </trkpt>
      <trkpt lat="44.674" lon="7.06792">
        <ele>2679</ele>
        <time>2022-07-12T11:15:12Z</time>
      </trkpt>
      <trkpt lat="44.67397" lon="7.06794">
        <ele>2678</ele>
        <time>2022-07-12T11:15:17Z</time>
      </trkpt>
      <trkpt lat="44.67393" lon="7.06795">
        <ele>2677</ele>
        <time>2022-07-12T11:15:21Z</time>
      </trkpt>
      <trkpt lat="44.6739" lon="7.06795">
        <ele>2676</ele>
        <time>2022-07-12T11:15:26Z</time>
      </trkpt>
      <trkpt lat="44.67387" lon="7.06792">
        <ele>2675</ele>
        <time>2022-07-12T11:24:14Z</time>
      </trkpt>
      <trkpt lat="44.6739" lon="7.06789">
        <ele>2676</ele>
        <time>2022-07-12T11:44:44Z</time>
      </trkpt>
      <trkpt lat="44.67393" lon="7.06785">
        <ele>2677</ele>
        <time>2022-07-12T11:44:48Z</time>
      </trkpt>
      <trkpt lat="44.67399" lon="7.0678">
        <ele>2678</ele>
        <time>2022-07-12T11:44:57Z</time>
      </trkpt>
      <trkpt lat="44.67403" lon="7.06778">
        <ele>2678</ele>
        <time>2022-07-12T11:45:08Z</time>
      </trkpt>
      <trkpt lat="44.67403" lon="7.06772">
        <ele>2677</ele>
        <time>2022-07-12T11:45:23Z</time>
      </trkpt>
      <trkpt lat="44.67401" lon="7.06768">
        <ele>2673</ele>
        <time>2022-07-12T11:45:35Z</time>
      </trkpt>
      <trkpt lat="44.67399" lon="7.06764">
        <ele>2672</ele>
        <time>2022-07-12T11:45:42Z</time>
      </trkpt>
      <trkpt lat="44.67401" lon="7.0676">
        <ele>2671</ele>
        <time>2022-07-12T11:45:46Z</time>
      </trkpt>
      <trkpt lat="44.67401" lon="7.06754">
        <ele>2670</ele>
        <time>2022-07-12T11:45:52Z</time>
      </trkpt>
      <trkpt lat="44.67408" lon="7.06755">
        <ele>2667</ele>
        <time>2022-07-12T11:46:07Z</time>
      </trkpt>
      <trkpt lat="44.67412" lon="7.06755">
        <ele>2667</ele>
        <time>2022-07-12T11:46:15Z</time>
      </trkpt>
      <trkpt lat="44.67412" lon="7.0675">
        <ele>2665</ele>
        <time>2022-07-12T11:46:33Z</time>
      </trkpt>
      <trkpt lat="44.67409" lon="7.06748">
        <ele>2664</ele>
        <time>2022-07-12T11:46:41Z</time>
      </trkpt>
      <trkpt lat="44.67409" lon="7.06743">
        <ele>2664</ele>
        <time>2022-07-12T11:46:47Z</time>
      </trkpt>
      <trkpt lat="44.6741" lon="7.06739">
        <ele>2662</ele>
        <time>2022-07-12T11:46:59Z</time>
      </trkpt>
      <trkpt lat="44.67411" lon="7.06733">
        <ele>2662</ele>
        <time>2022-07-12T11:47:25Z</time>
      </trkpt>
      <trkpt lat="44.67411" lon="7.06729">
        <ele>2662</ele>
        <time>2022-07-12T11:47:35Z</time>
      </trkpt>
      <trkpt lat="44.67411" lon="7.06724">
        <ele>2661</ele>
        <time>2022-07-12T11:47:42Z</time>
      </trkpt>
      <trkpt lat="44.6741" lon="7.06719">
        <ele>2661</ele>
        <time>2022-07-12T11:47:48Z</time>
      </trkpt>
      <trkpt lat="44.67407" lon="7.06715">
        <ele>2661</ele>
        <time>2022-07-12T11:47:56Z</time>
      </trkpt>
      <trkpt lat="44.67405" lon="7.06711">
        <ele>2661</ele>
        <time>2022-07-12T11:48:04Z</time>
      </trkpt>
      <trkpt lat="44.67401" lon="7.06709">
        <ele>2661</ele>
        <time>2022-07-12T11:48:12Z</time>
      </trkpt>
      <trkpt lat="44.674" lon="7.06705">
        <ele>2659</ele>
        <time>2022-07-12T11:48:19Z</time>
      </trkpt>
      <trkpt lat="44.67395" lon="7.06697">
        <ele>2661</ele>
        <time>2022-07-12T11:49:10Z</time>
      </trkpt>
      <trkpt lat="44.67394" lon="7.06692">
        <ele>2662</ele>
        <time>2022-07-12T11:49:21Z</time>
      </trkpt>
      <trkpt lat="44.67391" lon="7.06688">
        <ele>2664</ele>
        <time>2022-07-12T11:49:43Z</time>
      </trkpt>
      <trkpt lat="44.67387" lon="7.06686">
        <ele>2665</ele>
        <time>2022-07-12T11:50:11Z</time>
      </trkpt>
      <trkpt lat="44.67384" lon="7.06685">
        <ele>2664</ele>
        <time>2022-07-12T11:50:43Z</time>
      </trkpt>
      <trkpt lat="44.67381" lon="7.06683">
        <ele>2662</ele>
        <time>2022-07-12T11:50:59Z</time>
      </trkpt>
      <trkpt lat="44.67377" lon="7.06682">
        <ele>2659</ele>
        <time>2022-07-12T11:51:06Z</time>
      </trkpt>
      <trkpt lat="44.67374" lon="7.06683">
        <ele>2658</ele>
        <time>2022-07-12T11:51:13Z</time>
      </trkpt>
      <trkpt lat="44.67371" lon="7.0668">
        <ele>2656</ele>
        <time>2022-07-12T11:51:21Z</time>
      </trkpt>
      <trkpt lat="44.67369" lon="7.06682">
        <ele>2654</ele>
        <time>2022-07-12T11:52:53Z</time>
      </trkpt>
      <trkpt lat="44.67369" lon="7.06688">
        <ele>2653</ele>
        <time>2022-07-12T11:53:01Z</time>
      </trkpt>
      <trkpt lat="44.67365" lon="7.06687">
        <ele>2651</ele>
        <time>2022-07-12T11:53:15Z</time>
      </trkpt>
      <trkpt lat="44.67362" lon="7.06683">
        <ele>2651</ele>
        <time>2022-07-12T11:53:20Z</time>
      </trkpt>
      <trkpt lat="44.67359" lon="7.06683">
        <ele>2651</ele>
        <time>2022-07-12T11:53:27Z</time>
      </trkpt>
      <trkpt lat="44.67356" lon="7.06681">
        <ele>2650</ele>
        <time>2022-07-12T11:53:36Z</time>
      </trkpt>
      <trkpt lat="44.67354" lon="7.06677">
        <ele>2649</ele>
        <time>2022-07-12T11:53:43Z</time>
      </trkpt>
      <trkpt lat="44.67351" lon="7.06674">
        <ele>2647</ele>
        <time>2022-07-12T11:53:59Z</time>
      </trkpt>
      <trkpt lat="44.67343" lon="7.06662">
        <ele>2642</ele>
        <time>2022-07-12T11:54:22Z</time>
      </trkpt>
      <trkpt lat="44.67337" lon="7.06657">
        <ele>2642</ele>
        <time>2022-07-12T11:54:43Z</time>
      </trkpt>
      <trkpt lat="44.67334" lon="7.06654">
        <ele>2642</ele>
        <time>2022-07-12T11:54:50Z</time>
      </trkpt>
      <trkpt lat="44.67331" lon="7.06652">
        <ele>2641</ele>
        <time>2022-07-12T11:54:59Z</time>
      </trkpt>
      <trkpt lat="44.6733" lon="7.06657">
        <ele>2639</ele>
        <time>2022-07-12T11:55:23Z</time>
      </trkpt>
      <trkpt lat="44.67333" lon="7.06661">
        <ele>2638</ele>
        <time>2022-07-12T11:55:41Z</time>
      </trkpt>
      <trkpt lat="44.67336" lon="7.06663">
        <ele>2636</ele>
        <time>2022-07-12T11:55:47Z</time>
      </trkpt>
      <trkpt lat="44.67337" lon="7.06669">
        <ele>2635</ele>
        <time>2022-07-12T11:55:52Z</time>
      </trkpt>
      <trkpt lat="44.67336" lon="7.06674">
        <ele>2634</ele>
        <time>2022-07-12T11:55:59Z</time>
      </trkpt>
      <trkpt lat="44.67334" lon="7.06676">
        <ele>2631</ele>
        <time>2022-07-12T11:56:19Z</time>
      </trkpt>
      <trkpt lat="44.67331" lon="7.06674">
        <ele>2631</ele>
        <time>2022-07-12T11:56:24Z</time>
      </trkpt>
      <trkpt lat="44.67326" lon="7.06666">
        <ele>2629</ele>
        <time>2022-07-12T11:56:35Z</time>
      </trkpt>
      <trkpt lat="44.67319" lon="7.06661">
        <ele>2627</ele>
        <time>2022-07-12T11:56:48Z</time>
      </trkpt>
      <trkpt lat="44.67317" lon="7.06657">
        <ele>2627</ele>
        <time>2022-07-12T11:56:59Z</time>
      </trkpt>
      <trkpt lat="44.67313" lon="7.06649">
        <ele>2628</ele>
        <time>2022-07-12T11:57:09Z</time>
      </trkpt>
      <trkpt lat="44.67315" lon="7.06651">
        <ele>2628</ele>
        <time>2022-07-12T11:57:51Z</time>
      </trkpt>
      <trkpt lat="44.67316" lon="7.06651">
        <ele>2628</ele>
        <time>2022-07-12T11:58:36Z</time>
      </trkpt>
      <trkpt lat="44.67311" lon="7.06643">
        <ele>2628</ele>
        <time>2022-07-12T11:58:49Z</time>
      </trkpt>
      <trkpt lat="44.67309" lon="7.06639">
        <ele>2627</ele>
        <time>2022-07-12T11:58:54Z</time>
      </trkpt>
      <trkpt lat="44.67307" lon="7.0664">
        <ele>2621</ele>
        <time>2022-07-12T11:59:08Z</time>
      </trkpt>
      <trkpt lat="44.67314" lon="7.06661">
        <ele>2615</ele>
        <time>2022-07-12T11:59:27Z</time>
      </trkpt>
      <trkpt lat="44.6731" lon="7.06659">
        <ele>2616</ele>
        <time>2022-07-12T11:59:33Z</time>
      </trkpt>
      <trkpt lat="44.67308" lon="7.06655">
        <ele>2616</ele>
        <time>2022-07-12T11:59:36Z</time>
      </trkpt>
      <trkpt lat="44.67302" lon="7.06649">
        <ele>2615</ele>
        <time>2022-07-12T11:59:44Z</time>
      </trkpt>
      <trkpt lat="44.67301" lon="7.06651">
        <ele>2613</ele>
        <time>2022-07-12T11:59:52Z</time>
      </trkpt>
      <trkpt lat="44.67303" lon="7.06655">
        <ele>2613</ele>
        <time>2022-07-12T11:59:56Z</time>
      </trkpt>
      <trkpt lat="44.67304" lon="7.0666">
        <ele>2611</ele>
        <time>2022-07-12T12:00:00Z</time>
      </trkpt>
      <trkpt lat="44.67305" lon="7.06666">
        <ele>2610</ele>
        <time>2022-07-12T12:00:04Z</time>
      </trkpt>
      <trkpt lat="44.67301" lon="7.06667">
        <ele>2609</ele>
        <time>2022-07-12T12:00:08Z</time>
      </trkpt>
      <trkpt lat="44.67299" lon="7.06662">
        <ele>2609</ele>
        <time>2022-07-12T12:00:11Z</time>
      </trkpt>
      <trkpt lat="44.67294" lon="7.06656">
        <ele>2609</ele>
        <time>2022-07-12T12:00:23Z</time>
      </trkpt>
      <trkpt lat="44.67291" lon="7.06653">
        <ele>2608</ele>
        <time>2022-07-12T12:00:32Z</time>
      </trkpt>
      <trkpt lat="44.67289" lon="7.06648">
        <ele>2607</ele>
        <time>2022-07-12T12:00:39Z</time>
      </trkpt>
      <trkpt lat="44.67286" lon="7.06646">
        <ele>2605</ele>
        <time>2022-07-12T12:00:48Z</time>
      </trkpt>
      <trkpt lat="44.67285" lon="7.06641">
        <ele>2606</ele>
        <time>2022-07-12T12:00:54Z</time>
      </trkpt>
      <trkpt lat="44.67281" lon="7.06632">
        <ele>2605</ele>
        <time>2022-07-12T12:01:20Z</time>
      </trkpt>
      <trkpt lat="44.67279" lon="7.06628">
        <ele>2605</ele>
        <time>2022-07-12T12:01:25Z</time>
      </trkpt>
      <trkpt lat="44.67277" lon="7.06618">
        <ele>2605</ele>
        <time>2022-07-12T12:02:05Z</time>
      </trkpt>
      <trkpt lat="44.67275" lon="7.06627">
        <ele>2604</ele>
        <time>2022-07-12T12:02:40Z</time>
      </trkpt>
      <trkpt lat="44.67275" lon="7.06633">
        <ele>2601</ele>
        <time>2022-07-12T12:02:47Z</time>
      </trkpt>
      <trkpt lat="44.67275" lon="7.06638">
        <ele>2600</ele>
        <time>2022-07-12T12:02:53Z</time>
      </trkpt>
      <trkpt lat="44.67272" lon="7.06658">
        <ele>2597</ele>
        <time>2022-07-12T12:03:23Z</time>
      </trkpt>
      <trkpt lat="44.67271" lon="7.06663">
        <ele>2596</ele>
        <time>2022-07-12T12:03:30Z</time>
      </trkpt>
      <trkpt lat="44.67268" lon="7.06661">
        <ele>2596</ele>
        <time>2022-07-12T12:03:36Z</time>
      </trkpt>
      <trkpt lat="44.67263" lon="7.06654">
        <ele>2594</ele>
        <time>2022-07-12T12:03:46Z</time>
      </trkpt>
      <trkpt lat="44.67261" lon="7.0665">
        <ele>2594</ele>
        <time>2022-07-12T12:03:52Z</time>
      </trkpt>
      <trkpt lat="44.67256" lon="7.0663">
        <ele>2591</ele>
        <time>2022-07-12T12:04:24Z</time>
      </trkpt>
      <trkpt lat="44.67254" lon="7.06626">
        <ele>2591</ele>
        <time>2022-07-12T12:04:32Z</time>
      </trkpt>
      <trkpt lat="44.67252" lon="7.06631">
        <ele>2591</ele>
        <time>2022-07-12T12:04:58Z</time>
      </trkpt>
      <trkpt lat="44.6725" lon="7.06635">
        <ele>2589</ele>
        <time>2022-07-12T12:05:03Z</time>
      </trkpt>
      <trkpt lat="44.67246" lon="7.06633">
        <ele>2587</ele>
        <time>2022-07-12T12:05:19Z</time>
      </trkpt>
      <trkpt lat="44.67243" lon="7.06636">
        <ele>2586</ele>
        <time>2022-07-12T12:05:41Z</time>
      </trkpt>
      <trkpt lat="44.67243" lon="7.06642">
        <ele>2584</ele>
        <time>2022-07-12T12:06:22Z</time>
      </trkpt>
      <trkpt lat="44.67239" lon="7.06641">
        <ele>2583</ele>
        <time>2022-07-12T12:06:32Z</time>
      </trkpt>
      <trkpt lat="44.67238" lon="7.06636">
        <ele>2583</ele>
        <time>2022-07-12T12:06:48Z</time>
      </trkpt>
      <trkpt lat="44.67237" lon="7.06631">
        <ele>2580</ele>
        <time>2022-07-12T12:06:56Z</time>
      </trkpt>
      <trkpt lat="44.67234" lon="7.0663">
        <ele>2578</ele>
        <time>2022-07-12T12:07:03Z</time>
      </trkpt>
      <trkpt lat="44.67233" lon="7.06625">
        <ele>2577</ele>
        <time>2022-07-12T12:07:09Z</time>
      </trkpt>
      <trkpt lat="44.6723" lon="7.06623">
        <ele>2574</ele>
        <time>2022-07-12T12:07:18Z</time>
      </trkpt>
      <trkpt lat="44.67224" lon="7.06617">
        <ele>2573</ele>
        <time>2022-07-12T12:07:32Z</time>
      </trkpt>
      <trkpt lat="44.67221" lon="7.06614">
        <ele>2573</ele>
        <time>2022-07-12T12:07:37Z</time>
      </trkpt>
      <trkpt lat="44.67218" lon="7.06612">
        <ele>2571</ele>
        <time>2022-07-12T12:07:46Z</time>
      </trkpt>
      <trkpt lat="44.67214" lon="7.0661">
        <ele>2570</ele>
        <time>2022-07-12T12:07:55Z</time>
      </trkpt>
      <trkpt lat="44.67212" lon="7.06606">
        <ele>2568</ele>
        <time>2022-07-12T12:08:09Z</time>
      </trkpt>
      <trkpt lat="44.6721" lon="7.06602">
        <ele>2567</ele>
        <time>2022-07-12T12:08:15Z</time>
      </trkpt>
      <trkpt lat="44.67207" lon="7.066">
        <ele>2566</ele>
        <time>2022-07-12T12:08:23Z</time>
      </trkpt>
      <trkpt lat="44.67208" lon="7.06605">
        <ele>2565</ele>
        <time>2022-07-12T12:08:29Z</time>
      </trkpt>
      <trkpt lat="44.67207" lon="7.0661">
        <ele>2563</ele>
        <time>2022-07-12T12:08:37Z</time>
      </trkpt>
      <trkpt lat="44.67206" lon="7.06615">
        <ele>2561</ele>
        <time>2022-07-12T12:08:44Z</time>
      </trkpt>
      <trkpt lat="44.67207" lon="7.0662">
        <ele>2560</ele>
        <time>2022-07-12T12:08:50Z</time>
      </trkpt>
      <trkpt lat="44.67207" lon="7.06625">
        <ele>2559</ele>
        <time>2022-07-12T12:08:56Z</time>
      </trkpt>
      <trkpt lat="44.67203" lon="7.06627">
        <ele>2560</ele>
        <time>2022-07-12T12:09:07Z</time>
      </trkpt>
      <trkpt lat="44.67202" lon="7.06623">
        <ele>2559</ele>
        <time>2022-07-12T12:09:12Z</time>
      </trkpt>
      <trkpt lat="44.672" lon="7.06619">
        <ele>2559</ele>
        <time>2022-07-12T12:09:19Z</time>
      </trkpt>
      <trkpt lat="44.67196" lon="7.06616">
        <ele>2559</ele>
        <time>2022-07-12T12:09:23Z</time>
      </trkpt>
      <trkpt lat="44.6719" lon="7.06604">
        <ele>2559</ele>
        <time>2022-07-12T12:09:38Z</time>
      </trkpt>
      <trkpt lat="44.67188" lon="7.066">
        <ele>2559</ele>
        <time>2022-07-12T12:09:43Z</time>
      </trkpt>
      <trkpt lat="44.67187" lon="7.06596">
        <ele>2558</ele>
        <time>2022-07-12T12:09:48Z</time>
      </trkpt>
      <trkpt lat="44.67184" lon="7.06598">
        <ele>2557</ele>
        <time>2022-07-12T12:10:05Z</time>
      </trkpt>
      <trkpt lat="44.67182" lon="7.06603">
        <ele>2555</ele>
        <time>2022-07-12T12:10:11Z</time>
      </trkpt>
      <trkpt lat="44.6718" lon="7.06608">
        <ele>2553</ele>
        <time>2022-07-12T12:10:17Z</time>
      </trkpt>
      <trkpt lat="44.67178" lon="7.06612">
        <ele>2551</ele>
        <time>2022-07-12T12:10:22Z</time>
      </trkpt>
      <trkpt lat="44.6718" lon="7.06617">
        <ele>2549</ele>
        <time>2022-07-12T12:10:28Z</time>
      </trkpt>
      <trkpt lat="44.6718" lon="7.06622">
        <ele>2547</ele>
        <time>2022-07-12T12:10:33Z</time>
      </trkpt>
      <trkpt lat="44.67184" lon="7.06631">
        <ele>2546</ele>
        <time>2022-07-12T12:10:43Z</time>
      </trkpt>
      <trkpt lat="44.67184" lon="7.06636">
        <ele>2545</ele>
        <time>2022-07-12T12:10:48Z</time>
      </trkpt>
      <trkpt lat="44.67187" lon="7.0664">
        <ele>2544</ele>
        <time>2022-07-12T12:10:54Z</time>
      </trkpt>
      <trkpt lat="44.67191" lon="7.06644">
        <ele>2543</ele>
        <time>2022-07-12T12:11:01Z</time>
      </trkpt>
      <trkpt lat="44.67197" lon="7.0665">
        <ele>2540</ele>
        <time>2022-07-12T12:11:19Z</time>
      </trkpt>
      <trkpt lat="44.67197" lon="7.06655">
        <ele>2539</ele>
        <time>2022-07-12T12:11:26Z</time>
      </trkpt>
      <trkpt lat="44.67198" lon="7.0666">
        <ele>2538</ele>
        <time>2022-07-12T12:11:33Z</time>
      </trkpt>
      <trkpt lat="44.67201" lon="7.06663">
        <ele>2537</ele>
        <time>2022-07-12T12:11:46Z</time>
      </trkpt>
      <trkpt lat="44.67207" lon="7.0667">
        <ele>2537</ele>
        <time>2022-07-12T12:12:02Z</time>
      </trkpt>
      <trkpt lat="44.67209" lon="7.06691">
        <ele>2537</ele>
        <time>2022-07-12T12:12:31Z</time>
      </trkpt>
      <trkpt lat="44.6721" lon="7.06696">
        <ele>2536</ele>
        <time>2022-07-12T12:12:38Z</time>
      </trkpt>
      <trkpt lat="44.67208" lon="7.06701">
        <ele>2536</ele>
        <time>2022-07-12T12:12:48Z</time>
      </trkpt>
      <trkpt lat="44.67208" lon="7.06706">
        <ele>2534</ele>
        <time>2022-07-12T12:12:58Z</time>
      </trkpt>
      <trkpt lat="44.67206" lon="7.06711">
        <ele>2533</ele>
        <time>2022-07-12T12:13:05Z</time>
      </trkpt>
      <trkpt lat="44.67207" lon="7.06718">
        <ele>2532</ele>
        <time>2022-07-12T12:13:14Z</time>
      </trkpt>
      <trkpt lat="44.67207" lon="7.06723">
        <ele>2531</ele>
        <time>2022-07-12T12:13:19Z</time>
      </trkpt>
      <trkpt lat="44.67205" lon="7.06729">
        <ele>2529</ele>
        <time>2022-07-12T12:13:25Z</time>
      </trkpt>
      <trkpt lat="44.67202" lon="7.06726">
        <ele>2527</ele>
        <time>2022-07-12T12:13:33Z</time>
      </trkpt>
      <trkpt lat="44.67197" lon="7.06726">
        <ele>2527</ele>
        <time>2022-07-12T12:13:36Z</time>
      </trkpt>
      <trkpt lat="44.67199" lon="7.06731">
        <ele>2526</ele>
        <time>2022-07-12T12:13:43Z</time>
      </trkpt>
      <trkpt lat="44.67197" lon="7.06736">
        <ele>2524</ele>
        <time>2022-07-12T12:14:02Z</time>
      </trkpt>
      <trkpt lat="44.67197" lon="7.06741">
        <ele>2522</ele>
        <time>2022-07-12T12:14:15Z</time>
      </trkpt>
      <trkpt lat="44.67196" lon="7.06746">
        <ele>2521</ele>
        <time>2022-07-12T12:14:28Z</time>
      </trkpt>
      <trkpt lat="44.67193" lon="7.06749">
        <ele>2519</ele>
        <time>2022-07-12T12:14:38Z</time>
      </trkpt>
      <trkpt lat="44.67194" lon="7.06754">
        <ele>2516</ele>
        <time>2022-07-12T12:15:12Z</time>
      </trkpt>
      <trkpt lat="44.67193" lon="7.06765">
        <ele>2512</ele>
        <time>2022-07-12T12:15:35Z</time>
      </trkpt>
      <trkpt lat="44.67192" lon="7.0677">
        <ele>2511</ele>
        <time>2022-07-12T12:15:49Z</time>
      </trkpt>
      <trkpt lat="44.67188" lon="7.06769">
        <ele>2511</ele>
        <time>2022-07-12T12:15:59Z</time>
      </trkpt>
      <trkpt lat="44.67186" lon="7.06773">
        <ele>2509</ele>
        <time>2022-07-12T12:16:14Z</time>
      </trkpt>
      <trkpt lat="44.67183" lon="7.06769">
        <ele>2509</ele>
        <time>2022-07-12T12:16:22Z</time>
      </trkpt>
      <trkpt lat="44.6718" lon="7.06766">
        <ele>2508</ele>
        <time>2022-07-12T12:16:28Z</time>
      </trkpt>
      <trkpt lat="44.67177" lon="7.06768">
        <ele>2509</ele>
        <time>2022-07-12T12:16:40Z</time>
      </trkpt>
      <trkpt lat="44.67173" lon="7.06765">
        <ele>2507</ele>
        <time>2022-07-12T12:16:47Z</time>
      </trkpt>
      <trkpt lat="44.6717" lon="7.06766">
        <ele>2505</ele>
        <time>2022-07-12T12:16:53Z</time>
      </trkpt>
      <trkpt lat="44.67168" lon="7.06762">
        <ele>2505</ele>
        <time>2022-07-12T12:16:59Z</time>
      </trkpt>
      <trkpt lat="44.67164" lon="7.0676">
        <ele>2504</ele>
        <time>2022-07-12T12:17:04Z</time>
      </trkpt>
      <trkpt lat="44.67161" lon="7.06761">
        <ele>2503</ele>
        <time>2022-07-12T12:17:11Z</time>
      </trkpt>
      <trkpt lat="44.67158" lon="7.06764">
        <ele>2501</ele>
        <time>2022-07-12T12:17:26Z</time>
      </trkpt>
      <trkpt lat="44.67155" lon="7.06767">
        <ele>2501</ele>
        <time>2022-07-12T12:17:32Z</time>
      </trkpt>
      <trkpt lat="44.67152" lon="7.06764">
        <ele>2498</ele>
        <time>2022-07-12T12:17:39Z</time>
      </trkpt>
      <trkpt lat="44.67148" lon="7.06765">
        <ele>2498</ele>
        <time>2022-07-12T12:17:59Z</time>
      </trkpt>
      <trkpt lat="44.67144" lon="7.06763">
        <ele>2498</ele>
        <time>2022-07-12T12:18:11Z</time>
      </trkpt>
      <trkpt lat="44.67142" lon="7.06759">
        <ele>2497</ele>
        <time>2022-07-12T12:18:16Z</time>
      </trkpt>
      <trkpt lat="44.67134" lon="7.06755">
        <ele>2496</ele>
        <time>2022-07-12T12:18:30Z</time>
      </trkpt>
      <trkpt lat="44.67131" lon="7.06752">
        <ele>2495</ele>
        <time>2022-07-12T12:18:36Z</time>
      </trkpt>
      <trkpt lat="44.67128" lon="7.06748">
        <ele>2493</ele>
        <time>2022-07-12T12:18:41Z</time>
      </trkpt>
      <trkpt lat="44.67127" lon="7.06743">
        <ele>2493</ele>
        <time>2022-07-12T12:18:48Z</time>
      </trkpt>
      <trkpt lat="44.67125" lon="7.06738">
        <ele>2494</ele>
        <time>2022-07-12T12:18:54Z</time>
      </trkpt>
      <trkpt lat="44.67122" lon="7.06736">
        <ele>2494</ele>
        <time>2022-07-12T12:19:04Z</time>
      </trkpt>
      <trkpt lat="44.67118" lon="7.06736">
        <ele>2494</ele>
        <time>2022-07-12T12:19:14Z</time>
      </trkpt>
      <trkpt lat="44.67114" lon="7.06735">
        <ele>2494</ele>
        <time>2022-07-12T12:19:23Z</time>
      </trkpt>
      <trkpt lat="44.67111" lon="7.06732">
        <ele>2493</ele>
        <time>2022-07-12T12:19:30Z</time>
      </trkpt>
      <trkpt lat="44.67108" lon="7.06731">
        <ele>2494</ele>
        <time>2022-07-12T12:19:35Z</time>
      </trkpt>
      <trkpt lat="44.67105" lon="7.06728">
        <ele>2493</ele>
        <time>2022-07-12T12:19:42Z</time>
      </trkpt>
      <trkpt lat="44.67102" lon="7.06725">
        <ele>2493</ele>
        <time>2022-07-12T12:19:48Z</time>
      </trkpt>
      <trkpt lat="44.67099" lon="7.06722">
        <ele>2492</ele>
        <time>2022-07-12T12:19:56Z</time>
      </trkpt>
      <trkpt lat="44.67096" lon="7.06724">
        <ele>2491</ele>
        <time>2022-07-12T12:20:06Z</time>
      </trkpt>
      <trkpt lat="44.67092" lon="7.06727">
        <ele>2490</ele>
        <time>2022-07-12T12:20:21Z</time>
      </trkpt>
      <trkpt lat="44.67089" lon="7.06729">
        <ele>2489</ele>
        <time>2022-07-12T12:20:43Z</time>
      </trkpt>
      <trkpt lat="44.67086" lon="7.06731">
        <ele>2488</ele>
        <time>2022-07-12T12:20:50Z</time>
      </trkpt>
      <trkpt lat="44.67082" lon="7.06731">
        <ele>2487</ele>
        <time>2022-07-12T12:20:57Z</time>
      </trkpt>
      <trkpt lat="44.67079" lon="7.06732">
        <ele>2486</ele>
        <time>2022-07-12T12:21:05Z</time>
      </trkpt>
      <trkpt lat="44.67076" lon="7.06731">
        <ele>2484</ele>
        <time>2022-07-12T12:21:13Z</time>
      </trkpt>
      <trkpt lat="44.67073" lon="7.06736">
        <ele>2482</ele>
        <time>2022-07-12T12:21:57Z</time>
      </trkpt>
      <trkpt lat="44.6707" lon="7.06733">
        <ele>2481</ele>
        <time>2022-07-12T12:22:05Z</time>
      </trkpt>
      <trkpt lat="44.67067" lon="7.06729">
        <ele>2479</ele>
        <time>2022-07-12T12:22:09Z</time>
      </trkpt>
      <trkpt lat="44.67063" lon="7.0673">
        <ele>2477</ele>
        <time>2022-07-12T12:22:16Z</time>
      </trkpt>
      <trkpt lat="44.6706" lon="7.06731">
        <ele>2477</ele>
        <time>2022-07-12T12:22:24Z</time>
      </trkpt>
      <trkpt lat="44.67053" lon="7.06726">
        <ele>2475</ele>
        <time>2022-07-12T12:22:32Z</time>
      </trkpt>
      <trkpt lat="44.6705" lon="7.06728">
        <ele>2474</ele>
        <time>2022-07-12T12:22:38Z</time>
      </trkpt>
      <trkpt lat="44.67046" lon="7.06726">
        <ele>2473</ele>
        <time>2022-07-12T12:22:54Z</time>
      </trkpt>
      <trkpt lat="44.67042" lon="7.06718">
        <ele>2472</ele>
        <time>2022-07-12T12:23:03Z</time>
      </trkpt>
      <trkpt lat="44.6704" lon="7.06714">
        <ele>2471</ele>
        <time>2022-07-12T12:23:08Z</time>
      </trkpt>
      <trkpt lat="44.67037" lon="7.06712">
        <ele>2471</ele>
        <time>2022-07-12T12:23:13Z</time>
      </trkpt>
      <trkpt lat="44.67033" lon="7.06715">
        <ele>2469</ele>
        <time>2022-07-12T12:23:21Z</time>
      </trkpt>
      <trkpt lat="44.6703" lon="7.06712">
        <ele>2469</ele>
        <time>2022-07-12T12:23:26Z</time>
      </trkpt>
      <trkpt lat="44.67027" lon="7.06709">
        <ele>2468</ele>
        <time>2022-07-12T12:23:29Z</time>
      </trkpt>
      <trkpt lat="44.67024" lon="7.06709">
        <ele>2468</ele>
        <time>2022-07-12T12:23:34Z</time>
      </trkpt>
      <trkpt lat="44.6702" lon="7.06709">
        <ele>2467</ele>
        <time>2022-07-12T12:23:39Z</time>
      </trkpt>
      <trkpt lat="44.67014" lon="7.06704">
        <ele>2466</ele>
        <time>2022-07-12T12:23:47Z</time>
      </trkpt>
      <trkpt lat="44.67011" lon="7.06702">
        <ele>2466</ele>
        <time>2022-07-12T12:23:51Z</time>
      </trkpt>
      <trkpt lat="44.67013" lon="7.06699">
        <ele>2466</ele>
        <time>2022-07-12T12:24:39Z</time>
      </trkpt>
      <trkpt lat="44.67017" lon="7.06698">
        <ele>2462</ele>
        <time>2022-07-12T12:25:10Z</time>
      </trkpt>
      <trkpt lat="44.67023" lon="7.06701">
        <ele>2460</ele>
        <time>2022-07-12T12:25:22Z</time>
      </trkpt>
      <trkpt lat="44.67024" lon="7.06706">
        <ele>2458</ele>
        <time>2022-07-12T13:08:26Z</time>
      </trkpt>
      <trkpt lat="44.67027" lon="7.0671">
        <ele>2456</ele>
        <time>2022-07-12T13:08:30Z</time>
      </trkpt>
      <trkpt lat="44.67022" lon="7.06711">
        <ele>2454</ele>
        <time>2022-07-12T13:09:23Z</time>
      </trkpt>
      <trkpt lat="44.67018" lon="7.06712">
        <ele>2453</ele>
        <time>2022-07-12T13:09:28Z</time>
      </trkpt>
      <trkpt lat="44.67014" lon="7.06716">
        <ele>2452</ele>
        <time>2022-07-12T13:09:33Z</time>
      </trkpt>
      <trkpt lat="44.6701" lon="7.06714">
        <ele>2450</ele>
        <time>2022-07-12T13:09:40Z</time>
      </trkpt>
      <trkpt lat="44.67006" lon="7.06716">
        <ele>2448</ele>
        <time>2022-07-12T13:09:45Z</time>
      </trkpt>
      <trkpt lat="44.67003" lon="7.06716">
        <ele>2447</ele>
        <time>2022-07-12T13:09:49Z</time>
      </trkpt>
      <trkpt lat="44.67" lon="7.06713">
        <ele>2447</ele>
        <time>2022-07-12T13:09:53Z</time>
      </trkpt>
      <trkpt lat="44.66996" lon="7.06712">
        <ele>2446</ele>
        <time>2022-07-12T13:09:58Z</time>
      </trkpt>
      <trkpt lat="44.66994" lon="7.06708">
        <ele>2445</ele>
        <time>2022-07-12T13:10:04Z</time>
      </trkpt>
      <trkpt lat="44.66992" lon="7.06704">
        <ele>2443</ele>
        <time>2022-07-12T13:10:10Z</time>
      </trkpt>
      <trkpt lat="44.6699" lon="7.06699">
        <ele>2441</ele>
        <time>2022-07-12T13:10:16Z</time>
      </trkpt>
      <trkpt lat="44.66988" lon="7.06695">
        <ele>2440</ele>
        <time>2022-07-12T13:10:22Z</time>
      </trkpt>
      <trkpt lat="44.66986" lon="7.0669">
        <ele>2439</ele>
        <time>2022-07-12T13:10:28Z</time>
      </trkpt>
      <trkpt lat="44.66982" lon="7.06681">
        <ele>2436</ele>
        <time>2022-07-12T13:10:38Z</time>
      </trkpt>
      <trkpt lat="44.66979" lon="7.06677">
        <ele>2435</ele>
        <time>2022-07-12T13:10:43Z</time>
      </trkpt>
      <trkpt lat="44.66966" lon="7.06664">
        <ele>2434</ele>
        <time>2022-07-12T13:10:59Z</time>
      </trkpt>
      <trkpt lat="44.66957" lon="7.06657">
        <ele>2434</ele>
        <time>2022-07-12T13:11:13Z</time>
      </trkpt>
      <trkpt lat="44.66954" lon="7.06654">
        <ele>2434</ele>
        <time>2022-07-12T13:11:17Z</time>
      </trkpt>
      <trkpt lat="44.66951" lon="7.06651">
        <ele>2434</ele>
        <time>2022-07-12T13:11:21Z</time>
      </trkpt>
      <trkpt lat="44.66948" lon="7.06647">
        <ele>2434</ele>
        <time>2022-07-12T13:11:26Z</time>
      </trkpt>
      <trkpt lat="44.66944" lon="7.06645">
        <ele>2434</ele>
        <time>2022-07-12T13:11:30Z</time>
      </trkpt>
      <trkpt lat="44.66941" lon="7.06643">
        <ele>2434</ele>
        <time>2022-07-12T13:11:33Z</time>
      </trkpt>
      <trkpt lat="44.66935" lon="7.06636">
        <ele>2433</ele>
        <time>2022-07-12T13:11:40Z</time>
      </trkpt>
      <trkpt lat="44.66932" lon="7.06632">
        <ele>2432</ele>
        <time>2022-07-12T13:11:44Z</time>
      </trkpt>
      <trkpt lat="44.66928" lon="7.06631">
        <ele>2432</ele>
        <time>2022-07-12T13:11:48Z</time>
      </trkpt>
      <trkpt lat="44.66925" lon="7.06629">
        <ele>2432</ele>
        <time>2022-07-12T13:11:52Z</time>
      </trkpt>
      <trkpt lat="44.66918" lon="7.06624">
        <ele>2432</ele>
        <time>2022-07-12T13:12:00Z</time>
      </trkpt>
      <trkpt lat="44.66905" lon="7.06612">
        <ele>2433</ele>
        <time>2022-07-12T13:12:16Z</time>
      </trkpt>
      <trkpt lat="44.66901" lon="7.0661">
        <ele>2432</ele>
        <time>2022-07-12T13:12:19Z</time>
      </trkpt>
      <trkpt lat="44.66898" lon="7.06608">
        <ele>2432</ele>
        <time>2022-07-12T13:12:23Z</time>
      </trkpt>
      <trkpt lat="44.66885" lon="7.06595">
        <ele>2432</ele>
        <time>2022-07-12T13:12:39Z</time>
      </trkpt>
      <trkpt lat="44.6688" lon="7.06588">
        <ele>2431</ele>
        <time>2022-07-12T13:12:47Z</time>
      </trkpt>
      <trkpt lat="44.66878" lon="7.06584">
        <ele>2431</ele>
        <time>2022-07-12T13:12:51Z</time>
      </trkpt>
      <trkpt lat="44.66874" lon="7.06582">
        <ele>2431</ele>
        <time>2022-07-12T13:12:55Z</time>
      </trkpt>
      <trkpt lat="44.66871" lon="7.06579">
        <ele>2431</ele>
        <time>2022-07-12T13:12:59Z</time>
      </trkpt>
      <trkpt lat="44.66861" lon="7.06563">
        <ele>2431</ele>
        <time>2022-07-12T13:13:14Z</time>
      </trkpt>
      <trkpt lat="44.66842" lon="7.06543">
        <ele>2431</ele>
        <time>2022-07-12T13:13:39Z</time>
      </trkpt>
      <trkpt lat="44.66839" lon="7.06541">
        <ele>2431</ele>
        <time>2022-07-12T13:13:42Z</time>
      </trkpt>
      <trkpt lat="44.66833" lon="7.06536">
        <ele>2431</ele>
        <time>2022-07-12T13:13:51Z</time>
      </trkpt>
      <trkpt lat="44.6683" lon="7.06532">
        <ele>2431</ele>
        <time>2022-07-12T13:13:55Z</time>
      </trkpt>
      <trkpt lat="44.66824" lon="7.06527">
        <ele>2432</ele>
        <time>2022-07-12T13:14:03Z</time>
      </trkpt>
      <trkpt lat="44.66823" lon="7.06522">
        <ele>2432</ele>
        <time>2022-07-12T13:14:06Z</time>
      </trkpt>
      <trkpt lat="44.6682" lon="7.06521">
        <ele>2431</ele>
        <time>2022-07-12T13:14:09Z</time>
      </trkpt>
      <trkpt lat="44.66816" lon="7.06521">
        <ele>2431</ele>
        <time>2022-07-12T13:14:13Z</time>
      </trkpt>
      <trkpt lat="44.6681" lon="7.06514">
        <ele>2430</ele>
        <time>2022-07-12T13:14:21Z</time>
      </trkpt>
      <trkpt lat="44.66807" lon="7.0651">
        <ele>2430</ele>
        <time>2022-07-12T13:14:26Z</time>
      </trkpt>
      <trkpt lat="44.66804" lon="7.06508">
        <ele>2430</ele>
        <time>2022-07-12T13:14:30Z</time>
      </trkpt>
      <trkpt lat="44.668" lon="7.06506">
        <ele>2429</ele>
        <time>2022-07-12T13:14:34Z</time>
      </trkpt>
      <trkpt lat="44.66793" lon="7.06502">
        <ele>2429</ele>
        <time>2022-07-12T13:14:43Z</time>
      </trkpt>
      <trkpt lat="44.6679" lon="7.06499">
        <ele>2429</ele>
        <time>2022-07-12T13:14:47Z</time>
      </trkpt>
      <trkpt lat="44.66786" lon="7.06498">
        <ele>2430</ele>
        <time>2022-07-12T13:14:51Z</time>
      </trkpt>
      <trkpt lat="44.66782" lon="7.06497">
        <ele>2430</ele>
        <time>2022-07-12T13:14:56Z</time>
      </trkpt>
      <trkpt lat="44.66779" lon="7.06496">
        <ele>2430</ele>
        <time>2022-07-12T13:15:00Z</time>
      </trkpt>
      <trkpt lat="44.66777" lon="7.0649">
        <ele>2430</ele>
        <time>2022-07-12T13:15:05Z</time>
      </trkpt>
      <trkpt lat="44.6677" lon="7.06487">
        <ele>2429</ele>
        <time>2022-07-12T13:15:16Z</time>
      </trkpt>
      <trkpt lat="44.66767" lon="7.06485">
        <ele>2428</ele>
        <time>2022-07-12T13:15:20Z</time>
      </trkpt>
      <trkpt lat="44.66764" lon="7.06483">
        <ele>2428</ele>
        <time>2022-07-12T13:15:26Z</time>
      </trkpt>
      <trkpt lat="44.66761" lon="7.06481">
        <ele>2428</ele>
        <time>2022-07-12T13:15:32Z</time>
      </trkpt>
      <trkpt lat="44.66757" lon="7.06482">
        <ele>2427</ele>
        <time>2022-07-12T13:15:37Z</time>
      </trkpt>
      <trkpt lat="44.66753" lon="7.06482">
        <ele>2426</ele>
        <time>2022-07-12T13:15:42Z</time>
      </trkpt>
      <trkpt lat="44.66742" lon="7.06485">
        <ele>2427</ele>
        <time>2022-07-12T13:15:53Z</time>
      </trkpt>
      <trkpt lat="44.66727" lon="7.06494">
        <ele>2427</ele>
        <time>2022-07-12T13:16:11Z</time>
      </trkpt>
      <trkpt lat="44.66723" lon="7.06494">
        <ele>2426</ele>
        <time>2022-07-12T13:16:17Z</time>
      </trkpt>
      <trkpt lat="44.66709" lon="7.06498">
        <ele>2428</ele>
        <time>2022-07-12T13:16:32Z</time>
      </trkpt>
      <trkpt lat="44.66705" lon="7.06499">
        <ele>2429</ele>
        <time>2022-07-12T13:16:38Z</time>
      </trkpt>
      <trkpt lat="44.66701" lon="7.06501">
        <ele>2430</ele>
        <time>2022-07-12T13:16:43Z</time>
      </trkpt>
      <trkpt lat="44.66693" lon="7.06501">
        <ele>2431</ele>
        <time>2022-07-12T13:16:53Z</time>
      </trkpt>
      <trkpt lat="44.66685" lon="7.06497">
        <ele>2433</ele>
        <time>2022-07-12T13:17:03Z</time>
      </trkpt>
      <trkpt lat="44.66681" lon="7.06496">
        <ele>2434</ele>
        <time>2022-07-12T13:17:08Z</time>
      </trkpt>
      <trkpt lat="44.66678" lon="7.06493">
        <ele>2436</ele>
        <time>2022-07-12T13:17:14Z</time>
      </trkpt>
      <trkpt lat="44.66674" lon="7.06493">
        <ele>2436</ele>
        <time>2022-07-12T13:17:19Z</time>
      </trkpt>
      <trkpt lat="44.66671" lon="7.0649">
        <ele>2438</ele>
        <time>2022-07-12T13:17:24Z</time>
      </trkpt>
      <trkpt lat="44.66664" lon="7.06485">
        <ele>2441</ele>
        <time>2022-07-12T13:17:36Z</time>
      </trkpt>
      <trkpt lat="44.6666" lon="7.06482">
        <ele>2442</ele>
        <time>2022-07-12T13:17:40Z</time>
      </trkpt>
      <trkpt lat="44.66654" lon="7.06475">
        <ele>2442</ele>
        <time>2022-07-12T13:17:48Z</time>
      </trkpt>
      <trkpt lat="44.66647" lon="7.0647">
        <ele>2442</ele>
        <time>2022-07-12T13:17:57Z</time>
      </trkpt>
      <trkpt lat="44.66647" lon="7.06465">
        <ele>2442</ele>
        <time>2022-07-12T13:18:00Z</time>
      </trkpt>
      <trkpt lat="44.66644" lon="7.06462">
        <ele>2441</ele>
        <time>2022-07-12T13:18:05Z</time>
      </trkpt>
      <trkpt lat="44.6664" lon="7.06458">
        <ele>2440</ele>
        <time>2022-07-12T13:18:09Z</time>
      </trkpt>
      <trkpt lat="44.66637" lon="7.06456">
        <ele>2440</ele>
        <time>2022-07-12T13:18:13Z</time>
      </trkpt>
      <trkpt lat="44.66624" lon="7.06444">
        <ele>2441</ele>
        <time>2022-07-12T13:18:29Z</time>
      </trkpt>
      <trkpt lat="44.66617" lon="7.06442">
        <ele>2439</ele>
        <time>2022-07-12T13:18:37Z</time>
      </trkpt>
      <trkpt lat="44.66614" lon="7.06439">
        <ele>2438</ele>
        <time>2022-07-12T13:18:41Z</time>
      </trkpt>
      <trkpt lat="44.66611" lon="7.06437">
        <ele>2438</ele>
        <time>2022-07-12T13:18:44Z</time>
      </trkpt>
      <trkpt lat="44.6661" lon="7.06432">
        <ele>2438</ele>
        <time>2022-07-12T13:18:51Z</time>
      </trkpt>
      <trkpt lat="44.66607" lon="7.06428">
        <ele>2438</ele>
        <time>2022-07-12T13:18:56Z</time>
      </trkpt>
      <trkpt lat="44.66604" lon="7.06429">
        <ele>2438</ele>
        <time>2022-07-12T13:19:01Z</time>
      </trkpt>
      <trkpt lat="44.66599" lon="7.06433">
        <ele>2440</ele>
        <time>2022-07-12T13:19:05Z</time>
      </trkpt>
      <trkpt lat="44.66596" lon="7.06432">
        <ele>2441</ele>
        <time>2022-07-12T13:19:09Z</time>
      </trkpt>
      <trkpt lat="44.66588" lon="7.06431">
        <ele>2442</ele>
        <time>2022-07-12T13:19:18Z</time>
      </trkpt>
      <trkpt lat="44.66584" lon="7.06433">
        <ele>2442</ele>
        <time>2022-07-12T13:19:21Z</time>
      </trkpt>
      <trkpt lat="44.6658" lon="7.06432">
        <ele>2442</ele>
        <time>2022-07-12T13:19:26Z</time>
      </trkpt>
      <trkpt lat="44.66577" lon="7.06434">
        <ele>2442</ele>
        <time>2022-07-12T13:19:29Z</time>
      </trkpt>
      <trkpt lat="44.66573" lon="7.06436">
        <ele>2442</ele>
        <time>2022-07-12T13:19:33Z</time>
      </trkpt>
      <trkpt lat="44.66563" lon="7.06443">
        <ele>2445</ele>
        <time>2022-07-12T13:19:46Z</time>
      </trkpt>
      <trkpt lat="44.66563" lon="7.06449">
        <ele>2446</ele>
        <time>2022-07-12T13:19:53Z</time>
      </trkpt>
      <trkpt lat="44.66566" lon="7.06452">
        <ele>2445</ele>
        <time>2022-07-12T13:19:59Z</time>
      </trkpt>
      <trkpt lat="44.66563" lon="7.0645">
        <ele>2445</ele>
        <time>2022-07-12T13:20:18Z</time>
      </trkpt>
    </trkseg>
  </trk>
</gpx>